[[{"header":{"parameterUnit":"m.s-1","parameterCategory":1,"la1":31.0,"la2":29.5877,"lo1":-88.7671,"lo2":-86.6584,"dy":0.0162,"dx":0.0185,"nx":115,"ny":88,"refTime":"2023-08-28T12:00:00:Z","depth":0,"parameterNumber":2,"parameterNumberName":"U-component_of_WINDS"},"data":[0.0,0.0,0.0,0.0,0.0,0.0,0.0,0.0,0.0,0.0,0.0,0.0,0.0,0.0,0.0,0.0,0.0,0.0,0.0,0.0,0.0,0.0,0.0,0.0,0.0,0.0,0.0,0.0,0.0,0.0,0.0,0.0,0.0,0.0,0.0,0.0,0.0,0.0,0.0,0.0,0.0,0.0,0.0,0.0,0.0,0.0,0.0,0.0,0.0,0.0,0.0,0.0,0.0,0.0,0.0,0.0,0.0,0.0,0.0,0.0,0.0,0.0,0.0,0.0,0.0,0.0,0.0,0.0,0.0,0.0,0.0,0.0,0.0,0.0,0.0,0.0,0.0,0.0,0.0,0.0,0.0,0.0,0.0,0.0,0.0,0.0,0.0,0.0,0.0,0.0,0.0,0.0,0.0,0.0,0.0,0.0,0.0,0.0,0.0,0.0,0.0,0.0,0.0,0.0,0.0,0.0,0.0,0.0,0.0,0.0,0.0,0.0,0.0,0.0,0.0,0.0,0.0,0.0,0.0,0.0,0.0,0.0,0.0,0.0,0.0,0.0,0.0,0.0,0.0,0.0,0.0,0.0,0.0,0.0,0.0,0.0,0.0,0.0,0.0,0.0,0.0,0.0,0.0,0.0,0.0,0.0,0.0,0.0,0.0,0.0,0.0,0.0,0.0,0.0,0.0,0.0,0.0,0.0,0.0,0.0,0.0,0.0,0.0,0.0,0.0,0.0,0.0,0.0,0.0,0.0,0.0,0.0,0.0,0.0,0.0,0.0,0.0,0.0,0.0,0.0,0.0,0.0,0.0,0.0,0.0,0.0,0.0,0.0,0.0,0.0,0.0,0.0,0.0,0.0,0.0,0.0,0.0,0.0,0.0,0.0,0.0,0.0,0.0,0.0,0.0,0.0,0.0,0.0,0.0,0.0,0.0,0.0,0.0,0.0,0.0,0.0,0.0,0.0,0.0,0.0,0.0,0.0,0.0,0.0,0.0,0.0,0.0,0.0,0.0,0.0,0.0,0.0,0.0,0.0,0.0,0.0,0.0,0.0,0.0,0.0,0.0,0.0,0.0,0.0,0.0,0.0,0.0,0.0,0.0,0.0,0.0,0.0,0.0,0.0,0.0,0.0,0.0,0.0,0.0,0.0,0.0,0.0,0.0,0.0,0.0,0.0,0.0,0.0,0.0,0.0,0.0,0.0,0.0,0.0,0.0,0.0,0.0,0.0,0.0,0.0,0.0,0.0,0.0,0.0,0.0,0.0,0.0,0.0,0.0,0.0,0.0,0.0,0.0,0.0,0.0,0.0,0.0,0.0,0.0,0.0,0.0,0.0,0.0,0.0,0.0,0.0,0.0,0.0,0.0,0.0,0.0,0.0,0.0,0.0,0.0,0.0,0.0,0.0,0.0,0.0,0.0,0.0,0.0,0.0,0.0,0.0,0.0,0.0,0.0,0.0,0.0,0.0,0.0,0.0,0.0,0.0,0.0,0.0,0.0,0.0,0.0,0.0,0.0,0.0,0.0,0.0,0.0,0.0,0.0,0.0,0.0,0.0,0.0,0.0,0.0,0.0,0.0,0.0,0.0,0.0,0.0,0.0,0.0,0.0,0.0,0.0,0.0,0.0,0.0,0.0,0.0,0.0,0.0,0.0,0.0,0.0,0.0,0.0,0.0,0.0,0.0,0.0,0.0,0.0,0.0,0.0,0.0,0.0,0.0,0.0,0.0,0.0,0.0,0.0,0.0,0.0,0.0,0.0,0.0,0.0,0.0,0.0,0.0,0.0,0.0,0.0,0.0,0.0,0.0,0.0,0.0,0.0,0.0,0.0,0.0,0.0,0.0,0.0,0.0,0.0,0.0,0.0,0.0,0.0,0.0,0.0,0.0,0.0,0.0,0.0,0.0,0.0,0.0,0.0,0.0,0.0,0.0,0.0,0.0,0.0,0.0,0.0,0.0,0.0,0.0,0.0,0.0,0.0,0.0,0.0,0.0,0.0,0.0,0.0,0.0,0.0,0.0,0.0,0.0,0.0,0.0,0.0,0.0,0.0,0.0,0.0,0.0,0.0,0.0,0.0,0.0,0.0,0.0,0.0,0.0,0.0,0.0,0.0,0.0,0.0,0.0,0.0,0.0,0.0,0.0,0.0,0.0,0.0,0.0,0.0,0.0,0.0,0.0,0.0,0.0,0.0,0.0,0.0,0.0,0.0,0.0,0.0,0.0,0.0,0.0,0.0,0.0,0.0,0.0,0.0,0.0,0.0,0.0,0.0,0.0,0.0,0.0,0.0,0.0,0.0,0.0,0.0,0.0,0.0,0.0,0.0,0.0,0.0,0.0,0.0,0.0,0.0,0.0,0.0,0.0,0.0,0.0,0.0,0.0,0.0,0.0,0.0,0.0,0.0,0.0,0.0,0.0,0.0,0.0,0.0,0.0,0.0,0.0,0.0,0.0,0.0,0.0,0.0,0.0,0.0,0.0,0.0,0.0,0.0,0.0,0.0,0.0,0.0,0.0,0.0,0.0,0.0,0.0,0.0,0.0,0.0,0.0,0.0,0.0,0.0,0.0,0.0,0.0,0.0,0.0,0.0,0.0,0.0,0.0,0.0,0.0,0.0,0.0,0.0,0.0,0.0,0.0,0.0,0.0,0.0,0.0,0.0,0.0,0.0,0.0,0.0,0.0,0.0,0.0,0.0,0.0,0.0,0.0,0.0,0.0,0.0,0.0,0.0,0.0,0.0,0.0,0.0,0.0,0.0,0.0,0.0,0.0,0.0,0.0,0.0,0.0,0.0,0.0,0.0,0.0,0.0,0.0,0.0,0.0,0.0,0.0,0.0,0.0,0.0,0.0,0.0,0.0,0.0,0.0,0.0,0.0,0.0,0.0,0.0,0.0,0.0,0.0,0.0,0.0,0.0,0.0,0.0,0.0,0.0,0.0,0.0,0.0,0.0,0.0,0.0,0.0,0.0,0.0,0.0,0.0,0.0,0.0,0.0,0.0,0.0,0.0,0.0,0.0,0.0,0.0,0.0,0.0,0.0,0.0,0.0,0.0,0.0,0.0,0.0,0.0,0.0,0.0,0.0,0.0,0.0,0.0,0.0,0.0,0.0,0.0,0.0,0.0,0.0,0.0,0.0,0.0,0.0,0.0,0.0,0.0,0.0,0.0,0.0,0.0,0.0,0.0,0.0,0.0,0.0,0.0,0.0,0.0,0.0,0.0,0.0,0.0,0.0,0.0,0.0,0.0,0.0,0.0,0.0,0.0,0.0,0.0,0.0,0.0,0.0,0.0,0.0,0.0,0.0,0.0,0.0,0.0,0.0,0.0,0.0,0.0,0.0,0.0,0.0,0.0,0.0,0.0,0.0,0.0,0.0,0.0,0.0,0.0,0.0,0.0,0.0,0.0,0.0,0.0,0.0,0.0,0.0,0.0,0.0,0.0,0.0,0.0,0.0,0.0,0.0,0.0,0.0,0.0,0.0,0.0,0.0,0.0,0.0,0.0,0.0,0.0,0.0,0.0,0.0,0.0,0.0,0.0,0.0,0.0,0.0,0.0,0.0,0.0,0.0,0.0,0.0,0.0,0.0,0.0,0.0,0.0,0.0,0.0,0.0,0.0,0.0,0.0,0.0,0.0,0.0,0.0,0.0,0.0,0.0,0.0,0.0,0.0,0.0,0.0,0.0,0.0,0.0,0.0,0.0,0.0,0.0,0.0,0.0,0.0,0.0,0.0,0.0,0.0,0.0,0.0,0.0,0.0,0.0,0.0,0.0,0.0,0.0,0.0,0.0,0.0,0.0,0.0,0.0,0.0,0.0,0.0,0.0,0.0,0.0,0.0,0.0,0.0,0.0,0.0,0.0,0.0,0.0,0.0,0.0,0.0,0.0,0.0,0.0,0.0,0.0,0.0,0.0,0.0,0.0,0.0,0.0,0.0,0.0,0.0,0.0,0.0,0.0,0.0,0.0,0.0,0.0,0.0,0.0,0.0,0.0,0.0,0.0,0.0,0.0,0.0,0.0,0.0,0.0,0.0,0.0,0.0,0.0,0.0,0.0,0.0,0.0,0.0,0.0,0.0,0.0,0.0,0.0,0.0,0.0,0.0,0.0,0.0,0.0,0.0,0.0,0.0,0.0,0.0,0.0,0.0,0.0,0.0,0.0,0.0,0.0,0.0,0.0,0.0,0.0,0.0,0.0,0.0,0.0,0.0,0.0,0.0,0.0,0.0,0.0,0.0,0.0,0.0,0.0,3.0629,0.0,0.0,0.0,3.0794,0.0,0.0,0.0,0.0,0.0,0.0,0.0,0.0,0.0,0.0,0.0,0.0,0.0,0.0,0.0,0.0,0.0,0.0,0.0,0.0,0.0,0.0,0.0,0.0,0.0,0.0,0.0,0.0,0.0,0.0,0.0,0.0,0.0,0.0,0.0,0.0,0.0,0.0,0.0,0.0,0.0,0.0,0.0,0.0,0.0,0.0,0.0,0.0,0.0,0.0,0.0,0.0,0.0,0.0,0.0,0.0,0.0,0.0,0.0,0.0,0.0,0.0,0.0,0.0,0.0,0.0,0.0,0.0,0.0,0.0,0.0,0.0,0.0,0.0,0.0,0.0,0.0,0.0,0.0,0.0,0.0,0.0,0.0,0.0,0.0,0.0,0.0,0.0,0.0,0.0,0.0,0.0,0.0,0.0,0.0,0.0,0.0,0.0,0.0,0.0,0.0,0.0,0.0,0.0,0.0,0.0,0.0,0.0,0.0,0.0,3.0604,3.0704,3.0767,3.0789,3.0778,0.0,0.0,0.0,0.0,0.0,0.0,0.0,0.0,0.0,0.0,0.0,0.0,0.0,0.0,0.0,0.0,0.0,0.0,0.0,0.0,0.0,0.0,0.0,0.0,0.0,0.0,0.0,0.0,0.0,0.0,0.0,0.0,0.0,0.0,0.0,0.0,0.0,0.0,0.0,0.0,0.0,0.0,0.0,0.0,0.0,0.0,0.0,0.0,0.0,0.0,0.0,0.0,0.0,0.0,0.0,0.0,0.0,0.0,0.0,0.0,0.0,0.0,0.0,0.0,0.0,0.0,0.0,0.0,0.0,0.0,0.0,0.0,0.0,0.0,0.0,0.0,0.0,0.0,0.0,0.0,0.0,0.0,0.0,0.0,0.0,0.0,0.0,0.0,0.0,0.0,0.0,0.0,0.0,0.0,0.0,0.0,0.0,0.0,0.0,0.0,0.0,0.0,0.0,0.0,0.0,0.0,0.0,0.0,0.0,0.0,0.0,0.0,3.0753,3.0715,3.0528,0.0,0.0,0.0,0.0,0.0,0.0,0.0,0.0,0.0,0.0,0.0,0.0,0.0,0.0,0.0,0.0,0.0,0.0,0.0,0.0,0.0,0.0,0.0,0.0,0.0,0.0,0.0,0.0,0.0,0.0,0.0,0.0,0.0,0.0,0.0,0.0,0.0,0.0,0.0,0.0,0.0,0.0,0.0,0.0,0.0,0.0,0.0,0.0,0.0,0.0,0.0,0.0,0.0,0.0,0.0,0.0,0.0,0.0,0.0,0.0,0.0,0.0,0.0,0.0,0.0,0.0,0.0,0.0,0.0,0.0,0.0,0.0,0.0,0.0,0.0,0.0,0.0,0.0,0.0,0.0,0.0,0.0,0.0,0.0,0.0,0.0,0.0,0.0,0.0,0.0,0.0,0.0,0.0,0.0,0.0,0.0,0.0,0.0,0.0,0.0,0.0,0.0,0.0,0.0,0.0,0.0,0.0,0.0,0.0,0.0,3.0634,3.0691,3.0774,0.0,2.9762,0.0,0.0,0.0,0.0,0.0,0.0,0.0,0.0,0.0,0.0,0.0,0.0,0.0,0.0,0.0,0.0,0.0,0.0,0.0,0.0,0.0,0.0,0.0,0.0,0.0,0.0,0.0,0.0,0.0,0.0,0.0,0.0,0.0,0.0,0.0,0.0,0.0,0.0,0.0,0.0,0.0,0.0,0.0,0.0,0.0,0.0,0.0,0.0,0.0,0.0,0.0,0.0,0.0,0.0,0.0,0.0,0.0,0.0,0.0,0.0,0.0,0.0,0.0,0.0,0.0,0.0,0.0,0.0,0.0,0.0,0.0,0.0,0.0,0.0,0.0,0.0,0.0,0.0,0.0,0.0,0.0,0.0,0.0,0.0,0.0,0.0,0.0,0.0,0.0,0.0,0.0,0.0,0.0,0.0,0.0,0.0,0.0,0.0,0.0,0.0,0.0,0.0,0.0,0.0,0.0,0.0,0.0,0.0,0.0,0.0,3.0634,3.0691,3.0765,3.0407,0.0,0.0,0.0,0.0,0.0,0.0,0.0,0.0,0.0,0.0,0.0,0.0,0.0,0.0,0.0,0.0,0.0,0.0,0.0,0.0,0.0,0.0,0.0,0.0,0.0,0.0,0.0,0.0,0.0,0.0,0.0,0.0,0.0,0.0,0.0,0.0,0.0,0.0,0.0,0.0,0.0,0.0,0.0,0.0,0.0,0.0,0.0,0.0,0.0,0.0,0.0,0.0,0.0,0.0,0.0,0.0,0.0,0.0,0.0,0.0,0.0,0.0,0.0,0.0,0.0,0.0,0.0,0.0,0.0,0.0,0.0,0.0,0.0,0.0,0.0,0.0,0.0,0.0,0.0,0.0,0.0,0.0,0.0,0.0,0.0,0.0,0.0,0.0,0.0,0.0,0.0,0.0,0.0,0.0,0.0,0.0,0.0,0.0,0.0,0.0,0.0,0.0,0.0,0.0,0.0,0.0,0.0,0.0,0.0,0.0,3.053,3.063,3.072,3.0544,3.0082,2.9266,0.0,0.0,0.0,0.0,0.0,0.0,0.0,0.0,0.0,0.0,0.0,0.0,0.0,0.0,0.0,0.0,0.0,0.0,0.0,0.0,0.0,0.0,0.0,0.0,0.0,0.0,0.0,0.0,0.0,0.0,0.0,0.0,0.0,0.0,0.0,0.0,0.0,0.0,0.0,0.0,0.0,0.0,0.0,0.0,0.0,0.0,0.0,0.0,0.0,0.0,0.0,0.0,0.0,0.0,0.0,0.0,0.0,0.0,0.0,0.0,0.0,0.0,0.0,0.0,0.0,0.0,0.0,0.0,0.0,0.0,0.0,0.0,0.0,0.0,0.0,0.0,0.0,0.0,0.0,0.0,0.0,0.0,0.0,0.0,0.0,0.0,0.0,0.0,0.0,0.0,0.0,0.0,0.0,0.0,0.0,0.0,0.0,0.0,0.0,0.0,0.0,0.0,0.0,0.0,0.0,0.0,0.0,0.0,3.0359,3.0509,3.0633,3.0743,3.0056,2.924,0.0,0.0,0.0,0.0,0.0,0.0,0.0,0.0,0.0,0.0,0.0,0.0,0.0,0.0,0.0,0.0,0.0,0.0,0.0,0.0,0.0,0.0,0.0,0.0,0.0,0.0,0.0,0.0,0.0,0.0,0.0,0.0,0.0,0.0,0.0,0.0,0.0,0.0,0.0,0.0,0.0,0.0,0.0,0.0,0.0,0.0,0.0,0.0,0.0,0.0,0.0,0.0,0.0,0.0,0.0,0.0,0.0,0.0,0.0,0.0,0.0,0.0,0.0,0.0,0.0,0.0,0.0,0.0,0.0,0.0,0.0,0.0,0.0,0.0,0.0,0.0,0.0,0.0,0.0,0.0,0.0,0.0,0.0,0.0,0.0,0.0,0.0,0.0,0.0,0.0,0.0,0.0,0.0,0.0,0.0,0.0,0.0,0.0,0.0,0.0,0.0,0.0,0.0,0.0,0.0,0.0,0.0,0.0,0.0,2.8756,2.9458,2.9872,2.9959,2.9674,2.8885,0.0,0.0,0.0,0.0,0.0,0.0,0.0,0.0,0.0,0.0,0.0,0.0,0.0,0.0,0.0,0.0,0.0,0.0,0.0,0.0,0.0,0.0,0.0,0.0,0.0,0.0,0.0,0.0,0.0,0.0,0.0,0.0,0.0,0.0,0.0,0.0,0.0,0.0,0.0,0.0,0.0,0.0,0.0,0.0,0.0,0.0,0.0,0.0,0.0,0.0,0.0,0.0,0.0,0.0,0.0,0.0,0.0,0.0,0.0,0.0,0.0,0.0,0.0,0.0,0.0,0.0,0.0,0.0,0.0,0.0,0.0,0.0,0.0,0.0,0.0,0.0,0.0,0.0,0.0,0.0,0.0,0.0,0.0,0.0,0.0,0.0,0.0,0.0,0.0,0.0,0.0,0.0,0.0,0.0,0.0,0.0,0.0,0.0,0.0,0.0,0.0,0.0,0.0,0.0,0.0,0.0,0.0,0.0,0.0,2.783,0.0,2.9309,2.9042,2.9062,2.841,0.0,0.0,0.0,0.0,0.0,0.0,0.0,0.0,0.0,0.0,0.0,0.0,0.0,0.0,0.0,0.0,0.0,0.0,0.0,0.0,0.0,0.0,0.0,0.0,0.0,0.0,0.0,0.0,0.0,0.0,0.0,0.0,0.0,0.0,0.0,0.0,0.0,0.0,0.0,0.0,0.0,0.0,0.0,0.0,0.0,0.0,0.0,0.0,0.0,0.0,0.0,0.0,0.0,0.0,0.0,0.0,0.0,0.0,0.0,0.0,0.0,0.0,0.0,0.0,0.0,0.0,0.0,0.0,0.0,0.0,0.0,0.0,0.0,0.0,0.0,0.0,0.0,0.0,0.0,0.0,0.0,0.0,0.0,0.0,0.0,0.0,0.0,0.0,0.0,0.0,0.0,0.0,0.0,0.0,0.0,0.0,0.0,0.0,0.0,0.0,0.0,0.0,0.0,0.0,0.0,0.0,0.0,0.0,2.74,2.7794,2.8803,2.8905,2.8123,2.8164,2.7775,0.0,0.0,0.0,0.0,0.0,0.0,0.0,0.0,0.0,0.0,0.0,0.0,0.0,0.0,0.0,0.0,0.0,0.0,0.0,0.0,0.0,0.0,0.0,0.0,0.0,0.0,0.0,0.0,0.0,0.0,0.0,0.0,0.0,0.0,0.0,0.0,0.0,0.0,0.0,0.0,0.0,0.0,0.0,0.0,0.0,0.0,0.0,0.0,0.0,0.0,0.0,0.0,0.0,0.0,0.0,0.0,0.0,0.0,0.0,0.0,0.0,0.0,0.0,0.0,0.0,0.0,0.0,0.0,0.0,0.0,0.0,0.0,0.0,0.0,0.0,0.0,0.0,0.0,0.0,0.0,0.0,0.0,0.0,0.0,0.0,0.0,0.0,0.0,0.0,0.0,0.0,0.0,0.0,0.0,0.0,0.0,0.0,0.0,0.0,0.0,0.0,0.0,0.0,0.0,0.0,0.0,0.0,0.0,0.0,2.7062,2.7343,2.744,2.7344,2.7329,2.6736,0.0,0.0,0.0,0.0,0.0,0.0,0.0,0.0,0.0,0.0,0.0,0.0,0.0,0.0,0.0,0.0,0.0,0.0,0.0,0.0,0.0,0.0,0.0,0.0,0.0,0.0,0.0,0.0,0.0,0.0,0.0,0.0,0.0,0.0,0.0,0.0,0.0,0.0,0.0,0.0,0.0,0.0,0.0,0.0,0.0,0.0,0.0,0.0,0.0,0.0,0.0,0.0,0.0,0.0,0.0,0.0,0.0,0.0,0.0,0.0,0.0,0.0,0.0,0.0,0.0,0.0,0.0,0.0,0.0,0.0,0.0,0.0,0.0,0.0,0.0,0.0,0.0,0.0,0.0,0.0,0.0,0.0,0.0,0.0,0.0,0.0,0.0,0.0,0.0,0.0,0.0,0.0,0.0,0.0,0.0,0.0,0.0,0.0,0.0,0.0,0.0,0.0,0.0,0.0,0.0,0.0,0.0,0.0,0.0,2.5701,2.6238,2.6468,2.6407,2.6479,2.6041,2.4979,0.0,0.0,0.0,0.0,0.0,0.0,0.0,0.0,0.0,0.0,0.0,0.0,0.0,0.0,0.0,0.0,0.0,0.0,0.0,0.0,0.0,0.0,0.0,0.0,0.0,0.0,0.0,0.0,0.0,0.0,0.0,0.0,0.0,0.0,0.0,0.0,0.0,0.0,0.0,0.0,0.0,0.0,0.0,0.0,0.0,0.0,0.0,0.0,0.0,0.0,0.0,0.0,0.0,0.0,0.0,0.0,0.0,0.0,0.0,0.0,0.0,0.0,0.0,0.0,0.0,0.0,0.0,0.0,0.0,0.0,0.0,0.0,0.0,0.0,0.0,0.0,0.0,0.0,0.0,0.0,0.0,0.0,0.0,0.0,0.0,0.0,0.0,0.0,0.0,0.0,0.0,0.0,0.0,0.0,0.0,0.0,0.0,0.0,0.0,0.0,0.0,0.0,0.0,0.0,0.0,0.0,0.0,0.0,2.3912,2.5386,2.5918,2.5447,2.5643,2.5525,0.0,0.0,0.0,0.0,0.0,0.0,0.0,0.0,0.0,0.0,0.0,0.0,0.0,0.0,0.0,0.0,0.0,0.0,0.0,0.0,0.0,0.0,0.0,0.0,0.0,0.0,0.0,0.0,0.0,0.0,0.0,0.0,0.0,0.0,0.0,0.0,0.0,0.0,0.0,0.0,0.0,0.0,0.0,0.0,0.0,0.0,0.0,0.0,0.0,0.0,0.0,0.0,0.0,0.0,0.0,0.0,0.0,0.0,0.0,0.0,0.0,0.0,0.0,0.0,0.0,0.0,0.0,0.0,0.0,0.0,0.0,0.0,0.0,0.0,0.0,0.0,0.0,0.0,0.0,0.0,0.0,0.0,0.0,0.0,0.0,0.0,0.0,0.0,0.0,0.0,0.0,0.0,0.0,0.0,0.0,0.0,0.0,0.0,0.0,0.0,0.0,0.0,0.0,0.0,0.0,0.0,0.0,0.0,0.0,2.2875,2.3874,2.4769,2.5492,2.4629,2.4272,0.0,0.0,0.0,0.0,0.0,0.0,0.0,0.0,0.0,0.0,0.0,0.0,0.0,0.0,0.0,0.0,0.0,0.0,0.0,0.0,0.0,0.0,0.0,0.0,0.0,0.0,0.0,0.0,0.0,0.0,0.0,0.0,0.0,0.0,0.0,0.0,0.0,0.0,0.0,0.0,0.0,0.0,0.0,0.0,0.0,0.0,0.0,0.0,0.0,0.0,0.0,0.0,0.0,0.0,0.0,0.0,0.0,0.0,0.0,0.0,0.0,0.0,0.0,0.0,0.0,0.0,0.0,0.0,0.0,0.0,0.0,0.0,0.0,0.0,0.0,0.0,0.0,0.0,0.0,0.0,0.0,0.0,0.0,0.0,0.0,0.0,0.0,0.0,0.0,0.0,0.0,0.0,0.0,0.0,0.0,0.0,0.0,0.0,0.0,0.0,0.0,0.0,0.0,0.0,0.0,0.0,0.0,0.0,2.1084,2.1703,2.2557,2.345,2.4273,2.3798,2.3543,0.0,0.0,0.0,0.0,0.0,0.0,0.0,0.0,0.0,0.0,0.0,0.0,0.0,0.0,0.0,0.0,0.0,0.0,0.0,0.0,0.0,0.0,0.0,0.0,0.0,0.0,0.0,0.0,0.0,0.0,0.0,0.0,0.0,0.0,0.0,0.0,0.0,0.0,0.0,0.0,0.0,0.0,0.0,0.0,0.0,0.0,0.0,0.0,0.0,0.0,0.0,0.0,0.0,0.0,0.0,0.0,0.0,0.0,0.0,0.0,0.0,0.0,0.0,0.0,0.0,0.0,0.0,0.0,0.0,0.0,0.0,0.0,0.0,0.0,0.0,0.0,0.0,0.0,0.0,0.0,0.0,0.0,0.0,0.0,0.0,0.0,0.0,0.0,0.0,0.0,0.0,0.0,0.0,0.0,0.0,0.0,0.0,0.0,0.0,0.0,0.0,0.0,0.0,0.0,0.0,0.0,0.0,0.0,1.9912,2.0507,2.1517,2.2119,2.2307,2.3048,2.3166,0.0,0.0,0.0,0.0,0.0,0.0,0.0,0.0,0.0,0.0,0.0,0.0,0.0,0.0,0.0,0.0,0.0,0.0,0.0,0.0,0.0,0.0,0.0,0.0,0.0,0.0,0.0,0.0,0.0,0.0,0.0,0.0,0.0,0.0,0.0,0.0,0.0,0.0,0.0,0.0,0.0,0.0,0.0,0.0,0.0,0.0,0.0,0.0,0.0,0.0,0.0,0.0,0.0,0.0,0.0,0.0,0.0,0.0,0.0,0.0,0.0,0.0,0.0,0.0,0.0,0.0,0.0,0.0,0.0,0.0,0.0,0.0,0.0,0.0,0.0,0.0,0.0,0.0,0.0,0.0,0.0,0.0,0.0,0.0,0.0,0.0,0.0,0.0,0.0,0.0,0.0,0.0,0.0,0.0,0.0,0.0,0.0,0.0,0.0,0.0,0.0,0.0,0.0,0.0,0.0,0.0,0.0,0.0,1.9318,1.9976,2.1219,2.1621,2.1029,2.2082,2.2567,0.0,0.0,0.0,0.0,0.0,0.0,0.0,0.0,0.0,0.0,0.0,0.0,0.0,0.0,0.0,0.0,0.0,0.0,0.0,0.0,0.0,0.0,0.0,0.0,0.0,0.0,0.0,0.0,0.0,0.0,0.0,0.0,0.0,0.0,0.0,0.0,0.0,0.0,0.0,0.0,0.0,0.0,0.0,0.0,0.0,0.0,0.0,0.0,2.3123,0.0,0.0,0.0,0.0,0.0,0.0,0.0,0.0,0.0,0.0,0.0,0.0,0.0,0.0,0.0,0.0,0.0,0.0,0.0,0.0,0.0,0.0,0.0,0.0,0.0,0.0,0.0,0.0,0.0,0.0,0.0,0.0,0.0,0.0,0.0,0.0,0.0,0.0,0.0,0.0,0.0,0.0,0.0,0.0,0.0,0.0,0.0,0.0,0.0,0.0,0.0,0.0,0.0,0.0,0.0,0.0,0.0,0.0,0.0,1.812,1.9112,2.0189,2.0559,2.0241,2.1883,2.2311,0.0,0.0,0.0,0.0,0.0,0.0,0.0,0.0,0.0,0.0,0.0,0.0,0.0,0.0,0.0,0.0,0.0,0.0,0.0,0.0,0.0,0.0,0.0,0.0,0.0,0.0,0.0,0.0,0.0,0.0,0.0,0.0,0.0,0.0,0.0,0.0,0.0,0.0,0.0,0.0,0.0,0.0,0.0,0.0,0.0,0.0,0.0,0.0,0.0,0.0,0.0,0.0,0.0,0.0,0.0,0.0,0.0,0.0,0.0,0.0,0.0,0.0,0.0,0.0,0.0,0.0,0.0,0.0,0.0,0.0,0.0,0.0,0.0,0.0,0.0,0.0,0.0,0.0,0.0,0.0,0.0,0.0,0.0,0.0,0.0,0.0,0.0,0.0,0.0,0.0,0.0,0.0,0.0,0.0,0.0,0.0,0.0,0.0,0.0,0.0,0.0,0.0,0.0,0.0,0.0,0.0,0.0,1.6221,1.6826,1.8032,1.8884,1.9321,1.9379,2.1807,2.2077,1.9977,0.0,0.0,0.0,0.0,0.0,0.0,0.0,0.0,0.0,0.0,0.0,0.0,0.0,0.0,0.0,0.0,0.0,0.0,0.0,0.0,0.0,0.0,0.0,0.0,0.0,0.0,0.0,0.0,0.0,0.0,0.0,0.0,0.0,0.0,0.0,0.0,0.0,0.0,1.583,1.5771,0.0,0.0,0.0,0.0,0.0,0.0,0.0,0.0,2.0339,0.0,0.0,0.0,0.0,0.0,0.0,0.0,0.0,0.0,0.0,0.0,0.0,0.0,0.0,0.0,0.0,0.0,0.0,0.0,0.0,0.0,0.0,0.0,0.0,0.0,0.0,0.0,0.0,0.0,0.0,0.0,0.0,0.0,0.0,0.0,0.0,0.0,0.0,0.0,0.0,0.0,0.0,0.0,0.0,0.0,0.0,0.0,0.0,0.0,0.0,0.0,0.0,0.0,0.0,0.0,0.0,1.5226,1.5449,1.6053,1.7134,1.7581,1.8009,1.8414,2.0915,2.1273,1.9332,0.0,0.0,0.0,0.0,0.0,0.0,0.0,0.0,0.0,0.0,0.0,0.0,0.0,0.0,0.0,0.0,0.0,0.0,0.0,0.0,0.0,0.0,0.0,0.0,0.0,0.0,0.0,0.0,0.0,0.0,0.0,0.0,0.0,0.0,0.0,0.0,0.0,0.0,0.0,1.4028,1.4446,0.0,0.0,0.0,0.0,0.0,0.0,0.0,0.0,1.6413,0.0,0.0,0.0,0.0,0.0,0.0,0.0,0.0,0.0,0.0,0.0,0.0,0.0,0.0,0.0,0.0,0.0,0.0,0.0,0.0,0.0,0.0,0.0,0.0,0.0,0.0,0.0,0.0,0.0,0.0,0.0,0.0,0.0,0.0,0.0,0.0,0.0,0.0,0.0,0.0,0.0,0.0,0.0,0.0,0.0,0.0,0.0,0.0,0.0,0.0,0.0,0.0,0.0,0.0,0.0,1.4072,1.4314,1.494,1.5987,1.6343,1.6877,1.7664,2.0058,2.0619,0.0,0.0,0.0,0.0,0.0,0.0,0.0,0.0,0.0,0.0,0.0,0.0,0.0,0.0,0.0,0.0,0.0,0.0,0.0,0.0,0.0,0.0,0.0,0.0,0.0,0.0,0.0,0.0,0.0,0.0,0.0,0.0,0.0,0.0,0.0,0.0,0.0,0.0,0.0,0.0,1.1259,1.1223,1.1994,0.0,0.0,0.0,0.0,0.0,0.0,1.4873,1.2476,0.0,0.0,0.0,0.0,0.0,0.0,0.0,0.0,0.0,0.0,0.0,0.0,0.0,0.0,0.0,0.0,0.0,0.0,0.0,0.0,0.0,0.0,0.0,0.0,0.0,0.0,0.0,0.0,0.0,0.0,0.0,0.0,0.0,0.0,0.0,0.0,0.0,0.0,0.0,0.0,0.0,0.0,0.0,0.0,0.0,0.0,0.0,0.0,0.0,0.0,0.0,0.0,0.0,0.0,0.0,1.2833,1.2981,1.3571,1.4572,1.4965,1.5718,1.6939,1.9102,1.9896,0.0,0.0,0.0,0.0,0.0,0.0,0.0,0.0,0.0,0.0,0.0,0.0,0.0,0.0,0.0,0.0,0.0,0.0,0.0,0.0,0.0,0.0,0.0,0.0,0.0,0.0,0.0,0.0,0.0,0.0,0.0,0.0,0.0,0.0,0.0,0.0,0.0,0.0,0.0,0.0,0.0,0.6614,0.6556,0.6845,0.0,0.0,0.0,0.0,0.5597,0.6105,0.0,0.0,0.0,0.0,0.0,0.0,0.0,0.0,0.0,0.0,0.0,0.0,0.0,0.0,0.0,0.0,0.0,0.0,0.0,0.0,0.0,0.0,0.0,0.0,0.0,0.0,0.0,0.0,0.0,0.0,0.0,0.0,0.0,0.0,0.0,0.0,0.0,0.0,0.0,0.0,0.0,0.0,0.0,0.0,0.0,0.0,0.0,0.0,0.0,0.0,0.0,0.0,0.0,0.0,0.0,0.0,1.1309,1.1564,1.199,1.2709,1.3266,1.421,1.5599,1.7873,1.9045,0.0,0.0,0.0,0.0,0.0,0.0,0.0,0.0,0.0,0.0,0.0,0.0,0.0,0.0,0.0,0.0,0.0,0.0,0.0,0.0,0.0,0.0,0.0,0.0,0.0,0.0,0.0,0.0,0.0,0.0,0.0,0.0,0.0,0.0,0.0,0.0,0.0,0.0,0.0,0.0,0.0,-0.0465,-0.0393,-0.2373,-0.3531,0.0,0.0,-0.4207,-0.513,-0.8656,0.0,0.0,0.0,0.0,0.0,0.0,0.0,0.0,0.0,0.0,0.0,0.0,0.0,0.0,0.0,0.0,0.0,0.0,0.0,0.0,0.0,0.0,0.0,0.0,0.0,0.0,0.0,0.0,0.0,0.0,0.0,0.0,0.0,0.0,0.0,0.0,0.0,0.0,0.0,0.0,0.0,0.0,0.0,0.0,0.0,0.0,0.0,0.0,0.0,0.0,0.0,0.0,0.0,0.0,0.0,0.9065,0.9568,0.9859,1.0194,1.0619,1.1503,1.2483,1.3471,1.5529,1.7068,0.0,0.0,0.0,0.0,0.0,0.0,0.0,0.0,0.0,0.0,0.0,0.0,0.0,0.0,0.0,0.0,0.0,0.0,0.0,0.0,0.0,0.0,0.0,0.0,0.0,0.0,0.0,0.0,0.0,0.0,0.0,0.0,0.0,0.0,0.0,0.0,0.0,0.0,0.0,0.0,0.0,0.0,-0.8796,-1.0753,0.0,0.0,0.0,-1.1925,-1.6527,0.0,0.0,0.0,0.0,0.0,0.0,0.0,0.0,0.0,0.0,0.0,0.0,0.0,0.0,0.0,0.0,0.0,0.0,0.0,0.0,0.0,0.0,0.0,0.0,0.0,0.0,0.0,0.0,0.0,0.0,0.0,0.0,0.0,0.0,0.0,0.0,0.0,0.0,0.0,0.0,0.0,0.0,0.0,0.0,0.0,0.0,0.0,0.0,0.0,0.0,0.0,0.0,0.0,0.0,0.0,0.0,0.0,0.7824,0.8253,0.8589,0.8814,0.9966,1.1019,1.1969,1.3831,0.0,0.0,0.0,0.0,0.0,0.0,0.0,0.0,0.0,0.0,0.0,0.0,0.0,0.0,0.0,0.0,0.0,0.0,0.0,0.0,0.0,0.0,0.0,0.0,0.0,0.0,0.0,0.4842,0.0,0.0,0.0,0.0,0.0,0.0,0.0,0.0,0.0,0.0,0.0,0.0,0.0,0.0,-1.3793,-1.6559,-1.8822,-2.0758,0.0,0.0,-2.1437,-2.7693,-2.5833,-2.5191,0.0,0.0,0.0,0.0,0.0,0.0,0.0,0.0,0.0,0.0,0.0,0.0,0.0,0.0,0.0,0.0,0.0,0.0,0.0,0.0,0.0,0.0,0.0,0.0,0.0,0.0,0.0,0.0,0.0,0.0,0.0,0.0,0.0,0.0,0.0,0.0,0.0,0.0,0.0,0.0,0.0,0.0,0.0,0.0,0.0,0.0,0.0,0.0,0.0,0.0,0.0,0.0,0.0,0.0,0.6197,0.6363,0.6973,0.7446,0.7741,0.8758,1.0113,1.1879,1.3726,1.5771,0.0,0.0,0.0,0.0,0.0,0.0,0.0,0.0,0.0,0.0,0.0,0.0,0.0,0.0,0.0,0.0,0.0,0.0,0.0,0.0,0.0,0.0,0.0,0.0,0.0,0.0,0.0,0.0,0.0,0.0,0.0,0.0,0.0,0.0,0.0,0.0,0.0,0.0,0.0,0.0,0.0,-2.0719,-2.2651,-2.6661,-3.023,0.0,-3.5025,-3.7202,-3.8228,-3.9498,-3.9274,-3.5807,0.0,0.0,0.0,0.0,0.0,0.0,0.0,0.0,0.0,0.0,0.0,0.0,0.0,0.0,0.0,0.0,0.0,0.0,0.0,0.0,0.0,0.0,0.0,0.0,0.0,0.0,0.0,0.0,0.0,0.0,0.0,0.0,0.0,0.0,0.0,0.0,0.0,0.0,0.0,0.0,0.0,0.0,0.0,0.0,0.0,0.0,0.0,0.0,0.0,0.0,0.0,0.0,0.0,0.5186,0.5296,0.5763,0.6103,0.6228,0.7444,0.8454,0.9102,1.1099,1.3029,0.0,0.0,0.0,0.0,0.0,0.0,0.0,0.0,0.0,0.0,0.0,0.0,0.0,0.0,0.0,0.0,0.0,0.0,0.0,0.0,0.0,0.0,0.0,0.0,0.0,0.0,0.0,0.0,-0.4154,-0.5699,-0.7533,0.0,0.0,0.0,0.0,0.0,0.0,0.0,0.0,0.0,0.0,-2.5806,-2.8083,-3.0881,0.0,0.0,-3.891,-4.0619,-4.1604,-4.1805,-4.1104,-3.8937,-3.7804,0.0,0.0,0.0,0.0,0.0,0.0,0.0,0.0,0.0,0.0,0.0,0.0,0.0,0.0,0.0,0.0,0.0,0.0,0.0,0.0,0.0,0.0,0.0,0.0,0.0,0.0,0.0,0.0,0.0,0.0,0.0,0.0,0.0,0.0,0.0,0.0,0.0,0.0,0.0,0.0,0.0,0.0,0.0,0.0,0.0,0.0,0.0,0.0,0.0,0.0,0.0,0.0,0.405,0.4177,0.4402,0.4681,0.5067,0.5946,0.6641,0.7273,0.9013,1.0786,0.0,0.0,0.0,0.0,0.0,0.0,0.0,0.0,0.0,0.0,0.0,0.0,0.0,0.0,0.0,0.0,0.0,0.0,0.0,0.0,0.0,0.0,0.0,0.0,0.0,0.0,0.0,0.0,-0.8232,-1.0048,-1.2172,0.0,0.0,0.0,0.0,0.0,0.0,0.0,0.0,0.0,0.0,-2.9621,-3.1847,-3.3847,-3.6148,-3.9135,-4.0544,-4.1681,-4.2836,-4.2331,-4.1528,-4.0668,0.0,0.0,0.0,0.0,0.0,0.0,0.0,0.0,0.0,0.0,0.0,0.0,0.0,0.0,0.0,0.0,0.0,0.0,0.0,0.0,0.0,0.0,0.0,0.0,0.0,0.0,0.0,0.8142,0.0,0.0,0.7279,0.0,0.0,0.0,0.0,0.0,0.0,0.0,0.0,0.0,0.0,0.0,0.0,0.0,0.0,0.0,0.0,0.0,0.0,0.0,0.0,0.0,0.0,0.2741,0.3013,0.2929,0.3411,0.4535,0.4276,0.4992,0.6824,0.7911,0.9599,1.212,0.0,0.0,0.0,0.0,0.0,0.0,0.0,0.0,0.0,0.0,0.0,0.0,0.0,0.0,0.0,0.0,0.0,0.0,0.0,0.0,0.0,0.0,0.0,0.0,0.0,0.0,-1.0434,-1.2995,-1.5189,0.0,0.0,0.0,0.0,0.0,0.0,0.0,0.0,0.0,-2.7011,-2.967,-3.2041,-3.3675,-3.5568,-3.7554,-3.9986,-4.0701,-4.1356,-4.2447,-4.2311,-4.1803,0.0,0.0,0.0,0.0,0.0,0.0,0.0,0.0,0.0,0.0,0.0,0.0,0.0,0.0,0.0,0.0,0.0,0.0,0.0,0.0,0.0,0.0,0.0,0.0,0.0,0.0,0.0,0.5863,0.5621,0.0,0.0,0.0,0.0,0.0,0.0,0.0,0.0,0.0,0.0,0.0,0.1221,0.0877,0.0,0.0,0.0,0.0,0.0,0.0,0.0,0.0,0.0,0.0,0.0,0.0,0.241,0.246,0.2779,0.2992,0.3262,0.3848,0.4414,0.5001,0.6445,0.8743,1.1809,0.0,0.0,0.0,0.0,0.0,0.0,0.0,0.0,0.0,0.0,0.0,0.0,0.0,0.0,0.0,0.0,0.0,0.0,0.0,0.0,0.0,0.0,0.0,0.0,0.0,-1.2471,0.0,0.0,0.0,0.0,0.0,0.0,0.0,0.0,0.0,0.0,-2.6547,-2.8506,-3.0208,-3.2173,-3.371,-3.4235,-3.5049,-3.6561,0.0,0.0,0.0,0.0,0.0,0.0,0.0,0.0,0.0,0.0,0.0,0.0,0.0,-4.2312,-4.1419,-4.0984,-4.1426,-4.1713,-4.119,0.0,0.0,0.0,0.0,0.0,0.0,0.0,0.0,0.0,0.0,0.0,0.0,0.0,0.0,0.3354,0.3203,0.2644,0.0,0.0,0.0,0.0,0.0,0.0,0.0,0.0,-0.0876,-0.0978,-0.0841,-0.1002,-0.1074,-0.1132,-0.1324,-0.1122,0.0,0.0,0.0,0.0,0.0,0.0,0.0,0.0,0.1645,0.1681,0.2029,0.221,0.232,0.2946,0.3449,0.3816,0.5731,0.7925,1.0557,1.1231,1.2528,0.0,0.0,0.0,0.0,0.0,0.0,0.0,0.0,0.0,0.0,0.0,0.0,0.0,0.0,0.0,0.0,0.0,0.0,0.0,0.0,0.0,0.0,0.0,-1.6045,0.0,0.0,0.0,0.0,0.0,0.0,0.0,0.0,0.0,-2.7405,-2.9403,-3.1158,-3.1743,-3.3779,-3.5124,-3.4961,0.0,0.0,0.0,0.0,0.0,0.0,0.0,-4.2607,-4.2683,-4.2939,-4.3578,-4.4889,-4.5056,-4.4866,-4.4318,0.0,0.0,-4.289,-4.3188,-4.3442,-4.2944,-4.354,-4.4162,-4.4153,-4.4153,-4.4153,0.0,0.0,0.0,0.0,0.0313,0.0,0.0,0.0,0.0704,0.0463,0.0,-0.06,0.0,0.0,0.0,0.0,-0.1344,-0.2126,0.0,0.0,-0.3554,-0.3754,-0.3673,-0.3444,-0.34,-0.3388,-0.3387,-0.334,-0.3245,-0.1546,0.0,0.0,0.0,0.0,0.0,0.0,0.0432,0.0677,0.0679,0.1063,0.1732,0.1479,0.2022,0.348,0.5536,0.7223,0.8372,0.9063,1.074,1.3666,1.3053,0.0,0.0,0.0,0.0,0.0,0.0,0.0,0.0,0.0,0.0,0.0,0.0,0.0,0.0,0.0,0.0,0.0,0.0,0.0,0.0,-1.7521,0.0,0.0,0.0,0.0,0.0,0.0,0.0,0.0,0.0,-2.9326,-2.8698,-3.1387,-3.3014,-3.1981,0.0,0.0,0.0,0.0,-3.8783,-4.0219,-4.0463,-4.0673,-4.1219,-4.2377,-4.3273,-4.3491,0.0,0.0,-4.5962,-4.6021,-4.59,-4.5947,-4.5842,-4.5526,-4.3904,-4.3712,-4.3779,-4.382,-4.4496,-4.5001,-4.5034,-4.4953,-4.4933,-0.7279,0.0,0.0,0.0,0.0,-0.4589,-0.4087,-0.3331,-0.4259,-0.3794,-0.2322,-0.3824,0.0,0.0,0.0,0.0,0.0,0.0,-0.3593,-0.3776,-0.3934,-0.393,-0.377,-0.3726,-0.3599,-0.3557,-0.353,-0.3426,-0.3323,-0.2902,-0.2517,-0.2291,0.0,0.0,0.0,0.0,-0.0488,-0.012,0.0183,0.049,0.1028,0.1451,0.2217,0.3482,0.4815,0.6067,0.7167,0.7703,0.8728,1.0335,0.9914,0.0,0.0,0.0,0.0,0.0,0.0,0.0,0.0,0.0,0.0,0.0,0.0,0.0,0.0,0.0,0.0,0.0,0.0,0.0,-1.9713,-2.0492,-2.1552,0.0,0.0,0.0,0.0,0.0,0.0,0.0,0.0,0.0,-3.1855,-3.3006,-3.4214,0.0,0.0,-3.6104,-3.5836,-3.6084,-3.6742,-3.8013,-3.825,0.0,-3.974,-4.12,-4.2313,-4.2563,-4.3866,-4.518,-4.603,-4.5636,-4.5226,-4.5195,-4.4718,-4.4333,-4.4581,-4.5043,-4.5423,-4.5558,-4.5733,-4.5854,-4.5877,-4.546,-4.5012,-1.0816,-0.9899,-0.8223,-0.7496,-0.751,-0.7507,-0.6946,-0.611,-0.7075,-0.665,-0.5419,-0.6812,-0.6445,-0.4875,-0.5719,0.0,0.0,0.0,-0.5663,-0.5793,-0.5622,-0.5597,-0.5494,-0.5439,-0.5195,-0.4787,-0.4975,-0.4716,-0.4191,-0.4327,-0.4186,-0.3901,0.0,-0.2487,-0.2419,-0.1697,-0.116,-0.084,-0.0238,0.0178,0.0413,0.1313,0.2207,0.3099,0.4196,0.5342,0.6519,0.6732,0.7325,0.8509,0.7671,0.71,0.0,0.0,0.0,0.0,0.0,0.0,0.0,0.0,0.0,0.0,0.0,-0.9151,-1.0616,0.0,0.0,0.0,-1.7599,-2.0104,-2.2046,-2.28,0.0,0.0,0.0,0.0,0.0,0.0,0.0,-3.0935,-3.2305,-3.3241,-3.3469,-3.3632,-3.4186,-3.5333,-3.6037,-3.6312,-3.6014,0.0,-3.6632,-3.7458,-3.7662,-3.7977,-3.8945,-4.052,-4.1885,-4.2643,-4.3654,-4.4551,-4.5017,-4.4718,-4.4396,-4.4328,-4.3944,-4.3761,-4.4296,-4.482,-4.5329,-4.5687,-4.5748,-4.5636,-4.5347,-4.4836,-4.4484,-1.3057,-1.359,-1.1204,-0.971,-0.8902,-0.8902,-0.8418,-0.7534,-0.8424,-0.8599,-0.8272,-0.9551,-0.9563,-0.8589,-0.824,0.0,-0.8443,-0.8175,-0.8184,-0.85,-0.8105,-0.7946,-0.8029,-0.7856,-0.7368,-0.6567,-0.6867,-0.6511,-0.5535,-0.5521,-0.5593,-0.5528,-0.3847,-0.3074,-0.3205,-0.2155,-0.1601,-0.1539,-0.0637,-0.0114,0.0,0.1182,0.2048,0.2564,0.3612,0.4844,0.614,0.5967,0.6424,0.756,0.6067,0.5287,0.5408,0.0,0.0,0.0,0.0,0.0,0.0,0.0,0.0,0.0,0.0,0.0,0.0,0.0,0.0,-1.7357,-2.0023,0.0,-2.3162,-2.4723,0.0,0.0,0.0,-2.9611,-3.1261,-3.1085,-3.1449,-3.2854,0.0,0.0,-3.3777,-3.3502,-3.3254,-3.369,-3.5492,-3.6638,-3.6268,-3.699,-3.7756,-3.7808,-3.7986,-3.8127,-3.8321,-3.9772,-4.1335,-4.2622,-4.328,-4.3186,-4.3319,-4.3144,-4.3182,-4.3188,-4.3218,-4.3164,-4.3242,-4.3203,-4.3572,-4.4315,-4.4722,-4.4628,-4.3844,-4.3548,-4.3372,-1.3299,-1.3216,-1.2714,-1.2357,-1.2292,-1.2575,-1.1866,-1.0681,-1.158,-1.1009,-0.9579,-1.1101,-1.1334,-1.0656,-0.9418,-0.9072,-0.9448,-0.862,-0.8254,-0.8282,-0.804,-0.7799,-0.7633,-0.7168,-0.6634,-0.6153,-0.5791,-0.541,-0.5084,-0.5199,-0.5321,-0.5199,-0.4185,-0.374,-0.4008,-0.3105,-0.24,-0.1971,-0.1563,-0.0911,0.0,0.1134,0.1823,0.1991,0.3065,0.4009,0.4752,0.5071,0.5312,0.5601,0.468,0.3655,0.2631,0.1058,0.0,0.0,0.0,0.0,0.0,0.0,0.0,0.0,0.0,-1.5872,-1.7216,0.0,-1.9376,0.0,-2.1915,-2.3891,-2.6133,-2.6943,0.0,0.0,-2.9968,-3.0681,-3.1582,-3.1629,-3.1772,-3.2222,-3.2109,-3.2125,-3.2465,-3.2602,-3.2793,-3.3167,-3.469,-3.5853,-3.6131,-3.6414,-3.6454,-3.6145,-3.6943,-3.7388,-3.6662,-3.7583,-3.9018,-4.0048,-3.9953,-4.0092,-4.1393,-4.06,-3.9971,-4.0521,-4.0187,-4.0066,-4.065,-4.0656,-4.0723,-4.1104,-4.255,-4.3688,-4.2871,-4.2181,-4.1537,-1.2664,-1.2642,-1.2569,-1.2558,-1.2756,-1.3047,-1.2687,-1.1888,-1.2418,-1.1978,-1.1042,-1.192,-1.2023,-1.1456,-1.0462,-1.0052,-1.0183,-0.9394,-0.8964,-0.879,-0.856,-0.827,-0.7989,-0.7471,-0.6858,-0.6263,-0.5736,-0.5261,-0.483,-0.5005,-0.5097,-0.5154,-0.4185,-0.3811,-0.4057,-0.319,-0.2633,-0.2416,-0.201,-0.1242,-0.0058,0.0642,0.1245,0.1991,0.2627,0.3258,0.3933,0.4116,0.4172,0.3983,0.3043,0.2015,0.0893,-0.0818,-0.2695,0.0,0.0,0.0,0.0,0.0,0.0,0.0,0.0,0.0,0.0,0.0,-2.1802,-2.3311,-2.4188,-2.56,-2.788,-2.8758,-2.9696,-3.0907,-3.1381,-3.1876,-3.2593,-3.2176,-3.2062,-3.2449,-3.1931,-3.1639,-3.1947,-3.1873,-3.2048,-3.2702,-3.3539,-3.4348,-3.4933,-3.5179,-3.5105,-3.4633,-3.5545,-3.627,-3.586,-3.6686,-3.7592,-3.8323,-3.8324,-3.8435,-3.9117,-3.8878,-3.856,-3.8584,-3.8545,-3.8638,-3.9048,-3.9117,-3.9085,-3.9291,-4.0242,-4.1003,-4.0776,-4.0327,-3.9797,-1.1744,-1.1987,-1.1738,-1.1643,-1.1666,-1.2018,-1.2093,-1.2037,-1.1969,-1.1985,-1.2236,-1.2176,-1.189,-1.1419,-1.1166,-1.0918,-1.0641,-1.0095,-0.973,-0.9478,-0.9258,-0.8908,-0.8516,-0.7971,-0.7259,-0.6426,-0.6019,-0.5432,-0.4667,-0.4796,-0.492,-0.4977,-0.3898,-0.3476,-0.3525,-0.2688,-0.2355,-0.2576,-0.1931,-0.1064,0.0,0.0115,0.076,0.199,0.2162,0.2559,0.329,0.3287,0.3047,0.2631,0.1568,0.0574,-0.0257,-0.2369,-0.4345,0.0,-0.8655,0.0,0.0,0.0,0.0,0.0,0.0,0.0,0.0,-2.2331,-2.4024,-2.6254,-2.6399,-2.6983,-2.8586,-2.9748,-3.0673,-3.1281,-3.1872,-3.2549,-3.3109,-3.2303,-3.1903,-3.253,-3.1339,-3.0695,-3.1164,-3.0776,-3.0671,-3.145,-3.1593,-3.1869,-3.2689,-3.3359,-3.3671,-3.3247,-3.3665,-3.4211,-3.5122,-3.5758,-3.6111,-3.6678,-3.6724,-3.6899,-3.6538,-3.7072,-3.7358,-3.6812,-3.7052,-3.7546,-3.7638,-3.7583,-3.7556,-3.7483,-3.7561,-3.7844,-3.8341,-3.8339,-3.814,-1.1413,-1.1392,-1.1234,-1.1136,-1.1126,-1.0985,-1.1372,-1.2015,-1.1603,-1.1358,-1.1195,-1.1136,-1.1022,-1.0876,-1.0816,-1.0647,-1.0387,-1.0079,-0.973,-0.9472,-0.9196,-0.8634,-0.7738,-0.7151,-0.6407,-0.5559,-0.5035,-0.4699,-0.4563,-0.4591,-0.432,-0.3925,-0.3212,-0.2749,-0.2516,0.0,0.0,0.0,-0.0899,-0.0393,0.0168,0.0621,0.1019,0.1302,0.1877,0.0,0.2452,0.2792,0.2537,0.1656,0.1132,0.0,0.0,0.0,0.0,0.0,0.0,0.0,0.0,0.0,0.0,0.0,-2.1295,-2.2454,-2.3502,-2.5472,-2.6671,-2.6621,-2.7229,-2.7698,-2.7773,-2.8448,-2.9219,-2.9885,-3.022,-3.0477,-3.0799,-3.0185,-2.9831,-3.0008,-2.8745,-2.7953,-2.8249,-2.7671,-2.7624,-2.8446,-2.8164,-2.8148,-2.8665,-3.0849,-3.1935,-3.1096,-3.1045,-3.1391,-3.2481,-3.2465,-3.2558,-3.2545,-3.2864,-3.3207,-3.3557,-3.378,-3.4001,-3.3949,-3.4075,-3.4263,-3.426,-3.4126,-3.4323,-3.4187,-3.4184,-3.4748,-3.681,-3.6735,-3.6054,-1.0826,-1.081,-1.0562,-1.053,0.0,-1.0379,-1.0572,-1.1144,-1.0889,-1.0661,-1.0421,-1.0483,-1.0347,-1.0043,-1.0049,-0.9977,-0.9795,-0.9262,-0.8941,-0.8707,-0.8199,-0.7533,-0.6865,-0.6253,-0.575,-0.5281,-0.4791,-0.4463,-0.4463,-0.4463,-0.4349,-0.4018,-0.3121,-0.2612,-0.2408,-0.1595,-0.114,-0.1118,-0.0839,-0.0392,0.028,0.0617,0.0954,0.1346,0.1682,0.0,0.0,0.0,0.0,0.0,0.0,0.0,0.0,-0.3769,0.0,-0.7668,-0.9642,-1.1593,-1.3689,-1.6688,-1.8802,-1.9565,-2.1909,-2.3758,-2.4714,-2.6057,-2.689,-2.7199,-2.737,-2.757,-2.795,-2.8392,-2.8943,-2.9529,-2.9456,-2.9331,-2.9088,-2.8522,-2.8003,-2.7716,-2.7087,-2.6688,-2.675,-2.6639,-2.6554,-2.6898,-2.6769,-2.6541,-2.6635,-2.8461,-2.9805,-2.9546,-2.9679,-3.0024,-3.0578,-3.0814,-3.0831,-3.1132,-3.1417,-3.1599,-3.1648,-3.2168,-3.2513,-3.2339,-3.2555,-3.2875,-3.2921,-3.2933,-3.294,-3.3014,-3.3023,-3.3338,-3.4728,-3.468,-3.4361,-0.9829,-0.9813,-0.9616,-0.9627,-0.9911,-0.9559,-0.9544,-0.9734,-1.0001,0.0,0.0,-0.9882,-0.965,-0.9192,-0.912,-0.9051,-0.882,-0.8215,-0.7834,-0.7613,-0.7047,-0.6495,-0.605,-0.555,-0.5281,-0.5117,-0.4736,-0.4463,-0.4463,-0.4405,-0.4294,-0.4128,-0.307,-0.2456,-0.2291,-0.14,-0.0896,-0.0839,-0.0839,-0.0448,0.0449,0.0561,0.0954,0.1572,0.1628,0.1685,0.1798,0.1668,0.111,0.0118,-0.0308,-0.1463,-0.3339,-0.4262,-0.5767,-0.8006,-0.9781,-1.1502,-1.3222,-1.6346,-1.8485,-1.9097,-2.1838,-2.4077,-2.523,-2.5794,-2.647,-2.7537,-2.7116,-2.7145,-2.7953,-2.8233,-2.8492,-2.8753,-2.8547,-2.8147,-2.7444,-2.7007,-2.6444,-2.5893,-2.5696,-2.5728,-2.5713,-2.5636,-2.5785,-2.5874,-2.5678,-2.5572,-2.5244,-2.6347,-2.7607,-2.7923,-2.8283,-2.8869,-2.9072,-2.9408,-2.9946,-3.0089,-3.041,-3.0538,-3.0446,-3.1034,-3.1402,-3.0966,-3.1492,-3.1917,-3.2126,-3.2065,-3.221,-3.2357,-3.2384,-3.2365,-3.2378,-3.2508,-3.2648,-0.7889,-0.7885,-0.7859,-0.8147,-0.8541,-0.7921,-0.7522,-0.7408,-0.8771,-0.9167,-0.8931,-0.8986,-0.8679,-0.8208,-0.8203,-0.7822,-0.7066,-0.7104,-0.6943,-0.6587,-0.6625,-0.6196,-0.5449,-0.5332,-0.5062,-0.4629,-0.4519,-0.4463,-0.446,-0.3959,-0.3461,-0.2959,-0.2237,-0.1679,-0.1177,-0.101,-0.0561,0.0168,0.0056,0.028,0.0841,0.1234,0.1459,0.1628,0.1685,0.1797,0.1797,0.1636,0.1086,0.0059,-0.0355,-0.14,-0.3262,-0.4057,-0.5521,-0.7782,-0.9693,-1.1582,-1.3501,-1.6267,-1.8569,-2.0204,-2.1284,-2.2719,-2.4885,-2.6075,-2.6775,-2.6946,-2.6807,-2.661,-2.6341,-2.6325,-2.625,-2.582,-2.6169,-2.6036,-2.5049,-2.5236,-2.5243,-2.4722,-2.4072,-2.3836,-2.3996,-2.3679,-2.3583,-2.3836,-2.3807,-2.3406,-2.3496,-2.4284,-2.5259,-2.5724,-2.6098,-2.6441,-2.689,-2.7131,-2.756,-2.7766,-2.8123,-2.8522,-2.8846,-2.9241,-2.9553,-2.9589,-2.9963,-3.0182,-3.0272,-3.021,-3.0376,-3.0478,-3.0513,-3.0475,-3.0513,-3.0552,-3.0772,-0.7335,-0.7405,-0.7401,-0.7516,-0.7627,-0.7246,-0.6839,-0.6664,-0.73,-0.7527,-0.7512,-0.7393,-0.7274,-0.7167,-0.7063,-0.684,-0.6572,-0.6186,-0.5933,-0.5793,-0.5455,-0.5074,-0.4639,-0.4625,-0.4515,-0.4356,-0.4353,-0.4242,-0.4018,-0.3738,-0.3292,-0.2681,-0.2069,-0.1512,-0.0954,-0.0841,-0.0505,0.0056,0.0224,0.0673,0.1347,0.1628,0.1685,0.1741,0.1685,0.1685,0.1684,0.1313,0.0695,-0.0176,-0.0716,-0.1829,-0.3626,-0.4134,-0.5498,-0.7933,-0.955,-1.1225,-1.3108,-1.5989,-1.8444,-2.0204,-2.0689,-2.1473,-2.2859,-2.419,-2.5163,-2.5741,-2.5809,-2.5711,-2.543,-2.5402,-2.5149,-2.4545,-2.4793,-2.462,-2.3858,-2.3858,-2.3815,-2.33,-2.274,-2.2448,-2.2544,-2.2197,-2.1969,-2.2253,-2.2142,-2.2095,-2.2067,-2.2532,-2.3259,-2.4148,-2.4823,-2.5243,-2.5449,-2.573,-2.6021,-2.6421,-2.6689,-2.7151,-2.7699,-2.8058,-2.8388,-2.8782,-2.8983,-2.9135,-2.9302,-2.9361,-2.942,-2.955,-2.9568,-2.9568,-2.9568,-2.9568,-2.9861,-0.6554,-0.6559,-0.6559,-0.6462,-0.6365,-0.6344,-0.6194,-0.5858,-0.5724,-0.5747,-0.5963,-0.6105,-0.6168,-0.612,-0.6002,-0.5947,-0.5872,-0.5362,-0.5076,-0.4926,-0.4432,-0.407,-0.3811,-0.3796,-0.3799,-0.3741,-0.3741,-0.3572,-0.3292,-0.3181,-0.279,-0.2179,-0.1733,-0.1176,-0.0617,-0.0505,-0.0224,0.028,0.0616,0.101,0.1628,0.1741,0.1797,0.1797,0.1685,0.1572,0.1462,0.0978,0.0349,-0.0407,-0.1012,-0.2113,-0.3821,-0.4128,-0.5336,-0.77,-0.9168,-1.0854,-1.3024,-1.5428,-1.7621,-1.9252,-1.9644,-2.0032,-2.068,-2.1757,-2.304,-2.4196,-2.4415,-2.4401,-2.4387,-2.4546,-2.4295,-2.3636,-2.378,-2.3506,-2.2748,-2.2657,-2.2505,-2.1917,-2.1602,-2.1423,-2.141,-2.1299,-2.1272,-2.1321,-2.1342,-2.1376,-2.1272,-2.1299,-2.1846,-2.2489,-2.346,-2.4081,-2.422,-2.4443,-2.4823,-2.5293,-2.5582,-2.5994,-2.6588,-2.6992,-2.736,-2.7784,-2.8103,-2.8322,-2.8573,-2.8856,-2.8946,-2.9058,-2.9101,-2.92,-2.9182,-2.9182,-2.9343,-0.4556,-0.4387,-0.4522,-0.4313,-0.4338,-0.476,-0.4697,-0.4262,-0.4056,-0.4152,-0.459,-0.5553,-0.569,-0.5329,-0.5269,-0.4941,-0.4443,-0.435,-0.4264,-0.4145,-0.4171,-0.3859,-0.3198,-0.3186,-0.2903,-0.251,-0.2454,-0.2454,-0.2343,-0.1843,-0.123,-0.0672,-0.0561,-0.028,0.0168,0.028,0.0784,0.1736,0.1847,0.1624,0.1234,0.1572,0.1797,0.1797,0.1797,0.1572,0.1234,0.0956,0.0394,-0.0563,-0.0848,-0.1832,-0.3518,-0.3829,-0.4824,-0.6902,-0.8263,-1.04,-1.3675,-1.4589,-1.5517,-1.685,-1.7634,-1.8187,-1.8708,-1.9478,-2.0743,-2.2166,-2.267,-2.2804,-2.275,-2.3163,-2.3011,-2.2072,-2.2704,-2.2753,-2.1356,-2.1299,-2.1442,-2.0825,-2.0795,-2.0908,-2.0944,-2.093,-2.1077,-2.1002,-2.0984,-2.086,-2.0584,-2.0775,-2.0775,-2.0581,-2.1308,-2.2352,-2.2715,-2.3097,-2.3368,-2.3902,-2.4238,-2.4634,-2.5142,-2.555,-2.5841,-2.6453,-2.6985,-2.7362,-2.7674,-2.8147,-2.8504,-2.8355,-2.8499,-2.8808,-2.8827,-2.8808,-2.8979,-0.4005,-0.3985,-0.3982,-0.392,-0.3891,-0.4108,-0.409,-0.3872,-0.3668,-0.366,-0.3893,-0.4238,-0.4464,-0.4674,-0.4598,-0.4371,-0.4115,-0.3648,-0.3411,-0.3299,-0.2977,-0.263,-0.2357,-0.2348,-0.2237,-0.2124,-0.2068,-0.1955,-0.162,-0.1063,-0.0616,-0.0449,-0.0393,-0.028,-0.0056,0.0393,0.0896,0.1454,0.1903,0.2073,0.2074,0.2242,0.2355,0.23,0.2355,0.2132,0.1737,0.1231,0.0616,-0.0056,-0.0729,-0.1802,-0.319,-0.3475,-0.4659,-0.6967,-0.8907,-1.0922,-1.3101,-1.3672,-1.4258,-1.5246,-1.6115,-1.6754,-1.6981,-1.7551,-1.8242,-1.9085,-2.0769,-2.1878,-2.1878,-2.2101,-2.1914,-2.1222,-2.1417,-2.1378,-2.0764,-2.0806,-2.0845,-2.0586,-2.0067,-1.9736,-1.9748,-1.949,-1.9334,-1.9426,-1.9467,-1.9428,-1.919,-1.9344,-1.9239,-1.8967,-1.9349,-2.0016,-2.0695,-2.096,-2.1395,-2.2059,-2.2376,-2.2717,-2.369,-2.4269,-2.4712,-2.519,-2.5719,-2.6151,-2.632,-2.6601,-2.6937,-2.7143,-2.7613,-2.7954,-2.8362,-2.8291,-2.842,-0.311,-0.3111,-0.3297,-0.3303,-0.3088,-0.3491,-0.3422,-0.3133,-0.3056,-0.3042,-0.3041,-0.2835,-0.3076,-0.3588,-0.3843,-0.3924,-0.3722,-0.321,-0.2867,-0.2595,-0.2116,-0.1733,-0.157,-0.1567,-0.1511,-0.1456,-0.1399,-0.1231,-0.0951,-0.056,-0.028,-0.028,-0.0112,0.0056,0.028,0.0896,0.1399,0.1789,0.235,0.2687,0.2914,0.297,0.2858,0.2747,0.2691,0.2521,0.2128,0.1454,0.0839,0.0336,-0.0505,-0.1512,-0.2571,-0.3014,-0.4435,-0.6865,-0.8727,-1.0411,-1.1784,-1.2379,-1.2941,-1.3547,-1.4671,-1.5369,-1.5516,-1.6133,-1.661,-1.6899,-1.8795,-2.0126,-2.0285,-2.0408,-2.0257,-1.9734,-1.9784,-1.9862,-1.9658,-1.9645,-1.9619,-1.9594,-1.8903,-1.8531,-1.8596,-1.8178,-1.7918,-1.7961,-1.7961,-1.7918,-1.7875,-1.7952,-1.792,-1.7688,-1.7532,-1.7886,-1.8887,-1.9288,-1.9623,-2.0215,-2.0695,-2.1261,-2.2209,-2.279,-2.3357,-2.3648,-2.4222,-2.4623,-2.4772,-2.4952,-2.5579,-2.6081,-2.6538,-2.6916,-2.7339,-2.7391,-2.7601,-0.1188,-0.13,-0.1906,-0.1858,-0.1344,-0.2621,-0.2484,-0.1606,-0.2012,-0.2085,-0.1726,-0.1616,-0.1561,-0.1872,-0.3124,-0.3535,-0.3089,-0.3013,-0.2668,-0.2006,-0.194,-0.1561,-0.0955,-0.0953,-0.0673,-0.028,-0.0224,-0.0224,-0.0112,0.0,0.0,0.0,0.0561,0.112,0.1623,0.2179,0.2852,0.319,0.336,0.3527,0.3527,0.353,0.3249,0.2802,0.2691,0.2521,0.2071,0.1734,0.1174,0.0223,-0.0112,-0.084,-0.1958,-0.2683,-0.4177,-0.6351,-0.7194,-0.8261,-0.9914,-1.0632,-1.1127,-1.1799,-1.3146,-1.4073,-1.411,-1.5236,-1.5997,-1.6404,-1.6599,-1.6968,-1.7202,-1.7924,-1.804,-1.7665,-1.7909,-1.7986,-1.7512,-1.7743,-1.7424,-1.7423,-1.739,-1.7258,-1.7522,-1.7446,-1.7102,-1.7102,-1.7269,-1.728,-1.7246,-1.7311,-1.7076,-1.6525,-1.6126,-1.6069,-1.765,-1.7687,-1.8065,-1.8694,-1.9052,-1.9788,-2.0455,-2.1059,-2.1608,-2.2112,-2.2468,-2.2812,-2.3071,-2.3686,-2.4591,-2.5159,-2.5494,-2.5844,-2.6404,-2.6522,-2.6687,-0.1064,-0.1106,-0.137,-0.1289,-0.1143,-0.168,-0.1612,-0.1205,-0.1303,-0.1308,-0.1266,-0.1107,-0.1111,-0.1341,-0.1954,-0.2251,-0.2117,-0.1703,-0.1407,-0.106,-0.0647,-0.0347,-0.0112,-0.0056,0.0,0.0112,0.0112,0.0056,0.0056,0.0393,0.0561,0.0673,0.1288,0.1679,0.1902,0.246,0.2907,0.3077,0.3416,0.3638,0.3691,0.3638,0.3524,0.3411,0.3304,0.3079,0.2685,0.2012,0.1286,0.067,-0.0112,-0.1119,-0.2402,-0.3782,-0.4941,-0.5873,-0.6867,-0.7732,-0.8388,-0.9349,-0.9958,-1.0241,-1.1339,-1.2219,-1.2461,-1.3019,-1.3462,-1.3678,-1.374,-1.3847,-1.4401,-1.5914,-1.7236,-1.7135,-1.7266,-1.7278,-1.7245,-1.7202,-1.6982,-1.6371,-1.5759,-1.5193,-1.5084,-1.4984,-1.5226,-1.5419,-1.5535,-1.5651,-1.5786,-1.5788,-1.5661,-1.5162,-1.46,-1.4325,-1.4582,-1.5121,-1.556,-1.6364,-1.7011,-1.7684,-1.8348,-1.9288,-1.994,-2.0332,-2.0704,-2.0946,-2.1194,-2.1518,-2.2616,-2.3639,-2.3989,-2.4617,-2.5592,-2.5424,-2.5675,-0.014,-0.0205,-0.0477,-0.0406,-0.0336,-0.0806,-0.0739,-0.0402,-0.0461,-0.046,-0.033,-0.026,-0.0259,-0.039,-0.0571,-0.0751,-0.0873,-0.0673,-0.0477,-0.0232,0.0174,0.0401,0.0394,0.0393,0.0336,0.028,0.028,0.0336,0.0448,0.0785,0.1064,0.1344,0.1958,0.2237,0.2348,0.2905,0.3239,0.3239,0.3524,0.3747,0.3855,0.3802,0.3802,0.3855,0.3744,0.3524,0.3246,0.2514,0.1789,0.1119,0.0336,-0.0895,-0.2565,-0.3837,-0.4827,-0.5433,-0.6303,-0.7058,-0.7498,-0.829,-0.8883,-0.9106,-1.0067,-1.0802,-1.1019,-1.1352,-1.1704,-1.188,-1.1936,-1.1994,-1.2455,-1.409,-1.5372,-1.5535,-1.5538,-1.5612,-1.5578,-1.5593,-1.5285,-1.4735,-1.4098,-1.3496,-1.3099,-1.3252,-1.3544,-1.382,-1.3974,-1.4196,-1.4433,-1.4392,-1.4255,-1.3862,-1.3077,-1.2479,-1.237,-1.2529,-1.3401,-1.4223,-1.5243,-1.5842,-1.6458,-1.7474,-1.8154,-1.8526,-1.8858,-1.9077,-1.9323,-1.9537,-2.0401,-2.1593,-2.2268,-2.2813,-2.3565,-2.4213,-2.4358,0.1647,0.1467,0.0909,0.0893,0.1144,0.0,0.0067,0.0937,0.0534,0.0591,0.0969,0.1157,0.1015,0.1053,0.0725,0.077,0.0593,-0.0059,-0.0174,0.0338,0.0394,0.045,0.0449,0.0449,0.0449,0.0393,0.0449,0.0728,0.1174,0.1288,0.1623,0.2178,0.2681,0.2963,0.3077,0.3633,0.391,0.391,0.3968,0.3965,0.4021,0.3965,0.3968,0.3965,0.3855,0.3744,0.3585,0.3188,0.2404,0.1621,0.1118,-0.0056,-0.2065,-0.2732,-0.3453,-0.4889,-0.5433,-0.6086,-0.7069,-0.7391,-0.7818,-0.8275,-0.9302,-0.9835,-0.9991,-1.072,-1.1272,-1.1343,-1.1415,-1.1463,-1.1455,-1.1873,-1.2365,-1.2539,-1.2854,-1.2747,-1.2654,-1.2444,-1.2427,-1.2584,-1.2474,-1.2474,-1.2372,-1.2187,-1.2175,-1.239,-1.2705,-1.3089,-1.3245,-1.3109,-1.2999,-1.2547,-1.1679,-1.0882,-1.0344,-1.009,-1.1247,-1.234,-1.3451,-1.4301,-1.4785,-1.5603,-1.6111,-1.6504,-1.6735,-1.6942,-1.7134,-1.7471,-1.8306,-1.9369,-2.0102,-2.0973,-2.1832,-2.2449,-2.2745,0.1649,0.1635,0.1431,0.1356,0.1542,0.0987,0.1044,0.1368,0.1153,0.12,0.1317,0.1377,0.137,0.129,0.1196,0.1179,0.1177,0.0691,0.0565,0.0731,0.0729,0.0785,0.0785,0.0729,0.0673,0.0673,0.0896,0.1119,0.1454,0.2069,0.2627,0.2905,0.3466,0.3747,0.3744,0.3968,0.4079,0.4021,0.4021,0.4021,0.4135,0.4076,0.4076,0.4135,0.4021,0.391,0.3802,0.2796,0.2069,0.1623,0.0728,-0.0392,-0.1564,-0.2565,-0.3342,-0.3895,-0.4831,-0.5441,-0.5873,-0.6416,-0.6789,-0.7128,-0.7842,-0.8348,-0.8582,-0.9153,-0.9603,-0.982,-0.9917,-0.9917,-0.9939,-0.9981,-1.059,-1.1955,-1.2108,-1.1965,-1.1804,-1.1579,-1.1418,-1.1456,-1.1122,-1.0794,-1.0572,-1.0509,-1.0686,-1.074,-1.09,-1.1141,-1.131,-1.1445,-1.1123,-1.0811,-0.9973,-0.9452,-0.914,-0.8825,-0.924,-1.0355,-1.1442,-1.2555,-1.3144,-1.3684,-1.4176,-1.4437,-1.4641,-1.4795,-1.4993,-1.5496,-1.6279,-1.7134,-1.7999,-1.9009,-2.0156,-2.0673,-2.0965,0.1816,0.1816,0.1816,0.1816,0.1813,0.1714,0.1626,0.1609,0.1582,0.155,0.1464,0.1518,0.1508,0.1429,0.1344,0.1448,0.1616,0.1244,0.1353,0.1646,0.1349,0.1345,0.1512,0.1567,0.1512,0.1511,0.1677,0.1955,0.2176,0.285,0.3355,0.3685,0.4024,0.419,0.4187,0.4245,0.4245,0.4187,0.4187,0.4242,0.4301,0.4245,0.4245,0.4245,0.4135,0.4079,0.3968,0.2685,0.1903,0.1567,0.056,-0.0448,-0.1229,-0.2065,-0.2732,-0.3289,-0.3956,-0.4673,-0.5167,-0.5651,-0.6086,-0.6362,-0.6794,-0.7171,-0.7389,-0.7668,-0.7925,-0.8099,-0.8239,-0.8349,-0.8355,-0.841,-0.898,-0.995,-1.0275,-1.0446,-1.0312,-0.9915,-0.976,-0.9692,-0.9531,-0.9275,-0.918,-0.9205,-0.9406,-0.9402,-0.9556,-0.9751,-0.9994,-1.005,-0.9791,-0.9403,-0.8738,-0.8386,-0.8098,-0.7771,-0.7396,-0.8327,-0.9411,-1.0551,-1.1424,-1.202,-1.253,-1.2598,-1.2751,-1.2702,-1.2852,-1.3288,-1.3924,-1.4882,-1.5992,-1.7206,-1.8346,-1.8827,-1.9083,0.2288,0.2288,0.2287,0.2354,0.2353,0.2206,0.2171,0.2065,0.2049,0.1986,0.1847,0.2022,0.1928,0.1761,0.1763,0.1935,0.2143,0.1864,0.2236,0.284,0.2583,0.2327,0.2614,0.2601,0.2537,0.2531,0.2687,0.3014,0.3289,0.3463,0.3802,0.4349,0.4301,0.4301,0.4408,0.4463,0.4463,0.446,0.446,0.446,0.4463,0.4463,0.4463,0.4463,0.4301,0.4245,0.4079,0.2963,0.2071,0.179,0.0616,-0.028,-0.0838,-0.1062,-0.1788,-0.2738,-0.2961,-0.3677,-0.4556,-0.4831,-0.5164,-0.571,-0.6032,-0.6308,-0.6381,-0.6652,-0.6869,-0.6836,-0.6998,-0.7041,-0.7101,-0.7209,-0.7333,-0.7203,-0.7949,-0.8051,-0.7521,-0.7628,-0.7973,-0.8062,-0.7931,-0.799,-0.8359,-0.8325,-0.8377,-0.8459,-0.8639,-0.8727,-0.8896,-0.8663,-0.8833,-0.8265,-0.7438,-0.7307,-0.7015,-0.6956,-0.6637,-0.6993,-0.7858,-0.8661,-0.9584,-1.0157,-1.0843,-1.0915,-1.0955,-1.084,-1.1023,-1.156,-1.2231,-1.3204,-1.4387,-1.552,-1.6202,-1.6622,-1.7038,0.296,0.2958,0.3353,0.3551,0.354,0.3733,0.3811,0.3771,0.3571,0.3297,0.3259,0.3366,0.3337,0.3194,0.3071,0.3222,0.3372,0.3038,0.3411,0.4219,0.4034,0.3537,0.3275,0.3098,0.3009,0.3003,0.3283,0.3461,0.3624,0.4021,0.4294,0.446,0.4463,0.4463,0.4463,0.4519,0.4463,0.4463,0.4519,0.4519,0.4519,0.4519,0.4463,0.4463,0.4463,0.4408,0.4298,0.3125,0.1845,0.0896,0.0448,0.0056,-0.0224,-0.0727,-0.1229,-0.1676,-0.2178,-0.2565,-0.3007,-0.3456,-0.3788,-0.4171,-0.4992,-0.5492,-0.5601,-0.6091,-0.6367,-0.6475,-0.6583,-0.6637,-0.6799,-0.6843,-0.673,-0.6573,-0.6853,-0.7182,-0.7235,-0.7343,-0.7444,-0.7605,-0.7706,-0.7658,-0.7498,-0.7343,-0.7149,-0.6991,-0.6798,-0.6644,-0.7032,-0.6987,-0.6956,-0.6613,-0.6037,-0.6082,-0.6,-0.5991,-0.5987,-0.6046,-0.648,-0.6824,-0.7572,-0.8142,-0.8884,-0.9438,-0.9491,-0.9451,-0.9844,-1.0345,-1.104,-1.1809,-1.2573,-1.3596,-1.3914,-1.4295,-1.4694,0.3889,0.3889,0.4217,0.4348,0.4339,0.4534,0.4565,0.4472,0.4382,0.4206,0.4101,0.4234,0.4246,0.4124,0.4005,0.4216,0.4511,0.3971,0.4312,0.5236,0.5314,0.4895,0.4424,0.4145,0.4062,0.3991,0.4168,0.4279,0.4313,0.4549,0.4629,0.468,0.4684,0.4684,0.468,0.468,0.468,0.468,0.468,0.468,0.4684,0.4684,0.468,0.4625,0.4625,0.4519,0.4073,0.3347,0.24,0.1398,0.0728,0.028,0.0168,-0.0224,-0.0672,-0.1008,-0.1454,-0.1843,-0.2458,-0.285,-0.3186,-0.3627,-0.4233,-0.4346,-0.4453,-0.4776,-0.4878,-0.4769,-0.4937,-0.5101,-0.521,-0.537,-0.5538,-0.5546,-0.5719,-0.5991,-0.6426,-0.6431,-0.648,-0.6529,-0.6578,-0.6686,-0.6416,-0.6195,-0.6036,-0.5882,-0.5736,-0.5567,-0.5521,-0.5277,-0.5277,-0.5273,-0.5105,-0.5117,-0.5066,-0.4948,-0.4948,-0.5062,-0.5348,-0.5563,-0.622,-0.6704,-0.7415,-0.811,-0.8093,-0.8275,-0.8744,-0.9261,-0.9957,-1.0639,-1.1133,-1.168,-1.2229,-1.2371,-1.2728,0.4882,0.4882,0.4945,0.5014,0.5014,0.5074,0.5071,0.4823,0.4965,0.4872,0.477,0.4827,0.4955,0.4793,0.4864,0.4999,0.5448,0.4877,0.5206,0.5907,0.6209,0.5977,0.5516,0.5269,0.5243,0.5218,0.5258,0.5111,0.4995,0.4934,0.4919,0.4849,0.4901,0.4901,0.4846,0.4901,0.4901,0.4901,0.4846,0.4846,0.4846,0.4846,0.4846,0.4846,0.4791,0.446,0.4015,0.3514,0.3125,0.2514,0.123,0.056,0.0336,0.0224,-0.0112,-0.0617,-0.0784,-0.1287,-0.2237,-0.2402,-0.285,-0.3294,-0.3244,-0.3302,-0.3297,-0.3181,-0.3065,-0.3121,-0.285,-0.3181,-0.3294,-0.3458,-0.4012,-0.446,-0.4298,-0.4408,-0.4908,-0.5187,-0.5128,-0.5018,-0.5014,-0.5062,-0.5058,-0.4999,-0.505,-0.5167,-0.4952,-0.4791,-0.4732,-0.4677,-0.4732,-0.4842,-0.4567,-0.4291,-0.4125,-0.3959,-0.3904,-0.3962,-0.4294,-0.472,-0.5546,-0.6102,-0.6556,-0.6929,-0.7166,-0.7387,-0.7695,-0.8294,-0.894,-0.9337,-0.9779,-1.0547,-1.1181,-1.1037,-1.1169,0.5624,0.5686,0.6145,0.6276,0.6342,0.6535,0.662,0.6535,0.6456,0.6209,0.6224,0.634,0.6264,0.6208,0.6091,0.635,0.6429,0.6152,0.6438,0.6607,0.6645,0.658,0.6322,0.6034,0.5719,0.5615,0.5426,0.5348,0.5238,0.5178,0.5084,0.4978,0.4963,0.4901,0.4956,0.4956,0.4901,0.4901,0.4901,0.4956,0.4956,0.4956,0.4901,0.4901,0.4846,0.4791,0.4457,0.3627,0.3016,0.2625,0.19,0.1119,0.0672,0.0449,0.0224,0.0,-0.0112,-0.028,-0.0672,-0.1231,-0.1455,-0.1899,-0.2237,-0.2347,-0.2456,-0.2456,-0.2456,-0.2569,-0.2625,-0.2627,-0.2856,-0.307,-0.335,-0.3633,-0.3688,-0.3741,-0.4187,-0.4301,-0.4356,-0.4298,-0.446,-0.4625,-0.4622,-0.4453,-0.4398,-0.4401,-0.4239,-0.4024,-0.4024,-0.4076,-0.4187,-0.4353,-0.4073,-0.3741,-0.3403,-0.3181,-0.3016,-0.3186,-0.3519,-0.384,-0.4652,-0.5346,-0.5783,-0.6137,-0.6391,-0.6658,-0.6996,-0.7203,-0.7785,-0.8072,-0.8459,-0.9098,-0.9591,-0.9564,-0.9506,0.6755,0.6675,0.6933,0.7064,0.7129,0.726,0.7279,0.7228,0.7172,0.709,0.6981,0.7117,0.7136,0.7044,0.698,0.6983,0.6967,0.685,0.6841,0.6863,0.6811,0.6806,0.6798,0.653,0.6274,0.6053,0.5845,0.5708,0.5675,0.5463,0.5331,0.5237,0.5227,0.5183,0.5124,0.5187,0.5179,0.5128,0.5073,0.5073,0.5073,0.5073,0.5014,0.5014,0.5014,0.4959,0.4791,0.4291,0.3572,0.3016,0.246,0.1734,0.0896,0.0617,0.0449,0.0336,0.0224,0.0,-0.0336,-0.0673,-0.112,-0.1342,-0.1568,-0.1568,-0.1623,-0.1621,-0.1566,-0.1621,-0.1733,-0.1902,-0.2411,-0.224,-0.2517,-0.2912,-0.2852,-0.2847,-0.3019,-0.3519,-0.391,-0.3802,-0.3855,-0.3855,-0.3799,-0.3627,-0.3627,-0.3572,-0.3796,-0.358,-0.3694,-0.3747,-0.3749,-0.3749,-0.3469,-0.3188,-0.2792,-0.2514,-0.2235,-0.2514,-0.2905,-0.3241,-0.3773,-0.4397,-0.502,-0.5388,-0.5806,-0.616,-0.6511,-0.6648,-0.6796,-0.736,-0.7749,-0.7891,-0.7967,-0.8086,-0.7952,0.7875,0.77,0.7671,0.7657,0.7657,0.7652,0.7569,0.7389,0.7514,0.7436,0.7321,0.7455,0.7447,0.7451,0.7316,0.7265,0.7199,0.7134,0.7064,0.7073,0.707,0.6981,0.6964,0.6902,0.6758,0.6474,0.633,0.6299,0.6166,0.592,0.5847,0.5756,0.5749,0.5634,0.5532,0.5596,0.5592,0.5428,0.5456,0.544,0.5415,0.5411,0.5297,0.5238,0.5128,0.5128,0.4959,0.4677,0.4233,0.3352,0.3072,0.2235,0.1288,0.0729,0.0617,0.0449,0.0336,0.0112,-0.0224,-0.0561,-0.0897,-0.1455,-0.1176,-0.0954,-0.0841,-0.0728,-0.0672,-0.0729,-0.084,-0.1065,-0.1572,-0.157,-0.1626,-0.1965,-0.1849,-0.1734,-0.1958,-0.285,-0.2961,-0.3188,-0.2905,-0.2794,-0.2685,-0.2573,-0.2685,-0.2798,-0.3021,-0.3135,-0.319,-0.319,-0.3079,-0.2912,-0.2575,-0.2069,-0.1677,-0.1846,-0.1623,-0.1801,-0.2247,-0.2596,-0.2888,-0.3278,-0.39,-0.4762,-0.5242,-0.5548,-0.5738,-0.5811,-0.6145,-0.6737,-0.7026,-0.7145,-0.6985,-0.6793,-0.6658,0.8705,0.8652,0.8396,0.8317,0.8322,0.8322,0.8172,0.7872,0.7907,0.7772,0.7478,0.7502,0.7591,0.7526,0.7461,0.7461,0.7526,0.7461,0.7396,0.7367,0.7389,0.7345,0.7175,0.7216,0.7082,0.6911,0.678,0.6785,0.6633,0.6511,0.6306,0.6276,0.6261,0.6123,0.6049,0.6093,0.5993,0.5763,0.5802,0.5793,0.5711,0.5686,0.5626,0.5458,0.5348,0.5297,0.5128,0.468,0.4233,0.3959,0.3398,0.2734,0.2014,0.1344,0.0953,0.0785,0.0673,0.0504,0.028,0.0056,0.0,-0.0112,-0.0224,-0.0224,-0.0168,-0.0224,-0.028,-0.0336,-0.0505,-0.0617,-0.0336,-0.0617,-0.0897,-0.101,-0.1009,-0.1064,-0.1455,-0.1453,-0.1509,-0.1902,-0.1789,-0.1733,-0.179,-0.1734,-0.1789,-0.19,-0.2012,-0.2125,-0.2181,-0.2181,-0.2125,-0.1847,-0.1569,-0.0952,-0.0392,-0.0841,-0.1011,-0.1136,-0.1549,-0.1953,-0.217,-0.2194,-0.2747,-0.3742,-0.4293,-0.4479,-0.468,-0.4961,-0.5229,-0.5632,-0.6013,-0.6326,-0.6264,-0.6203,-0.6129,0.9222,0.9108,0.8988,0.8945,0.8918,0.8743,0.8623,0.8469,0.8304,0.8182,0.8052,0.7987,0.7987,0.7987,0.7987,0.7987,0.7987,0.7787,0.7787,0.7761,0.7758,0.7574,0.7442,0.7486,0.7504,0.7418,0.7441,0.7203,0.6814,0.6691,0.6679,0.6582,0.6549,0.6437,0.6293,0.6253,0.6196,0.6027,0.5936,0.5901,0.5804,0.5795,0.574,0.5681,0.5631,0.5576,0.5517,0.5293,0.4846,0.4567,0.4061,0.3564,0.2959,0.2402,0.1843,0.1512,0.1288,0.112,0.0896,0.0616,0.028,0.028,0.0224,0.0336,0.0393,0.028,0.0,-0.0112,0.0,-0.0056,0.0112,0.0056,0.0112,0.0056,0.0,-0.028,-0.0448,-0.0168,-0.0336,-0.0671,-0.0783,-0.0894,-0.1062,-0.1062,-0.1006,-0.1006,-0.1063,-0.1174,-0.123,-0.123,-0.123,-0.1287,-0.1064,-0.0729,-0.0168,-0.028,-0.0566,-0.0631,-0.0877,-0.1266,-0.1553,-0.1639,-0.2045,-0.284,-0.3217,-0.3493,-0.3898,-0.4207,-0.4409,-0.4532,-0.4869,-0.5206,-0.554,-0.5609,-0.547,0.9735,0.9558,0.9508,0.9491,0.9458,0.9291,0.9135,0.9029,0.8887,0.875,0.8646,0.8614,0.8532,0.8592,0.8587,0.8505,0.8473,0.8218,0.8204,0.8225,0.8286,0.8072,0.7922,0.7909,0.7969,0.7803,0.7873,0.7748,0.7242,0.7084,0.6903,0.6881,0.6789,0.6693,0.6601,0.6639,0.6402,0.6217,0.6106,0.6012,0.5927,0.589,0.5881,0.585,0.5791,0.5795,0.574,0.5681,0.5458,0.5124,0.4842,0.4453,0.3956,0.3622,0.3234,0.2569,0.2124,0.1846,0.1511,0.1286,0.1008,0.1064,0.0728,0.0896,0.112,0.0952,0.056,0.0336,0.0448,0.0728,0.0896,0.0895,0.1006,0.1062,0.0895,0.0672,0.0616,0.0672,0.0728,0.0448,0.0224,0.0,-0.0113,-0.0114,0.0,-0.0057,-0.0113,-0.0336,-0.0392,-0.0503,-0.0616,-0.0784,-0.0728,-0.0561,-0.0224,0.0056,-0.0114,-0.0174,-0.0357,-0.0673,-0.0888,-0.1112,-0.1585,-0.1988,-0.2371,-0.2736,-0.3144,-0.3351,-0.3385,-0.3542,-0.3816,-0.4015,-0.4013,-0.4278,-0.4411,1.0557,1.0515,1.0289,1.0188,1.0136,1.0095,0.9939,0.973,0.9599,0.9483,0.9165,0.8961,0.8853,0.8869,0.8869,0.8694,0.8646,0.8737,0.8824,0.8772,0.8906,0.8838,0.8578,0.8724,0.8507,0.8301,0.824,0.7952,0.7796,0.7721,0.7603,0.7466,0.7459,0.731,0.7177,0.7154,0.7059,0.6609,0.6564,0.6462,0.6207,0.6164,0.6132,0.605,0.59,0.5845,0.585,0.585,0.5736,0.5681,0.5622,0.5344,0.4901,0.4959,0.4739,0.4128,0.335,0.2516,0.2069,0.1956,0.2011,0.1899,0.1564,0.162,0.1732,0.1902,0.1679,0.179,0.1623,0.1623,0.1734,0.1567,0.1566,0.1679,0.1792,0.1511,0.1399,0.1456,0.1568,0.152,0.1239,0.1089,0.0928,0.0992,0.0996,0.0927,0.0802,0.0566,0.0392,0.0168,0.0056,-0.0168,-0.028,-0.0168,-0.0112,0.0112,0.0171,0.0176,0.006,-0.0124,-0.0384,-0.0593,-0.0735,-0.107,-0.1465,-0.186,-0.2193,-0.2332,-0.2342,-0.2679,-0.3082,-0.2748,-0.228,-0.2681,-0.3482,1.1156,1.093,1.0822,1.0773,1.0755,1.0616,1.0479,1.0284,0.9961,0.9775,0.9587,0.9369,0.9334,0.9388,0.9259,0.9355,0.9456,0.9428,0.941,0.941,0.9452,0.9368,0.9189,0.9216,0.9104,0.9042,0.9073,0.9073,0.8806,0.8494,0.8236,0.822,0.8235,0.8139,0.7827,0.7668,0.7471,0.722,0.7047,0.681,0.6548,0.6358,0.6322,0.6391,0.6173,0.6069,0.6014,0.6014,0.6009,0.6009,0.5955,0.5841,0.5563,0.5513,0.5293,0.4567,0.4401,0.3849,0.3128,0.2905,0.2792,0.2625,0.2345,0.2233,0.24,0.2514,0.246,0.2122,0.2347,0.2517,0.2685,0.2573,0.2629,0.2687,0.2519,0.2352,0.2183,0.2296,0.2357,0.2315,0.2273,0.2016,0.175,0.1584,0.1465,0.1218,0.1154,0.1032,0.0849,0.0729,0.0617,0.0449,0.0336,0.028,0.0224,0.0337,0.0229,0.0294,0.0364,0.0187,0.0064,-0.0131,-0.0267,-0.0337,-0.0604,-0.0939,-0.1278,-0.1613,-0.1947,-0.2147,-0.2347,-0.2146,-0.2013,-0.2614,-0.3082,1.1558,1.126,1.1186,1.1186,1.1168,1.09,1.0816,1.084,1.0511,1.0323,1.0294,1.0074,1.0025,1.0031,0.9911,1.0018,1.0239,1.0119,1.0008,1.0014,0.9949,0.9859,0.9757,0.9818,0.9726,0.9642,0.9622,0.9691,0.9563,0.9336,0.9138,0.8871,0.8885,0.8763,0.8503,0.8244,0.8006,0.7783,0.7462,0.7182,0.6915,0.6704,0.6668,0.6623,0.6544,0.6337,0.6332,0.6228,0.6173,0.6173,0.6119,0.6005,0.595,0.5845,0.5618,0.5171,0.5124,0.4959,0.4291,0.3846,0.34,0.3292,0.3181,0.3178,0.2901,0.3128,0.3297,0.2847,0.3072,0.3241,0.3355,0.3411,0.3411,0.3297,0.3188,0.3023,0.2914,0.2856,0.28,0.2697,0.2659,0.2628,0.2371,0.2164,0.1929,0.1624,0.1446,0.1388,0.1257,0.1068,0.0954,0.0785,0.0729,0.0617,0.0618,0.0565,0.0461,0.0414,0.0488,0.0441,0.026,0.0132,0.0067,0.0067,0.0067,-0.027,-0.0808,-0.1144,-0.1481,-0.148,-0.1612,-0.1947,-0.2147,-0.2614,-0.2614,1.1706,1.1626,1.1484,1.1409,1.1335,1.1168,1.1156,1.1341,1.1292,1.1284,1.1238,1.1209,1.0811,1.0666,1.0676,1.0566,1.0375,1.0521,1.0605,1.0623,1.0635,1.0513,1.0404,1.033,1.0226,1.0007,1.0062,1.0051,1.0029,1.0233,0.9841,0.9406,0.9438,0.9198,0.8926,0.8791,0.8474,0.8137,0.7855,0.7618,0.7435,0.7231,0.7162,0.7014,0.6815,0.6652,0.6647,0.644,0.6337,0.6337,0.6282,0.6228,0.6228,0.6064,0.5837,0.5727,0.5677,0.5513,0.5175,0.4787,0.4732,0.468,0.446,0.4125,0.368,0.391,0.4024,0.391,0.391,0.3855,0.391,0.3965,0.3855,0.3744,0.3577,0.3522,0.3357,0.3246,0.3135,0.3079,0.3037,0.3006,0.2871,0.2671,0.2274,0.1969,0.1611,0.1494,0.1365,0.1234,0.1122,0.101,0.101,0.0955,0.09,0.0856,0.0875,0.078,0.0805,0.0576,0.0331,0.0268,0.027,0.0202,0.0135,-0.0067,-0.027,-0.0472,-0.0606,-0.0674,-0.0875,-0.1412,-0.1546,-0.1746,-0.1678,1.2083,1.2077,1.1855,1.1706,1.1552,1.1484,1.1484,1.1527,1.1455,1.1278,1.1223,1.109,1.1083,1.1083,1.1081,1.1134,1.0955,1.104,1.1089,1.096,1.0911,1.0879,1.0887,1.0893,1.0807,1.0669,1.0663,1.0663,1.0732,1.0812,1.0748,1.0452,1.0205,0.9976,0.9757,0.9383,0.8859,0.8357,0.8165,0.8027,0.7739,0.7389,0.7236,0.7322,0.7079,0.6977,0.6923,0.6815,0.6761,0.6707,0.6598,0.6549,0.65,0.6282,0.6168,0.6055,0.6005,0.5896,0.5732,0.5399,0.5073,0.4901,0.4791,0.468,0.4346,0.457,0.4577,0.4522,0.447,0.4356,0.4298,0.4187,0.4079,0.4021,0.3965,0.391,0.3799,0.3577,0.3522,0.3411,0.3411,0.3423,0.33,0.3117,0.2717,0.2254,0.1895,0.1597,0.1581,0.1514,0.1457,0.1457,0.1457,0.1401,0.1404,0.138,0.136,0.1279,0.1129,0.0971,0.0799,0.047,0.0404,0.0337,0.0337,0.0337,0.0337,0.0269,0.0,-0.0404,-0.0741,-0.1076,-0.1076,-0.1009,-0.1008,1.2305,1.2305,1.215,1.2003,1.1781,1.1706,1.1706,1.1749,1.1589,1.1468,1.1339,1.1346,1.1365,1.1526,1.1505,1.1503,1.1476,1.1459,1.1391,1.1316,1.1316,1.126,1.1285,1.1334,1.1377,1.1315,1.1358,1.1389,1.126,1.126,1.123,1.1169,1.1083,1.0816,1.0361,0.9926,0.9277,0.8828,0.8531,0.8492,0.8219,0.7817,0.7548,0.7678,0.7415,0.7246,0.7192,0.7085,0.7031,0.6972,0.6918,0.681,0.6761,0.6603,0.644,0.6327,0.6218,0.6168,0.6005,0.5681,0.5352,0.5124,0.5069,0.5014,0.4956,0.4901,0.4794,0.4739,0.4743,0.4688,0.4519,0.4408,0.4245,0.4132,0.4079,0.4024,0.3965,0.3855,0.3855,0.3796,0.3799,0.3744,0.3596,0.3365,0.2879,0.2486,0.2209,0.2008,0.208,0.2015,0.1903,0.1958,0.2015,0.1959,0.1906,0.2038,0.217,0.2023,0.1893,0.1621,0.1393,0.1071,0.0875,0.0941,0.0941,0.0874,0.0874,0.0941,0.0269,-0.0472,-0.0674,-0.0875,-0.074,-0.074,-0.0807,1.2298,1.2305,1.2305,1.2157,1.2003,1.1781,1.1855,1.2003,1.197,1.2011,1.2118,1.2131,1.2065,1.1957,1.1924,1.181,1.1681,1.1706,1.1632,1.1632,1.1558,1.1632,1.1752,1.186,1.1853,1.1846,1.1885,1.1942,1.1714,1.1702,1.1746,1.1664,1.1527,1.137,1.0982,1.0418,1.008,0.9832,0.9355,0.9076,0.8867,0.8443,0.8259,0.8126,0.7854,0.7669,0.7614,0.7443,0.7383,0.7323,0.7155,0.7085,0.709,0.7031,0.6977,0.6972,0.6756,0.6647,0.6647,0.6119,0.5736,0.5403,0.5297,0.5238,0.5014,0.4956,0.4956,0.4959,0.4849,0.4746,0.4632,0.4574,0.4408,0.4301,0.4301,0.4245,0.4187,0.4132,0.4073,0.4021,0.3965,0.3965,0.3802,0.3599,0.3085,0.2717,0.2399,0.2373,0.2535,0.2627,0.2516,0.2569,0.2736,0.2683,0.2655,0.2852,0.2887,0.2803,0.2545,0.2225,0.2058,0.1872,0.1744,0.161,0.1745,0.1879,0.1745,0.1611,0.0941,0.0336,-0.0337,-0.0539,-0.0471,-0.0403,-0.047,1.2452,1.2305,1.2305,1.2231,1.2224,1.215,1.215,1.2157,1.2231,1.2231,1.2305,1.2305,1.2305,1.2224,1.215,1.2083,1.1929,1.1929,1.1855,1.1719,1.1745,1.1859,1.1993,1.2209,1.228,1.2291,1.2393,1.2465,1.2304,1.2261,1.2184,1.2113,1.1906,1.1633,1.1266,1.0816,1.061,1.0286,0.9841,0.9444,0.9303,0.8989,0.8722,0.8595,0.8378,0.8256,0.8232,0.8008,0.7871,0.777,0.764,0.7441,0.7376,0.7317,0.7144,0.7144,0.6977,0.6972,0.6918,0.6598,0.6168,0.5845,0.5517,0.5513,0.5458,0.5238,0.5183,0.5128,0.5069,0.4963,0.4846,0.4791,0.4684,0.4577,0.4522,0.4467,0.4408,0.4349,0.4294,0.4187,0.4135,0.4079,0.3968,0.4051,0.3648,0.3365,0.3163,0.3033,0.3079,0.3297,0.3352,0.3403,0.3458,0.3461,0.3465,0.3582,0.363,0.3549,0.314,0.2652,0.2611,0.2679,0.2412,0.2146,0.2547,0.295,0.2616,0.2281,0.1879,0.1276,0.0739,0.0202,0.0202,0.0134,-0.0067,1.2599,1.2526,1.2526,1.2532,1.2452,1.2372,1.2305,1.2305,1.2305,1.2305,1.2305,1.2305,1.2305,1.2305,1.2305,1.2305,1.209,1.2276,1.2234,1.2097,1.2214,1.2369,1.2512,1.2609,1.2707,1.2771,1.2849,1.2855,1.2421,1.2577,1.2524,1.2257,1.2182,1.1937,1.1676,1.1371,1.1051,1.0746,1.0321,1.0007,0.9769,0.9499,0.9182,0.9085,0.8958,0.8884,0.886,0.8761,0.8551,0.8391,0.8153,0.787,0.7804,0.7578,0.7469,0.7498,0.7339,0.7209,0.7031,0.6977,0.6544,0.6223,0.5891,0.5786,0.5791,0.5572,0.5517,0.5407,0.5348,0.5234,0.512,0.512,0.4959,0.4853,0.4849,0.4739,0.4736,0.468,0.4846,0.4629,0.4411,0.4301,0.4196,0.4294,0.4223,0.4085,0.3952,0.3878,0.3816,0.4002,0.4247,0.4254,0.4273,0.4248,0.425,0.4314,0.4299,0.4232,0.3862,0.3343,0.3418,0.3482,0.3082,0.2815,0.3218,0.3487,0.3353,0.3084,0.2817,0.248,0.2012,0.1476,0.1006,0.0671,0.0403,1.29,1.29,1.29,1.29,1.2826,1.2526,1.2378,1.2305,1.2305,1.2305,1.2298,1.2305,1.2305,1.2305,1.2305,1.2331,1.2392,1.2605,1.2705,1.2819,1.2875,1.3041,1.3194,1.3333,1.326,1.3141,1.32,1.3213,1.2559,1.2709,1.2662,1.237,1.2284,1.2198,1.2025,1.1834,1.1514,1.1191,1.0866,1.0603,1.0392,1.0034,0.978,0.9678,0.9478,0.9345,0.9282,0.9265,0.9106,0.8909,0.8658,0.8646,0.8453,0.8172,0.819,0.808,0.7755,0.7486,0.7246,0.7192,0.7031,0.6707,0.6332,0.6059,0.5845,0.5795,0.5686,0.5681,0.5626,0.5567,0.5563,0.5344,0.5179,0.5124,0.512,0.512,0.5066,0.5171,0.5391,0.5285,0.4959,0.4798,0.465,0.4633,0.4947,0.4819,0.4812,0.5129,0.5072,0.4969,0.5113,0.5093,0.5122,0.5052,0.5012,0.4958,0.4965,0.4859,0.4675,0.4284,0.4353,0.422,0.3885,0.3751,0.3959,0.4025,0.3956,0.3956,0.3954,0.3551,0.295,0.2415,0.1811,0.1208,0.094,1.3053,1.29,1.29,1.29,1.29,1.2753,1.2753,1.2673,1.2599,1.2526,1.2526,1.2378,1.2378,1.2305,1.2311,1.2432,1.264,1.2802,1.2893,1.3046,1.3265,1.334,1.3487,1.3621,1.3621,1.3707,1.3768,1.3701,1.3474,1.3307,1.2859,1.2665,1.2385,1.2325,1.2271,1.2138,1.1913,1.1741,1.137,1.1201,1.0931,1.0581,1.0425,1.0213,0.9963,0.9835,0.9778,0.9643,0.9503,0.9439,0.9234,0.9099,0.9068,0.8941,0.8884,0.8503,0.8244,0.7952,0.7728,0.7521,0.7306,0.7198,0.6923,0.6549,0.6228,0.6009,0.5955,0.6009,0.5955,0.5896,0.5841,0.5677,0.5513,0.5454,0.5504,0.5609,0.566,0.5828,0.5991,0.6041,0.5714,0.5504,0.536,0.5401,0.5657,0.5588,0.5723,0.6133,0.6249,0.6095,0.5977,0.5965,0.5759,0.5623,0.5609,0.5555,0.556,0.5516,0.5264,0.4954,0.4755,0.4622,0.4556,0.4556,0.4492,0.4558,0.4628,0.4625,0.4489,0.4156,0.362,0.3153,0.2684,0.2013,0.1678,1.3273,1.3119,1.3119,1.3119,1.3119,1.3127,1.3119,1.3119,1.282,1.268,1.2673,1.2599,1.2526,1.2526,1.2539,1.2688,1.2839,1.2996,1.3194,1.3447,1.3573,1.3811,1.3967,1.396,1.3966,1.4011,1.3944,1.3654,1.3554,1.3153,1.2692,1.2545,1.2351,1.2405,1.2372,1.2345,1.2278,1.2058,1.1904,1.1629,1.1424,1.118,1.0955,1.0652,1.0464,1.0374,1.0238,1.0037,1.0021,0.9849,0.9662,0.9564,0.9498,0.9479,0.9131,0.8745,0.849,0.8178,0.7901,0.7741,0.7628,0.7521,0.7359,0.7031,0.6707,0.6495,0.6495,0.6495,0.6332,0.6168,0.6059,0.6009,0.5896,0.5786,0.5996,0.6204,0.6312,0.648,0.6637,0.674,0.6632,0.6416,0.6354,0.6383,0.6383,0.636,0.6637,0.7115,0.7133,0.6946,0.6786,0.6777,0.6432,0.6088,0.6133,0.6053,0.5911,0.5788,0.5679,0.5418,0.5153,0.4888,0.4752,0.4818,0.4954,0.5024,0.5027,0.4891,0.4755,0.4489,0.4223,0.3956,0.342,0.282,0.2684,1.3492,1.3492,1.3492,1.3492,1.3492,1.3492,1.3492,1.3419,1.3119,1.29,1.29,1.29,1.29,1.2826,1.2826,1.2875,1.307,1.3189,1.3487,1.3859,1.4114,1.4351,1.4358,1.4525,1.4296,1.4049,1.3824,1.3649,1.2963,1.2783,1.2689,1.2392,1.2385,1.2452,1.2599,1.2526,1.2485,1.251,1.2288,1.2002,1.1844,1.1617,1.1329,1.1089,1.0962,1.0862,1.0641,1.0501,1.0497,1.0192,1.0038,0.9977,0.9916,0.9842,0.936,0.8971,0.877,0.8447,0.816,0.7943,0.7741,0.7628,0.7521,0.7413,0.7198,0.6923,0.6815,0.6815,0.6652,0.6598,0.6544,0.6332,0.6164,0.6273,0.649,0.6696,0.6961,0.7176,0.7551,0.7599,0.7439,0.7246,0.7086,0.7074,0.7244,0.7188,0.7589,0.8108,0.7996,0.7823,0.754,0.7418,0.6935,0.6573,0.6497,0.6407,0.6149,0.6078,0.6001,0.5951,0.5752,0.5352,0.4885,0.515,0.5355,0.5352,0.5355,0.5219,0.5024,0.4824,0.4691,0.4625,0.4156,0.3556,0.3355,1.3492,1.3492,1.3492,1.3492,1.3492,1.3492,1.3492,1.3492,1.3419,1.3273,1.3119,1.2973,1.29,1.2973,1.2973,1.3051,1.3229,1.3459,1.3845,1.4097,1.4458,1.4494,1.4468,1.4573,1.442,1.4288,1.4026,1.367,1.3175,1.2969,1.2947,1.2774,1.2753,1.2746,1.282,1.2753,1.2746,1.2806,1.267,1.2442,1.2184,1.1897,1.163,1.1349,1.1162,1.0895,1.0752,1.0618,1.0591,1.0461,1.0461,1.0454,1.0454,1.026,0.9959,0.9594,0.9124,0.8758,0.8423,0.8136,0.7943,0.786,0.78,0.7794,0.7628,0.73,0.7139,0.7085,0.7085,0.7031,0.6918,0.6707,0.649,0.6707,0.6874,0.7133,0.7444,0.7978,0.8402,0.8355,0.8196,0.8057,0.79,0.7897,0.8032,0.8321,0.8793,0.911,0.8954,0.8676,0.8206,0.7914,0.7371,0.701,0.692,0.6715,0.6494,0.6429,0.647,0.6412,0.6284,0.5947,0.5547,0.562,0.5756,0.5752,0.562,0.5422,0.5289,0.509,0.4894,0.4824,0.4691,0.4225,0.3959,1.3492,1.3492,1.3492,1.3492,1.3492,1.3492,1.3492,1.3492,1.3492,1.3419,1.3339,1.32,1.3193,1.3119,1.3193,1.3176,1.3404,1.3539,1.3944,1.4316,1.4422,1.4631,1.4607,1.4547,1.4505,1.4384,1.3922,1.3515,1.3236,1.3124,1.2998,1.2914,1.29,1.2973,1.2973,1.2973,1.2973,1.3039,1.2973,1.2753,1.2526,1.2408,1.2053,1.17,1.1404,1.1108,1.0866,1.0719,1.0624,1.0618,1.0541,1.0541,1.0534,1.0471,1.02,0.9871,0.9466,0.9087,0.8739,0.8483,0.8219,0.8176,0.8202,0.8184,0.7961,0.7676,0.7568,0.7521,0.7354,0.73,0.7133,0.6918,0.6701,0.6756,0.6766,0.6874,0.761,0.8455,0.8778,0.8942,0.8818,0.8657,0.8595,0.8706,0.8859,0.9065,0.9618,0.9594,0.9472,0.9344,0.8888,0.8436,0.7917,0.7396,0.7129,0.6933,0.6798,0.6806,0.6876,0.6679,0.6548,0.6412,0.6214,0.6152,0.602,0.6017,0.5881,0.5686,0.5554,0.5352,0.5156,0.496,0.4894,0.4827,0.4625,1.3345,1.3375,1.3404,1.3426,1.3448,1.3484,1.3492,1.3492,1.3492,1.3492,1.3492,1.3492,1.3492,1.3492,1.3492,1.3492,1.3565,1.3688,1.3986,1.4231,1.4245,1.4438,1.4533,1.4496,1.4446,1.4223,1.3881,1.3464,1.3117,1.3096,1.3096,1.2973,1.2966,1.3046,1.3119,1.3119,1.3046,1.3193,1.3119,1.3046,1.2973,1.2886,1.2459,1.2141,1.1791,1.1499,1.1134,1.0813,1.0651,1.0618,1.0618,1.0618,1.0618,1.0555,1.0385,1.003,0.9643,0.9285,0.9029,0.8762,0.861,0.8492,0.8576,0.8471,0.8224,0.8109,0.7949,0.7842,0.7676,0.7515,0.7348,0.73,0.7085,0.7015,0.6972,0.7031,0.8037,0.8935,0.9152,0.942,0.9274,0.9159,0.9307,0.9431,0.9577,0.9797,0.988,0.9832,0.9734,0.9536,0.921,0.8882,0.8495,0.7977,0.7531,0.74,0.7335,0.7269,0.7265,0.7007,0.6811,0.6609,0.6478,0.6416,0.635,0.6214,0.6079,0.5885,0.5749,0.5617,0.5418,0.5223,0.5093,0.5024,0.5093,1.2846,1.2731,1.2987,1.3097,1.3148,1.3375,1.3492,1.3492,1.3484,1.3492,1.3492,1.3492,1.3492,1.3492,1.3492,1.3492,1.3528,1.3682,1.385,1.4033,1.4143,1.426,1.437,1.4416,1.4263,1.4088,1.3845,1.3739,1.3316,1.3346,1.3346,1.3339,1.3339,1.3339,1.3411,1.3346,1.3346,1.3346,1.3346,1.3273,1.3119,1.299,1.2711,1.2374,1.2068,1.1762,1.139,1.0964,1.0848,1.0744,1.0681,1.0618,1.0618,1.0618,1.0488,1.0341,0.988,0.9682,0.944,0.9084,0.8848,0.8715,0.8711,0.8559,0.8372,0.8321,0.8215,0.8215,0.8049,0.7895,0.7788,0.7854,0.7747,0.7919,0.796,0.8349,0.9047,0.9361,0.9577,0.9569,0.9435,0.9545,0.9771,0.9853,0.9827,1.0038,1.0164,1.0104,0.9989,0.9792,0.9594,0.9338,0.9017,0.87,0.8382,0.8122,0.7987,0.7857,0.7661,0.74,0.7073,0.6806,0.6679,0.6548,0.6482,0.6346,0.6214,0.6083,0.5947,0.5749,0.5617,0.5484,0.5355,0.5289,0.5359]},{"header":{"parameterUnit":"m.s-1","parameterCategory":1,"la1":31.0,"la2":29.5877,"lo1":-88.7671,"lo2":-86.6584,"dy":0.0162,"dx":0.0185,"nx":115,"ny":88,"refTime":"2023-08-28T12:00:00:Z","depth":0,"parameterNumber":3,"parameterNumberName":"V-component_of_WINDS"},"data":[0.0,0.0,0.0,0.0,0.0,0.0,0.0,0.0,0.0,0.0,0.0,0.0,0.0,0.0,0.0,0.0,0.0,0.0,0.0,0.0,0.0,0.0,0.0,0.0,0.0,0.0,0.0,0.0,0.0,0.0,0.0,0.0,0.0,0.0,0.0,0.0,0.0,0.0,0.0,0.0,0.0,0.0,0.0,0.0,0.0,0.0,0.0,0.0,0.0,0.0,0.0,0.0,0.0,0.0,0.0,0.0,0.0,0.0,0.0,0.0,0.0,0.0,0.0,0.0,0.0,0.0,0.0,0.0,0.0,0.0,0.0,0.0,0.0,0.0,0.0,0.0,0.0,0.0,0.0,0.0,0.0,0.0,0.0,0.0,0.0,0.0,0.0,0.0,0.0,0.0,0.0,0.0,0.0,0.0,0.0,0.0,0.0,0.0,0.0,0.0,0.0,0.0,0.0,0.0,0.0,0.0,0.0,0.0,0.0,0.0,0.0,0.0,0.0,0.0,0.0,0.0,0.0,0.0,0.0,0.0,0.0,0.0,0.0,0.0,0.0,0.0,0.0,0.0,0.0,0.0,0.0,0.0,0.0,0.0,0.0,0.0,0.0,0.0,0.0,0.0,0.0,0.0,0.0,0.0,0.0,0.0,0.0,0.0,0.0,0.0,0.0,0.0,0.0,0.0,0.0,0.0,0.0,0.0,0.0,0.0,0.0,0.0,0.0,0.0,0.0,0.0,0.0,0.0,0.0,0.0,0.0,0.0,0.0,0.0,0.0,0.0,0.0,0.0,0.0,0.0,0.0,0.0,0.0,0.0,0.0,0.0,0.0,0.0,0.0,0.0,0.0,0.0,0.0,0.0,0.0,0.0,0.0,0.0,0.0,0.0,0.0,0.0,0.0,0.0,0.0,0.0,0.0,0.0,0.0,0.0,0.0,0.0,0.0,0.0,0.0,0.0,0.0,0.0,0.0,0.0,0.0,0.0,0.0,0.0,0.0,0.0,0.0,0.0,0.0,0.0,0.0,0.0,0.0,0.0,0.0,0.0,0.0,0.0,0.0,0.0,0.0,0.0,0.0,0.0,0.0,0.0,0.0,0.0,0.0,0.0,0.0,0.0,0.0,0.0,0.0,0.0,0.0,0.0,0.0,0.0,0.0,0.0,0.0,0.0,0.0,0.0,0.0,0.0,0.0,0.0,0.0,0.0,0.0,0.0,0.0,0.0,0.0,0.0,0.0,0.0,0.0,0.0,0.0,0.0,0.0,0.0,0.0,0.0,0.0,0.0,0.0,0.0,0.0,0.0,0.0,0.0,0.0,0.0,0.0,0.0,0.0,0.0,0.0,0.0,0.0,0.0,0.0,0.0,0.0,0.0,0.0,0.0,0.0,0.0,0.0,0.0,0.0,0.0,0.0,0.0,0.0,0.0,0.0,0.0,0.0,0.0,0.0,0.0,0.0,0.0,0.0,0.0,0.0,0.0,0.0,0.0,0.0,0.0,0.0,0.0,0.0,0.0,0.0,0.0,0.0,0.0,0.0,0.0,0.0,0.0,0.0,0.0,0.0,0.0,0.0,0.0,0.0,0.0,0.0,0.0,0.0,0.0,0.0,0.0,0.0,0.0,0.0,0.0,0.0,0.0,0.0,0.0,0.0,0.0,0.0,0.0,0.0,0.0,0.0,0.0,0.0,0.0,0.0,0.0,0.0,0.0,0.0,0.0,0.0,0.0,0.0,0.0,0.0,0.0,0.0,0.0,0.0,0.0,0.0,0.0,0.0,0.0,0.0,0.0,0.0,0.0,0.0,0.0,0.0,0.0,0.0,0.0,0.0,0.0,0.0,0.0,0.0,0.0,0.0,0.0,0.0,0.0,0.0,0.0,0.0,0.0,0.0,0.0,0.0,0.0,0.0,0.0,0.0,0.0,0.0,0.0,0.0,0.0,0.0,0.0,0.0,0.0,0.0,0.0,0.0,0.0,0.0,0.0,0.0,0.0,0.0,0.0,0.0,0.0,0.0,0.0,0.0,0.0,0.0,0.0,0.0,0.0,0.0,0.0,0.0,0.0,0.0,0.0,0.0,0.0,0.0,0.0,0.0,0.0,0.0,0.0,0.0,0.0,0.0,0.0,0.0,0.0,0.0,0.0,0.0,0.0,0.0,0.0,0.0,0.0,0.0,0.0,0.0,0.0,0.0,0.0,0.0,0.0,0.0,0.0,0.0,0.0,0.0,0.0,0.0,0.0,0.0,0.0,0.0,0.0,0.0,0.0,0.0,0.0,0.0,0.0,0.0,0.0,0.0,0.0,0.0,0.0,0.0,0.0,0.0,0.0,0.0,0.0,0.0,0.0,0.0,0.0,0.0,0.0,0.0,0.0,0.0,0.0,0.0,0.0,0.0,0.0,0.0,0.0,0.0,0.0,0.0,0.0,0.0,0.0,0.0,0.0,0.0,0.0,0.0,0.0,0.0,0.0,0.0,0.0,0.0,0.0,0.0,0.0,0.0,0.0,0.0,0.0,0.0,0.0,0.0,0.0,0.0,0.0,0.0,0.0,0.0,0.0,0.0,0.0,0.0,0.0,0.0,0.0,0.0,0.0,0.0,0.0,0.0,0.0,0.0,0.0,0.0,0.0,0.0,0.0,0.0,0.0,0.0,0.0,0.0,0.0,0.0,0.0,0.0,0.0,0.0,0.0,0.0,0.0,0.0,0.0,0.0,0.0,0.0,0.0,0.0,0.0,0.0,0.0,0.0,0.0,0.0,0.0,0.0,0.0,0.0,0.0,0.0,0.0,0.0,0.0,0.0,0.0,0.0,0.0,0.0,0.0,0.0,0.0,0.0,0.0,0.0,0.0,0.0,0.0,0.0,0.0,0.0,0.0,0.0,0.0,0.0,0.0,0.0,0.0,0.0,0.0,0.0,0.0,0.0,0.0,0.0,0.0,0.0,0.0,0.0,0.0,0.0,0.0,0.0,0.0,0.0,0.0,0.0,0.0,0.0,0.0,0.0,0.0,0.0,0.0,0.0,0.0,0.0,0.0,0.0,0.0,0.0,0.0,0.0,0.0,0.0,0.0,0.0,0.0,0.0,0.0,0.0,0.0,0.0,0.0,0.0,0.0,0.0,0.0,0.0,0.0,0.0,0.0,0.0,0.0,0.0,0.0,0.0,0.0,0.0,0.0,0.0,0.0,0.0,0.0,0.0,0.0,0.0,0.0,0.0,0.0,0.0,0.0,0.0,0.0,0.0,0.0,0.0,0.0,0.0,0.0,0.0,0.0,0.0,0.0,0.0,0.0,0.0,0.0,0.0,0.0,0.0,0.0,0.0,0.0,0.0,0.0,0.0,0.0,0.0,0.0,0.0,0.0,0.0,0.0,0.0,0.0,0.0,0.0,0.0,0.0,0.0,0.0,0.0,0.0,0.0,0.0,0.0,0.0,0.0,0.0,0.0,0.0,0.0,0.0,0.0,0.0,0.0,0.0,0.0,0.0,0.0,0.0,0.0,0.0,0.0,0.0,0.0,0.0,0.0,0.0,0.0,0.0,0.0,0.0,0.0,0.0,0.0,0.0,0.0,0.0,0.0,0.0,0.0,0.0,0.0,0.0,0.0,0.0,0.0,0.0,0.0,0.0,0.0,0.0,0.0,0.0,0.0,0.0,0.0,0.0,0.0,0.0,0.0,0.0,0.0,0.0,0.0,0.0,0.0,0.0,0.0,0.0,0.0,0.0,0.0,0.0,0.0,0.0,0.0,0.0,0.0,0.0,0.0,0.0,0.0,0.0,0.0,0.0,0.0,0.0,0.0,0.0,0.0,0.0,0.0,0.0,0.0,0.0,0.0,0.0,0.0,0.0,0.0,0.0,0.0,0.0,0.0,0.0,0.0,0.0,0.0,0.0,0.0,0.0,0.0,0.0,0.0,0.0,0.0,0.0,0.0,0.0,0.0,0.0,0.0,0.0,0.0,0.0,0.0,0.0,0.0,0.0,0.0,0.0,0.0,0.0,0.0,0.0,0.0,0.0,0.0,0.0,0.0,0.0,0.0,0.0,0.0,0.0,0.0,0.0,0.0,0.0,0.0,0.0,0.0,0.0,0.0,0.0,0.0,0.0,0.0,0.0,0.0,0.0,0.0,0.0,0.0,0.0,0.0,0.0,0.0,0.0,0.0,0.0,0.0,0.0,0.0,0.0,0.0,0.0,0.0,0.0,0.0,0.0,0.0,0.0,0.0,0.0,0.0,0.0,0.0,0.0,0.0,0.0,0.3761,0.0,0.0,0.0,0.1681,0.0,0.0,0.0,0.0,0.0,0.0,0.0,0.0,0.0,0.0,0.0,0.0,0.0,0.0,0.0,0.0,0.0,0.0,0.0,0.0,0.0,0.0,0.0,0.0,0.0,0.0,0.0,0.0,0.0,0.0,0.0,0.0,0.0,0.0,0.0,0.0,0.0,0.0,0.0,0.0,0.0,0.0,0.0,0.0,0.0,0.0,0.0,0.0,0.0,0.0,0.0,0.0,0.0,0.0,0.0,0.0,0.0,0.0,0.0,0.0,0.0,0.0,0.0,0.0,0.0,0.0,0.0,0.0,0.0,0.0,0.0,0.0,0.0,0.0,0.0,0.0,0.0,0.0,0.0,0.0,0.0,0.0,0.0,0.0,0.0,0.0,0.0,0.0,0.0,0.0,0.0,0.0,0.0,0.0,0.0,0.0,0.0,0.0,0.0,0.0,0.0,0.0,0.0,0.0,0.0,0.0,0.0,0.0,0.0,0.0,0.3961,0.3092,0.2624,0.2085,0.1613,0.0,0.0,0.0,0.0,0.0,0.0,0.0,0.0,0.0,0.0,0.0,0.0,0.0,0.0,0.0,0.0,0.0,0.0,0.0,0.0,0.0,0.0,0.0,0.0,0.0,0.0,0.0,0.0,0.0,0.0,0.0,0.0,0.0,0.0,0.0,0.0,0.0,0.0,0.0,0.0,0.0,0.0,0.0,0.0,0.0,0.0,0.0,0.0,0.0,0.0,0.0,0.0,0.0,0.0,0.0,0.0,0.0,0.0,0.0,0.0,0.0,0.0,0.0,0.0,0.0,0.0,0.0,0.0,0.0,0.0,0.0,0.0,0.0,0.0,0.0,0.0,0.0,0.0,0.0,0.0,0.0,0.0,0.0,0.0,0.0,0.0,0.0,0.0,0.0,0.0,0.0,0.0,0.0,0.0,0.0,0.0,0.0,0.0,0.0,0.0,0.0,0.0,0.0,0.0,0.0,0.0,0.0,0.0,0.0,0.0,0.0,0.0,0.2555,0.2013,0.1533,0.0,0.0,0.0,0.0,0.0,0.0,0.0,0.0,0.0,0.0,0.0,0.0,0.0,0.0,0.0,0.0,0.0,0.0,0.0,0.0,0.0,0.0,0.0,0.0,0.0,0.0,0.0,0.0,0.0,0.0,0.0,0.0,0.0,0.0,0.0,0.0,0.0,0.0,0.0,0.0,0.0,0.0,0.0,0.0,0.0,0.0,0.0,0.0,0.0,0.0,0.0,0.0,0.0,0.0,0.0,0.0,0.0,0.0,0.0,0.0,0.0,0.0,0.0,0.0,0.0,0.0,0.0,0.0,0.0,0.0,0.0,0.0,0.0,0.0,0.0,0.0,0.0,0.0,0.0,0.0,0.0,0.0,0.0,0.0,0.0,0.0,0.0,0.0,0.0,0.0,0.0,0.0,0.0,0.0,0.0,0.0,0.0,0.0,0.0,0.0,0.0,0.0,0.0,0.0,0.0,0.0,0.0,0.0,0.0,0.0,0.3558,0.3023,0.2287,0.0,0.1169,0.0,0.0,0.0,0.0,0.0,0.0,0.0,0.0,0.0,0.0,0.0,0.0,0.0,0.0,0.0,0.0,0.0,0.0,0.0,0.0,0.0,0.0,0.0,0.0,0.0,0.0,0.0,0.0,0.0,0.0,0.0,0.0,0.0,0.0,0.0,0.0,0.0,0.0,0.0,0.0,0.0,0.0,0.0,0.0,0.0,0.0,0.0,0.0,0.0,0.0,0.0,0.0,0.0,0.0,0.0,0.0,0.0,0.0,0.0,0.0,0.0,0.0,0.0,0.0,0.0,0.0,0.0,0.0,0.0,0.0,0.0,0.0,0.0,0.0,0.0,0.0,0.0,0.0,0.0,0.0,0.0,0.0,0.0,0.0,0.0,0.0,0.0,0.0,0.0,0.0,0.0,0.0,0.0,0.0,0.0,0.0,0.0,0.0,0.0,0.0,0.0,0.0,0.0,0.0,0.0,0.0,0.0,0.0,0.0,0.0,0.3558,0.282,0.2151,0.1594,0.0,0.0,0.0,0.0,0.0,0.0,0.0,0.0,0.0,0.0,0.0,0.0,0.0,0.0,0.0,0.0,0.0,0.0,0.0,0.0,0.0,0.0,0.0,0.0,0.0,0.0,0.0,0.0,0.0,0.0,0.0,0.0,0.0,0.0,0.0,0.0,0.0,0.0,0.0,0.0,0.0,0.0,0.0,0.0,0.0,0.0,0.0,0.0,0.0,0.0,0.0,0.0,0.0,0.0,0.0,0.0,0.0,0.0,0.0,0.0,0.0,0.0,0.0,0.0,0.0,0.0,0.0,0.0,0.0,0.0,0.0,0.0,0.0,0.0,0.0,0.0,0.0,0.0,0.0,0.0,0.0,0.0,0.0,0.0,0.0,0.0,0.0,0.0,0.0,0.0,0.0,0.0,0.0,0.0,0.0,0.0,0.0,0.0,0.0,0.0,0.0,0.0,0.0,0.0,0.0,0.0,0.0,0.0,0.0,0.0,0.4223,0.3422,0.2485,0.1935,0.1445,0.083,0.0,0.0,0.0,0.0,0.0,0.0,0.0,0.0,0.0,0.0,0.0,0.0,0.0,0.0,0.0,0.0,0.0,0.0,0.0,0.0,0.0,0.0,0.0,0.0,0.0,0.0,0.0,0.0,0.0,0.0,0.0,0.0,0.0,0.0,0.0,0.0,0.0,0.0,0.0,0.0,0.0,0.0,0.0,0.0,0.0,0.0,0.0,0.0,0.0,0.0,0.0,0.0,0.0,0.0,0.0,0.0,0.0,0.0,0.0,0.0,0.0,0.0,0.0,0.0,0.0,0.0,0.0,0.0,0.0,0.0,0.0,0.0,0.0,0.0,0.0,0.0,0.0,0.0,0.0,0.0,0.0,0.0,0.0,0.0,0.0,0.0,0.0,0.0,0.0,0.0,0.0,0.0,0.0,0.0,0.0,0.0,0.0,0.0,0.0,0.0,0.0,0.0,0.0,0.0,0.0,0.0,0.0,0.0,0.508,0.4084,0.3017,0.188,0.1575,0.1021,0.0,0.0,0.0,0.0,0.0,0.0,0.0,0.0,0.0,0.0,0.0,0.0,0.0,0.0,0.0,0.0,0.0,0.0,0.0,0.0,0.0,0.0,0.0,0.0,0.0,0.0,0.0,0.0,0.0,0.0,0.0,0.0,0.0,0.0,0.0,0.0,0.0,0.0,0.0,0.0,0.0,0.0,0.0,0.0,0.0,0.0,0.0,0.0,0.0,0.0,0.0,0.0,0.0,0.0,0.0,0.0,0.0,0.0,0.0,0.0,0.0,0.0,0.0,0.0,0.0,0.0,0.0,0.0,0.0,0.0,0.0,0.0,0.0,0.0,0.0,0.0,0.0,0.0,0.0,0.0,0.0,0.0,0.0,0.0,0.0,0.0,0.0,0.0,0.0,0.0,0.0,0.0,0.0,0.0,0.0,0.0,0.0,0.0,0.0,0.0,0.0,0.0,0.0,0.0,0.0,0.0,0.0,0.0,0.0,0.507,0.3682,0.2548,0.157,0.0907,0.0315,0.0,0.0,0.0,0.0,0.0,0.0,0.0,0.0,0.0,0.0,0.0,0.0,0.0,0.0,0.0,0.0,0.0,0.0,0.0,0.0,0.0,0.0,0.0,0.0,0.0,0.0,0.0,0.0,0.0,0.0,0.0,0.0,0.0,0.0,0.0,0.0,0.0,0.0,0.0,0.0,0.0,0.0,0.0,0.0,0.0,0.0,0.0,0.0,0.0,0.0,0.0,0.0,0.0,0.0,0.0,0.0,0.0,0.0,0.0,0.0,0.0,0.0,0.0,0.0,0.0,0.0,0.0,0.0,0.0,0.0,0.0,0.0,0.0,0.0,0.0,0.0,0.0,0.0,0.0,0.0,0.0,0.0,0.0,0.0,0.0,0.0,0.0,0.0,0.0,0.0,0.0,0.0,0.0,0.0,0.0,0.0,0.0,0.0,0.0,0.0,0.0,0.0,0.0,0.0,0.0,0.0,0.0,0.0,0.0,0.5032,0.0,0.2242,0.1078,0.0063,-0.0682,0.0,0.0,0.0,0.0,0.0,0.0,0.0,0.0,0.0,0.0,0.0,0.0,0.0,0.0,0.0,0.0,0.0,0.0,0.0,0.0,0.0,0.0,0.0,0.0,0.0,0.0,0.0,0.0,0.0,0.0,0.0,0.0,0.0,0.0,0.0,0.0,0.0,0.0,0.0,0.0,0.0,0.0,0.0,0.0,0.0,0.0,0.0,0.0,0.0,0.0,0.0,0.0,0.0,0.0,0.0,0.0,0.0,0.0,0.0,0.0,0.0,0.0,0.0,0.0,0.0,0.0,0.0,0.0,0.0,0.0,0.0,0.0,0.0,0.0,0.0,0.0,0.0,0.0,0.0,0.0,0.0,0.0,0.0,0.0,0.0,0.0,0.0,0.0,0.0,0.0,0.0,0.0,0.0,0.0,0.0,0.0,0.0,0.0,0.0,0.0,0.0,0.0,0.0,0.0,0.0,0.0,0.0,0.0,0.6515,0.4901,0.3728,0.2148,0.0307,-0.1045,-0.2064,0.0,0.0,0.0,0.0,0.0,0.0,0.0,0.0,0.0,0.0,0.0,0.0,0.0,0.0,0.0,0.0,0.0,0.0,0.0,0.0,0.0,0.0,0.0,0.0,0.0,0.0,0.0,0.0,0.0,0.0,0.0,0.0,0.0,0.0,0.0,0.0,0.0,0.0,0.0,0.0,0.0,0.0,0.0,0.0,0.0,0.0,0.0,0.0,0.0,0.0,0.0,0.0,0.0,0.0,0.0,0.0,0.0,0.0,0.0,0.0,0.0,0.0,0.0,0.0,0.0,0.0,0.0,0.0,0.0,0.0,0.0,0.0,0.0,0.0,0.0,0.0,0.0,0.0,0.0,0.0,0.0,0.0,0.0,0.0,0.0,0.0,0.0,0.0,0.0,0.0,0.0,0.0,0.0,0.0,0.0,0.0,0.0,0.0,0.0,0.0,0.0,0.0,0.0,0.0,0.0,0.0,0.0,0.0,0.0,0.7062,0.3115,0.1078,0.1015,-0.2692,-0.4714,0.0,0.0,0.0,0.0,0.0,0.0,0.0,0.0,0.0,0.0,0.0,0.0,0.0,0.0,0.0,0.0,0.0,0.0,0.0,0.0,0.0,0.0,0.0,0.0,0.0,0.0,0.0,0.0,0.0,0.0,0.0,0.0,0.0,0.0,0.0,0.0,0.0,0.0,0.0,0.0,0.0,0.0,0.0,0.0,0.0,0.0,0.0,0.0,0.0,0.0,0.0,0.0,0.0,0.0,0.0,0.0,0.0,0.0,0.0,0.0,0.0,0.0,0.0,0.0,0.0,0.0,0.0,0.0,0.0,0.0,0.0,0.0,0.0,0.0,0.0,0.0,0.0,0.0,0.0,0.0,0.0,0.0,0.0,0.0,0.0,0.0,0.0,0.0,0.0,0.0,0.0,0.0,0.0,0.0,0.0,0.0,0.0,0.0,0.0,0.0,0.0,0.0,0.0,0.0,0.0,0.0,0.0,0.0,0.0,1.1848,0.7834,0.4429,0.202,-0.1156,-0.4008,-0.646,0.0,0.0,0.0,0.0,0.0,0.0,0.0,0.0,0.0,0.0,0.0,0.0,0.0,0.0,0.0,0.0,0.0,0.0,0.0,0.0,0.0,0.0,0.0,0.0,0.0,0.0,0.0,0.0,0.0,0.0,0.0,0.0,0.0,0.0,0.0,0.0,0.0,0.0,0.0,0.0,0.0,0.0,0.0,0.0,0.0,0.0,0.0,0.0,0.0,0.0,0.0,0.0,0.0,0.0,0.0,0.0,0.0,0.0,0.0,0.0,0.0,0.0,0.0,0.0,0.0,0.0,0.0,0.0,0.0,0.0,0.0,0.0,0.0,0.0,0.0,0.0,0.0,0.0,0.0,0.0,0.0,0.0,0.0,0.0,0.0,0.0,0.0,0.0,0.0,0.0,0.0,0.0,0.0,0.0,0.0,0.0,0.0,0.0,0.0,0.0,0.0,0.0,0.0,0.0,0.0,0.0,0.0,0.0,1.8598,1.6565,1.1269,0.2843,0.2469,-0.1059,0.0,0.0,0.0,0.0,0.0,0.0,0.0,0.0,0.0,0.0,0.0,0.0,0.0,0.0,0.0,0.0,0.0,0.0,0.0,0.0,0.0,0.0,0.0,0.0,0.0,0.0,0.0,0.0,0.0,0.0,0.0,0.0,0.0,0.0,0.0,0.0,0.0,0.0,0.0,0.0,0.0,0.0,0.0,0.0,0.0,0.0,0.0,0.0,0.0,0.0,0.0,0.0,0.0,0.0,0.0,0.0,0.0,0.0,0.0,0.0,0.0,0.0,0.0,0.0,0.0,0.0,0.0,0.0,0.0,0.0,0.0,0.0,0.0,0.0,0.0,0.0,0.0,0.0,0.0,0.0,0.0,0.0,0.0,0.0,0.0,0.0,0.0,0.0,0.0,0.0,0.0,0.0,0.0,0.0,0.0,0.0,0.0,0.0,0.0,0.0,0.0,0.0,0.0,0.0,0.0,0.0,0.0,0.0,0.0,2.1519,2.2166,1.6009,0.2792,-0.0054,-0.4718,0.0,0.0,0.0,0.0,0.0,0.0,0.0,0.0,0.0,0.0,0.0,0.0,0.0,0.0,0.0,0.0,0.0,0.0,0.0,0.0,0.0,0.0,0.0,0.0,0.0,0.0,0.0,0.0,0.0,0.0,0.0,0.0,0.0,0.0,0.0,0.0,0.0,0.0,0.0,0.0,0.0,0.0,0.0,0.0,0.0,0.0,0.0,0.0,0.0,0.0,0.0,0.0,0.0,0.0,0.0,0.0,0.0,0.0,0.0,0.0,0.0,0.0,0.0,0.0,0.0,0.0,0.0,0.0,0.0,0.0,0.0,0.0,0.0,0.0,0.0,0.0,0.0,0.0,0.0,0.0,0.0,0.0,0.0,0.0,0.0,0.0,0.0,0.0,0.0,0.0,0.0,0.0,0.0,0.0,0.0,0.0,0.0,0.0,0.0,0.0,0.0,0.0,0.0,0.0,0.0,0.0,0.0,0.0,2.1643,2.3478,2.5052,1.994,0.7712,0.3133,-0.2267,0.0,0.0,0.0,0.0,0.0,0.0,0.0,0.0,0.0,0.0,0.0,0.0,0.0,0.0,0.0,0.0,0.0,0.0,0.0,0.0,0.0,0.0,0.0,0.0,0.0,0.0,0.0,0.0,0.0,0.0,0.0,0.0,0.0,0.0,0.0,0.0,0.0,0.0,0.0,0.0,0.0,0.0,0.0,0.0,0.0,0.0,0.0,0.0,0.0,0.0,0.0,0.0,0.0,0.0,0.0,0.0,0.0,0.0,0.0,0.0,0.0,0.0,0.0,0.0,0.0,0.0,0.0,0.0,0.0,0.0,0.0,0.0,0.0,0.0,0.0,0.0,0.0,0.0,0.0,0.0,0.0,0.0,0.0,0.0,0.0,0.0,0.0,0.0,0.0,0.0,0.0,0.0,0.0,0.0,0.0,0.0,0.0,0.0,0.0,0.0,0.0,0.0,0.0,0.0,0.0,0.0,0.0,0.0,2.2907,2.4657,2.6103,2.341,1.6282,0.9429,0.2844,0.0,0.0,0.0,0.0,0.0,0.0,0.0,0.0,0.0,0.0,0.0,0.0,0.0,0.0,0.0,0.0,0.0,0.0,0.0,0.0,0.0,0.0,0.0,0.0,0.0,0.0,0.0,0.0,0.0,0.0,0.0,0.0,0.0,0.0,0.0,0.0,0.0,0.0,0.0,0.0,0.0,0.0,0.0,0.0,0.0,0.0,0.0,0.0,0.0,0.0,0.0,0.0,0.0,0.0,0.0,0.0,0.0,0.0,0.0,0.0,0.0,0.0,0.0,0.0,0.0,0.0,0.0,0.0,0.0,0.0,0.0,0.0,0.0,0.0,0.0,0.0,0.0,0.0,0.0,0.0,0.0,0.0,0.0,0.0,0.0,0.0,0.0,0.0,0.0,0.0,0.0,0.0,0.0,0.0,0.0,0.0,0.0,0.0,0.0,0.0,0.0,0.0,0.0,0.0,0.0,0.0,0.0,0.0,2.3435,2.5114,2.6321,2.6346,2.5061,1.2493,0.2223,0.0,0.0,0.0,0.0,0.0,0.0,0.0,0.0,0.0,0.0,0.0,0.0,0.0,0.0,0.0,0.0,0.0,0.0,0.0,0.0,0.0,0.0,0.0,0.0,0.0,0.0,0.0,0.0,0.0,0.0,0.0,0.0,0.0,0.0,0.0,0.0,0.0,0.0,0.0,0.0,0.0,0.0,0.0,0.0,0.0,0.0,0.0,0.0,-2.2922,0.0,0.0,0.0,0.0,0.0,0.0,0.0,0.0,0.0,0.0,0.0,0.0,0.0,0.0,0.0,0.0,0.0,0.0,0.0,0.0,0.0,0.0,0.0,0.0,0.0,0.0,0.0,0.0,0.0,0.0,0.0,0.0,0.0,0.0,0.0,0.0,0.0,0.0,0.0,0.0,0.0,0.0,0.0,0.0,0.0,0.0,0.0,0.0,0.0,0.0,0.0,0.0,0.0,0.0,0.0,0.0,0.0,0.0,0.0,2.3615,2.502,2.6311,2.7159,2.6983,1.2762,0.3334,0.0,0.0,0.0,0.0,0.0,0.0,0.0,0.0,0.0,0.0,0.0,0.0,0.0,0.0,0.0,0.0,0.0,0.0,0.0,0.0,0.0,0.0,0.0,0.0,0.0,0.0,0.0,0.0,0.0,0.0,0.0,0.0,0.0,0.0,0.0,0.0,0.0,0.0,0.0,0.0,0.0,0.0,0.0,0.0,0.0,0.0,0.0,0.0,0.0,0.0,0.0,0.0,0.0,0.0,0.0,0.0,0.0,0.0,0.0,0.0,0.0,0.0,0.0,0.0,0.0,0.0,0.0,0.0,0.0,0.0,0.0,0.0,0.0,0.0,0.0,0.0,0.0,0.0,0.0,0.0,0.0,0.0,0.0,0.0,0.0,0.0,0.0,0.0,0.0,0.0,0.0,0.0,0.0,0.0,0.0,0.0,0.0,0.0,0.0,0.0,0.0,0.0,0.0,0.0,0.0,0.0,0.0,2.2952,2.348,2.4705,2.5873,2.6593,2.6551,1.1656,0.4442,0.6203,0.0,0.0,0.0,0.0,0.0,0.0,0.0,0.0,0.0,0.0,0.0,0.0,0.0,0.0,0.0,0.0,0.0,0.0,0.0,0.0,0.0,0.0,0.0,0.0,0.0,0.0,0.0,0.0,0.0,0.0,0.0,0.0,0.0,0.0,0.0,0.0,0.0,0.0,2.674,2.6774,0.0,0.0,0.0,0.0,0.0,0.0,0.0,0.0,-2.6269,0.0,0.0,0.0,0.0,0.0,0.0,0.0,0.0,0.0,0.0,0.0,0.0,0.0,0.0,0.0,0.0,0.0,0.0,0.0,0.0,0.0,0.0,0.0,0.0,0.0,0.0,0.0,0.0,0.0,0.0,0.0,0.0,0.0,0.0,0.0,0.0,0.0,0.0,0.0,0.0,0.0,0.0,0.0,0.0,0.0,0.0,0.0,0.0,0.0,0.0,0.0,0.0,0.0,0.0,0.0,0.0,2.3786,2.2797,2.2927,2.4244,2.4309,2.4674,2.4885,1.0314,0.3274,0.473,0.0,0.0,0.0,0.0,0.0,0.0,0.0,0.0,0.0,0.0,0.0,0.0,0.0,0.0,0.0,0.0,0.0,0.0,0.0,0.0,0.0,0.0,0.0,0.0,0.0,0.0,0.0,0.0,0.0,0.0,0.0,0.0,0.0,0.0,0.0,0.0,0.0,0.0,0.0,2.9576,2.7313,0.0,0.0,0.0,0.0,0.0,0.0,0.0,0.0,-2.8863,0.0,0.0,0.0,0.0,0.0,0.0,0.0,0.0,0.0,0.0,0.0,0.0,0.0,0.0,0.0,0.0,0.0,0.0,0.0,0.0,0.0,0.0,0.0,0.0,0.0,0.0,0.0,0.0,0.0,0.0,0.0,0.0,0.0,0.0,0.0,0.0,0.0,0.0,0.0,0.0,0.0,0.0,0.0,0.0,0.0,0.0,0.0,0.0,0.0,0.0,0.0,0.0,0.0,0.0,0.0,2.4374,2.4301,2.438,2.4736,2.553,2.5742,2.4994,1.0948,0.3961,0.0,0.0,0.0,0.0,0.0,0.0,0.0,0.0,0.0,0.0,0.0,0.0,0.0,0.0,0.0,0.0,0.0,0.0,0.0,0.0,0.0,0.0,0.0,0.0,0.0,0.0,0.0,0.0,0.0,0.0,0.0,0.0,0.0,0.0,0.0,0.0,0.0,0.0,0.0,0.0,3.2933,3.2594,2.8603,0.0,0.0,0.0,0.0,0.0,0.0,-2.5761,-3.0306,0.0,0.0,0.0,0.0,0.0,0.0,0.0,0.0,0.0,0.0,0.0,0.0,0.0,0.0,0.0,0.0,0.0,0.0,0.0,0.0,0.0,0.0,0.0,0.0,0.0,0.0,0.0,0.0,0.0,0.0,0.0,0.0,0.0,0.0,0.0,0.0,0.0,0.0,0.0,0.0,0.0,0.0,0.0,0.0,0.0,0.0,0.0,0.0,0.0,0.0,0.0,0.0,0.0,0.0,0.0,2.4785,2.5477,2.5523,2.4987,2.6316,2.642,2.4878,1.1591,0.4639,0.0,0.0,0.0,0.0,0.0,0.0,0.0,0.0,0.0,0.0,0.0,0.0,0.0,0.0,0.0,0.0,0.0,0.0,0.0,0.0,0.0,0.0,0.0,0.0,0.0,0.0,0.0,0.0,0.0,0.0,0.0,0.0,0.0,0.0,0.0,0.0,0.0,0.0,0.0,0.0,0.0,3.6575,3.5374,2.9068,0.0,0.0,0.0,0.0,-1.3853,-2.2588,0.0,0.0,0.0,0.0,0.0,0.0,0.0,0.0,0.0,0.0,0.0,0.0,0.0,0.0,0.0,0.0,0.0,0.0,0.0,0.0,0.0,0.0,0.0,0.0,0.0,0.0,0.0,0.0,0.0,0.0,0.0,0.0,0.0,0.0,0.0,0.0,0.0,0.0,0.0,0.0,0.0,0.0,0.0,0.0,0.0,0.0,0.0,0.0,0.0,0.0,0.0,0.0,0.0,0.0,0.0,0.0,2.453,2.4519,2.4314,2.3902,2.3932,2.3885,2.3567,1.0792,0.3961,0.0,0.0,0.0,0.0,0.0,0.0,0.0,0.0,0.0,0.0,0.0,0.0,0.0,0.0,0.0,0.0,0.0,0.0,0.0,0.0,0.0,0.0,0.0,0.0,0.0,0.0,0.0,0.0,0.0,0.0,0.0,0.0,0.0,0.0,0.0,0.0,0.0,0.0,0.0,0.0,0.0,3.5544,3.5994,3.5037,3.0401,0.0,0.0,0.0657,-1.3721,-2.0026,0.0,0.0,0.0,0.0,0.0,0.0,0.0,0.0,0.0,0.0,0.0,0.0,0.0,0.0,0.0,0.0,0.0,0.0,0.0,0.0,0.0,0.0,0.0,0.0,0.0,0.0,0.0,0.0,0.0,0.0,0.0,0.0,0.0,0.0,0.0,0.0,0.0,0.0,0.0,0.0,0.0,0.0,0.0,0.0,0.0,0.0,0.0,0.0,0.0,0.0,0.0,0.0,0.0,0.0,0.0,2.4572,2.5761,2.6194,2.6045,2.5324,2.5536,2.5312,2.4555,1.5462,0.8791,0.0,0.0,0.0,0.0,0.0,0.0,0.0,0.0,0.0,0.0,0.0,0.0,0.0,0.0,0.0,0.0,0.0,0.0,0.0,0.0,0.0,0.0,0.0,0.0,0.0,0.0,0.0,0.0,0.0,0.0,0.0,0.0,0.0,0.0,0.0,0.0,0.0,0.0,0.0,0.0,0.0,0.0,3.5609,3.517,0.0,0.0,0.0,0.3112,-0.545,0.0,0.0,0.0,0.0,0.0,0.0,0.0,0.0,0.0,0.0,0.0,0.0,0.0,0.0,0.0,0.0,0.0,0.0,0.0,0.0,0.0,0.0,0.0,0.0,0.0,0.0,0.0,0.0,0.0,0.0,0.0,0.0,0.0,0.0,0.0,0.0,0.0,0.0,0.0,0.0,0.0,0.0,0.0,0.0,0.0,0.0,0.0,0.0,0.0,0.0,0.0,0.0,0.0,0.0,0.0,0.0,0.0,2.6628,2.7642,2.7662,2.6729,2.7196,2.6935,2.5667,1.9571,0.0,0.0,0.0,0.0,0.0,0.0,0.0,0.0,0.0,0.0,0.0,0.0,0.0,0.0,0.0,0.0,0.0,0.0,0.0,0.0,0.0,0.0,0.0,0.0,0.0,0.0,0.0,2.5203,0.0,0.0,0.0,0.0,0.0,0.0,0.0,0.0,0.0,0.0,0.0,0.0,0.0,0.0,3.3924,3.395,3.3267,3.1511,0.0,0.0,0.4998,0.1512,-0.9021,-1.7313,0.0,0.0,0.0,0.0,0.0,0.0,0.0,0.0,0.0,0.0,0.0,0.0,0.0,0.0,0.0,0.0,0.0,0.0,0.0,0.0,0.0,0.0,0.0,0.0,0.0,0.0,0.0,0.0,0.0,0.0,0.0,0.0,0.0,0.0,0.0,0.0,0.0,0.0,0.0,0.0,0.0,0.0,0.0,0.0,0.0,0.0,0.0,0.0,0.0,0.0,0.0,0.0,0.0,0.0,2.5327,2.6252,2.771,2.8032,2.7221,2.7568,2.7413,2.6524,2.0543,1.3831,0.0,0.0,0.0,0.0,0.0,0.0,0.0,0.0,0.0,0.0,0.0,0.0,0.0,0.0,0.0,0.0,0.0,0.0,0.0,0.0,0.0,0.0,0.0,0.0,0.0,0.0,0.0,0.0,0.0,0.0,0.0,0.0,0.0,0.0,0.0,0.0,0.0,0.0,0.0,0.0,0.0,3.1303,3.0472,3.0002,2.8066,0.0,1.5594,0.8248,0.3176,-0.4064,-1.0157,-1.3033,0.0,0.0,0.0,0.0,0.0,0.0,0.0,0.0,0.0,0.0,0.0,0.0,0.0,0.0,0.0,0.0,0.0,0.0,0.0,0.0,0.0,0.0,0.0,0.0,0.0,0.0,0.0,0.0,0.0,0.0,0.0,0.0,0.0,0.0,0.0,0.0,0.0,0.0,0.0,0.0,0.0,0.0,0.0,0.0,0.0,0.0,0.0,0.0,0.0,0.0,0.0,0.0,0.0,2.637,2.7244,2.8326,2.8714,2.8387,2.8275,2.8091,2.7806,2.5075,2.016,0.0,0.0,0.0,0.0,0.0,0.0,0.0,0.0,0.0,0.0,0.0,0.0,0.0,0.0,0.0,0.0,0.0,0.0,0.0,0.0,0.0,0.0,0.0,0.0,0.0,0.0,0.0,0.0,2.6987,2.7103,2.6935,0.0,0.0,0.0,0.0,0.0,0.0,0.0,0.0,0.0,0.0,2.9168,2.8703,2.7201,0.0,0.0,1.3398,0.762,0.3092,-0.274,-0.7248,-0.89,-1.0218,0.0,0.0,0.0,0.0,0.0,0.0,0.0,0.0,0.0,0.0,0.0,0.0,0.0,0.0,0.0,0.0,0.0,0.0,0.0,0.0,0.0,0.0,0.0,0.0,0.0,0.0,0.0,0.0,0.0,0.0,0.0,0.0,0.0,0.0,0.0,0.0,0.0,0.0,0.0,0.0,0.0,0.0,0.0,0.0,0.0,0.0,0.0,0.0,0.0,0.0,0.0,0.0,2.7101,2.7951,2.9023,2.9553,2.949,2.9225,2.9055,2.8903,2.8368,2.4658,0.0,0.0,0.0,0.0,0.0,0.0,0.0,0.0,0.0,0.0,0.0,0.0,0.0,0.0,0.0,0.0,0.0,0.0,0.0,0.0,0.0,0.0,0.0,0.0,0.0,0.0,0.0,0.0,2.7138,2.6874,2.5809,0.0,0.0,0.0,0.0,0.0,0.0,0.0,0.0,0.0,0.0,2.7142,2.637,2.4255,2.1293,1.7118,1.201,0.735,0.3842,-0.1016,-0.4732,-0.5897,0.0,0.0,0.0,0.0,0.0,0.0,0.0,0.0,0.0,0.0,0.0,0.0,0.0,0.0,0.0,0.0,0.0,0.0,0.0,0.0,0.0,0.0,0.0,0.0,0.0,0.0,0.0,2.6839,0.0,0.0,2.581,0.0,0.0,0.0,0.0,0.0,0.0,0.0,0.0,0.0,0.0,0.0,0.0,0.0,0.0,0.0,0.0,0.0,0.0,0.0,0.0,0.0,0.0,2.7226,2.8081,2.9739,3.0533,3.0346,3.0424,3.0235,2.9855,2.9525,2.602,1.8933,0.0,0.0,0.0,0.0,0.0,0.0,0.0,0.0,0.0,0.0,0.0,0.0,0.0,0.0,0.0,0.0,0.0,0.0,0.0,0.0,0.0,0.0,0.0,0.0,0.0,0.0,2.6832,2.6497,2.553,0.0,0.0,0.0,0.0,0.0,0.0,0.0,0.0,0.0,2.5189,2.5678,2.5259,2.3036,2.1161,1.9135,1.6461,1.196,0.8133,0.5871,0.1662,-0.2099,0.0,0.0,0.0,0.0,0.0,0.0,0.0,0.0,0.0,0.0,0.0,0.0,0.0,0.0,0.0,0.0,0.0,0.0,0.0,0.0,0.0,0.0,0.0,0.0,0.0,0.0,0.0,3.1252,3.0701,0.0,0.0,0.0,0.0,0.0,0.0,0.0,0.0,0.0,0.0,0.0,3.2907,3.3504,0.0,0.0,0.0,0.0,0.0,0.0,0.0,0.0,0.0,0.0,0.0,0.0,2.7551,2.7429,2.9537,3.038,2.9783,3.0244,3.0443,3.0293,2.9999,2.632,1.8991,0.0,0.0,0.0,0.0,0.0,0.0,0.0,0.0,0.0,0.0,0.0,0.0,0.0,0.0,0.0,0.0,0.0,0.0,0.0,0.0,0.0,0.0,0.0,0.0,0.0,2.6294,0.0,0.0,0.0,0.0,0.0,0.0,0.0,0.0,0.0,0.0,2.454,2.511,2.5347,2.525,2.4379,2.2446,2.0542,1.8329,0.0,0.0,0.0,0.0,0.0,0.0,0.0,0.0,0.0,0.0,0.0,0.0,0.0,-0.5852,-0.4994,-0.3496,-0.2534,-0.1457,0.027,0.0,0.0,0.0,0.0,0.0,0.0,0.0,0.0,0.0,0.0,0.0,0.0,0.0,0.0,3.4054,3.3264,3.2686,0.0,0.0,0.0,0.0,0.0,0.0,0.0,0.0,3.3465,3.4459,3.5048,3.5318,3.514,3.4571,3.3704,3.2129,0.0,0.0,0.0,0.0,0.0,0.0,0.0,0.0,2.7901,2.7488,2.9011,2.9742,2.9479,2.9914,3.0273,3.0524,3.0183,2.7636,2.264,2.1347,1.7645,0.0,0.0,0.0,0.0,0.0,0.0,0.0,0.0,0.0,0.0,0.0,0.0,0.0,0.0,0.0,0.0,0.0,0.0,0.0,0.0,0.0,0.0,0.0,2.5186,0.0,0.0,0.0,0.0,0.0,0.0,0.0,0.0,0.0,2.3097,2.4238,2.4896,2.4467,2.4317,2.358,2.1634,0.0,0.0,0.0,0.0,0.0,0.0,0.0,0.093,-0.1025,-0.2062,-0.3143,-0.4718,-0.5333,-0.5608,-0.5736,0.0,0.0,-0.2905,-0.2169,-0.1138,0.0656,0.114,0.1253,0.1542,0.1542,0.1542,0.0,0.0,0.0,0.0,3.5838,0.0,0.0,0.0,3.5833,3.5348,0.0,3.437,0.0,0.0,0.0,0.0,3.0791,3.243,0.0,0.0,3.529,3.5721,3.569,3.4967,3.452,3.4404,3.3638,3.3172,3.2946,3.0781,0.0,0.0,0.0,0.0,0.0,0.0,2.8278,2.8214,2.8293,2.8652,2.9363,2.9455,2.9853,3.0545,3.0239,2.9801,2.9438,2.8311,2.4998,1.8896,1.7966,0.0,0.0,0.0,0.0,0.0,0.0,0.0,0.0,0.0,0.0,0.0,0.0,0.0,0.0,0.0,0.0,0.0,0.0,0.0,0.0,2.5022,0.0,0.0,0.0,0.0,0.0,0.0,0.0,0.0,0.0,2.1209,2.1922,2.4193,2.4991,2.2498,0.0,0.0,0.0,0.0,1.7572,1.6148,1.3441,1.0519,0.7919,0.5203,0.2741,0.0664,0.0,0.0,-0.3214,-0.3723,-0.4218,-0.4931,-0.4212,-0.3283,-0.2301,-0.1813,-0.0955,0.0861,0.1165,0.1277,0.1474,0.157,0.1569,4.0761,0.0,0.0,0.0,0.0,3.8772,3.8887,3.9057,3.8888,3.8524,3.7956,3.6382,0.0,0.0,0.0,0.0,0.0,0.0,3.4187,3.4481,3.5918,3.6626,3.6642,3.7,3.6542,3.5329,3.5057,3.4027,3.229,3.1586,3.1109,3.0833,0.0,0.0,0.0,0.0,2.7945,2.7441,2.7929,2.8062,2.7715,2.8889,2.984,3.0564,3.0402,3.0157,2.9855,2.9519,2.811,2.5421,2.5168,0.0,0.0,0.0,0.0,0.0,0.0,0.0,0.0,0.0,0.0,0.0,0.0,0.0,0.0,0.0,0.0,0.0,0.0,0.0,2.5346,2.4313,2.3112,0.0,0.0,0.0,0.0,0.0,0.0,0.0,0.0,0.0,2.2201,2.3111,2.3735,0.0,0.0,2.2124,2.0586,1.9085,1.792,1.7424,1.4587,0.0,0.9908,0.6802,0.3981,0.2138,0.0287,-0.1183,-0.1507,-0.2092,-0.2469,-0.2665,-0.2441,-0.1936,-0.0875,-0.1179,-0.0793,0.0895,0.0898,0.07,0.1402,0.1588,0.1572,4.3379,4.1632,4.1338,4.0941,4.0521,4.0502,4.0423,4.0281,4.0123,3.974,3.9178,3.8146,3.7021,3.5822,3.4173,0.0,0.0,0.0,3.4301,3.4616,3.5001,3.5341,3.5693,3.5859,3.5284,3.406,3.4309,3.3557,3.1835,3.1797,3.1796,3.1773,0.0,2.9936,2.9902,2.8778,2.7964,2.7487,2.7284,2.7128,2.7028,2.8642,2.9703,3.0114,3.0336,3.0294,3.0023,3.0056,2.9655,2.8727,2.8881,2.8745,0.0,0.0,0.0,0.0,0.0,0.0,0.0,0.0,0.0,0.0,0.0,2.9471,2.8393,0.0,0.0,0.0,2.5134,2.428,2.4592,2.3922,0.0,0.0,0.0,0.0,0.0,0.0,0.0,2.1162,2.1996,2.2633,2.2575,2.2578,2.2627,2.2727,2.2084,2.1283,2.0272,0.0,1.8665,1.8676,1.5793,1.3169,1.1629,0.852,0.5514,0.3075,0.1238,-0.0097,-0.0491,-0.0878,-0.1259,-0.1548,-0.1343,-0.0859,-0.0193,-0.0587,-0.0494,0.1196,0.1098,0.0896,0.1484,0.1566,0.1553,4.5162,4.4106,4.2937,4.2058,4.1437,4.1437,4.092,4.0159,4.0061,3.9604,3.8916,3.9406,3.8357,3.6122,3.5341,0.0,3.4831,3.4052,3.409,3.4737,3.3124,3.2781,3.3444,3.2722,3.1914,3.1231,3.1966,3.2001,3.1391,3.1314,3.1321,3.1352,3.0776,3.0529,3.0496,2.9002,2.8197,2.8181,2.6555,2.6113,2.7012,2.8511,2.9284,2.9302,2.9959,3.016,2.9844,2.9998,2.9904,2.9496,2.9819,2.9987,2.9906,0.0,0.0,0.0,0.0,0.0,0.0,0.0,0.0,0.0,0.0,0.0,0.0,0.0,0.0,2.5373,2.4398,0.0,2.4089,2.3771,0.0,0.0,0.0,2.1911,2.2298,2.1665,2.1413,2.216,0.0,0.0,2.2783,2.228,2.1699,2.1052,2.0906,2.0518,1.9692,1.9461,1.9342,1.9368,1.7012,1.4636,1.3008,1.0101,0.6824,0.3823,0.2268,0.1225,0.0378,0.0094,-0.0377,-0.1131,-0.066,0.0,0.0,0.0094,0.038,0.1354,0.1464,0.1363,0.1435,0.1521,0.1515,4.4541,4.426,4.3268,4.2742,4.2517,4.2454,4.1724,4.0571,4.0384,4.0037,3.952,3.8713,3.7362,3.5689,3.5773,3.5399,3.4653,3.3942,3.3731,3.3845,3.2859,3.2174,3.1792,3.168,3.0877,2.9582,2.9794,2.9548,2.8832,2.8752,2.871,2.8752,2.9312,2.9923,3.044,2.8935,2.814,2.8193,2.6497,2.6078,2.6973,2.734,2.7811,2.8466,2.8566,2.8528,2.8394,2.8398,2.8315,2.8159,2.8347,2.8733,2.9335,2.8515,0.0,0.0,0.0,0.0,0.0,0.0,0.0,0.0,0.0,2.7912,2.6384,0.0,2.6915,0.0,2.5099,2.4525,2.3633,2.4047,0.0,0.0,2.2995,2.2599,2.2012,2.1738,2.1633,2.1734,2.1658,2.1669,2.1898,2.1375,2.0791,2.0225,2.0536,2.0596,1.9822,1.9463,1.9179,1.8716,1.7227,1.5487,1.3707,0.9983,0.6705,0.5095,0.3408,0.2277,0.2079,0.1418,0.0872,0.0707,0.0789,0.0962,0.1064,0.1509,0.1778,0.1525,0.0836,0.0572,0.131,0.1473,0.1451,4.2754,4.2679,4.1763,4.1399,4.14,4.1698,4.1176,4.0132,3.9991,3.9799,3.9481,3.8387,3.7002,3.5522,3.5319,3.4767,3.3833,3.2762,3.2051,3.1694,3.0866,3.0075,2.9302,2.9418,2.8844,2.7679,2.8192,2.8046,2.739,2.7676,2.7838,2.7808,2.8424,2.8949,2.933,2.8553,2.7982,2.7609,2.6271,2.5849,2.6406,2.675,2.7159,2.7604,2.7923,2.8054,2.7987,2.796,2.7913,2.7901,2.8353,2.8816,2.9244,2.8836,2.8643,0.0,0.0,0.0,0.0,0.0,0.0,0.0,0.0,0.0,0.0,0.0,2.6803,2.6003,2.5378,2.483,2.4343,2.4671,2.4589,2.3823,2.3327,2.2948,2.2611,2.2114,2.1728,2.1887,2.1538,2.1341,2.1549,2.1096,2.0614,2.0237,2.0553,2.0537,1.9764,1.92,1.8764,1.8609,1.7433,1.5771,1.3676,1.0519,0.7734,0.6241,0.4875,0.3701,0.2821,0.2293,0.2021,0.1938,0.1936,0.2025,0.2388,0.2821,0.299,0.2575,0.2021,0.1611,0.1424,0.1408,0.1477,4.0621,4.0469,3.9626,3.9308,3.9383,3.993,3.9866,3.9373,3.9149,3.8898,3.8513,3.7753,3.6593,3.5144,3.4364,3.3603,3.2748,3.1303,3.0169,2.9388,2.8494,2.7622,2.6805,2.6911,2.6626,2.6015,2.6873,2.6998,2.6467,2.7198,2.7552,2.7522,2.7735,2.7811,2.7706,2.7918,2.7615,2.6751,2.5983,2.5642,2.5703,2.6445,2.6806,2.6782,2.7474,2.7851,2.7794,2.7775,2.7822,2.7962,2.8727,2.9252,2.9393,2.9279,2.9072,0.0,2.8091,0.0,0.0,0.0,0.0,0.0,0.0,0.0,0.0,2.6262,2.6332,2.6254,2.5493,2.5162,2.5402,2.5407,2.5061,2.433,2.3584,2.3217,2.3507,2.2514,2.1926,2.2358,2.1539,2.1096,2.1518,2.1152,2.0785,2.0424,2.0419,2.0205,1.9544,1.8778,1.8377,1.8619,1.7432,1.5501,1.3307,1.136,0.9592,0.7713,0.6558,0.535,0.3438,0.3162,0.3022,0.2736,0.2672,0.2873,0.3624,0.3784,0.3864,0.3609,0.3617,0.3311,0.2093,0.1758,0.1832,3.9802,3.9727,3.8858,3.852,3.8483,3.7995,3.839,3.9298,3.7953,3.6578,3.5237,3.5051,3.4431,3.3473,3.3287,3.2767,3.1968,3.1021,3.0169,2.937,2.8515,2.7382,2.6124,2.623,2.5939,2.5335,2.5603,2.5667,2.5553,2.5707,2.5813,2.5876,2.6643,2.6714,2.6129,0.0,0.0,0.0,2.5746,2.57,2.5703,2.5871,2.5937,2.5924,2.6026,0.0,2.6057,2.6022,2.6343,2.7078,2.7301,0.0,0.0,0.0,0.0,0.0,0.0,0.0,0.0,0.0,0.0,0.0,2.7752,2.7482,2.6564,2.6609,2.6555,2.6161,2.618,2.5942,2.5227,2.5615,2.5512,2.4636,2.4254,2.4026,2.374,2.3161,2.2787,2.2716,2.1957,2.1353,2.1287,2.0852,2.0162,1.9368,1.9538,1.9527,1.8973,1.8812,1.8437,1.7504,1.6161,1.4805,1.3704,1.2381,1.121,1.0184,0.8652,0.7134,0.5615,0.4672,0.4024,0.3419,0.3131,0.3224,0.345,0.3964,0.429,0.3593,0.397,0.419,0.3463,0.3214,0.3154,3.7756,3.7699,3.6836,3.6723,0.0,3.6197,3.6569,3.7622,3.6761,3.5423,3.3821,3.3761,3.3067,3.1853,3.1871,3.1402,3.0599,3.0295,2.9474,2.8259,2.7902,2.6935,2.5397,2.5555,2.5412,2.5115,2.5233,2.5313,2.5313,2.5313,2.5313,2.5367,2.5887,2.5943,2.559,2.6084,2.6108,2.5601,2.5631,2.5661,2.5702,2.5696,2.5705,2.5687,2.5668,0.0,0.0,0.0,0.0,0.0,0.0,0.0,0.0,2.9624,0.0,2.9649,2.9026,2.8515,2.8223,2.7911,2.7745,2.7812,2.8042,2.7817,2.6971,2.6285,2.6081,2.638,2.6316,2.6049,2.5612,2.5677,2.5382,2.4668,2.4174,2.3646,2.3138,2.2688,2.2274,2.185,2.1354,2.1039,2.0993,2.0626,2.0192,1.9632,1.9808,1.9819,1.9263,1.8749,1.8086,1.7145,1.5864,1.4806,1.4422,1.3478,1.2378,1.1485,1.0436,0.8986,0.7306,0.6472,0.5806,0.5194,0.5083,0.506,0.5141,0.5437,0.5512,0.4787,0.4862,0.5131,0.4803,0.4105,0.3612,3.5744,3.5687,3.4971,3.5009,3.5437,3.4764,3.4708,3.5101,3.5168,0.0,0.0,3.2577,3.1811,3.0541,3.0542,3.0074,2.9307,2.9624,2.8736,2.6994,2.7248,2.6541,2.4961,2.5037,2.5115,2.5149,2.5243,2.5313,2.5313,2.5303,2.5322,2.535,2.546,2.5507,2.5542,2.5645,2.5668,2.5631,2.5631,2.5641,2.5699,2.5697,2.5705,2.5694,2.5691,2.5707,2.5718,2.6334,2.6754,2.6933,2.828,2.9123,2.9303,2.9853,3.0017,2.9621,2.9021,2.8467,2.8035,2.775,2.7535,2.74,2.7701,2.7697,2.7293,2.6133,2.5785,2.6592,2.6185,2.5873,2.5839,2.5533,2.5097,2.4557,2.3954,2.3306,2.2623,2.2263,2.1993,2.125,2.1089,2.0834,2.0822,2.0667,2.0419,2.0306,2.0334,2.0341,1.9812,1.8793,1.7843,1.7195,1.6247,1.5431,1.5215,1.4423,1.3411,1.254,1.1902,1.0889,0.9236,0.8316,0.7829,0.722,0.7198,0.7003,0.7049,0.6962,0.6846,0.6216,0.6075,0.6072,0.6001,0.5003,0.4298,3.5221,3.5202,3.5088,3.4601,3.3942,3.3971,3.3242,3.2086,3.2449,3.1709,3.015,3.0093,3.002,2.9849,2.983,2.9448,2.8875,2.9589,2.8643,2.6418,2.7072,2.6572,2.5099,2.5084,2.516,2.5283,2.5303,2.5313,2.5293,2.5357,2.543,2.5473,2.5566,2.5609,2.5676,2.5703,2.5697,2.5683,2.5703,2.5702,2.5689,2.5693,2.5701,2.5691,2.5707,2.5699,2.5699,2.5827,2.6188,2.6855,2.7146,2.7875,2.9193,2.933,2.9428,2.9559,2.8968,2.8667,2.8788,2.7616,2.6768,2.657,2.6167,2.6367,2.7397,2.7357,2.6893,2.6136,2.5887,2.5697,2.5216,2.5091,2.4801,2.4289,2.4403,2.4173,2.3054,2.3226,2.3131,2.2456,2.2154,2.1746,2.1511,2.1134,2.0682,2.0179,2.0513,2.0617,2.0335,1.923,1.81,1.7433,1.6867,1.6362,1.5998,1.535,1.4731,1.3995,1.349,1.2624,1.1073,1.0283,0.9602,0.8765,0.838,0.7946,0.7758,0.7602,0.7503,0.7247,0.7185,0.7176,0.7185,0.6843,0.6471,3.4882,3.4467,3.4448,3.3903,3.3037,3.2683,3.1832,3.0691,3.0405,3.0189,2.9851,2.9377,2.9447,2.9855,2.9418,2.9049,2.8751,2.8796,2.7912,2.6403,2.6814,2.6411,2.534,2.5264,2.5284,2.5351,2.5332,2.5351,2.5367,2.539,2.5432,2.5504,2.558,2.5639,2.5705,2.5689,2.5698,2.5703,2.5702,2.5694,2.5707,2.5691,2.5707,2.5703,2.5707,2.5707,2.5687,2.6139,2.6553,2.6874,2.7354,2.7909,2.8501,2.851,2.8617,2.8851,2.8336,2.8136,2.8433,2.7417,2.6712,2.657,2.6244,2.6165,2.653,2.594,2.5384,2.4966,2.4924,2.4829,2.4557,2.453,2.4286,2.3702,2.3838,2.3568,2.2839,2.2839,2.2798,2.2207,2.2056,2.1964,2.1866,2.1718,2.1589,2.121,2.1382,2.1431,2.1403,2.0828,1.9953,1.8867,1.8035,1.7512,1.7246,1.6789,1.626,1.5641,1.51,1.4209,1.3064,1.2273,1.1542,1.069,1.0192,0.9748,0.9169,0.8977,0.8784,0.8334,0.827,0.827,0.827,0.827,0.7862,3.452,3.3743,3.3743,3.3245,3.2368,3.1536,3.0789,3.0139,2.911,2.9225,2.9979,2.9033,2.902,2.9748,2.9174,2.8906,2.8862,2.8583,2.7723,2.6579,2.6844,2.6446,2.5498,2.5401,2.5421,2.541,2.541,2.5414,2.5432,2.5446,2.5473,2.5552,2.5586,2.5657,2.5696,2.5698,2.5702,2.5682,2.5676,2.5703,2.5691,2.5703,2.5699,2.5699,2.5707,2.5694,2.574,2.6349,2.6677,2.6677,2.7266,2.7615,2.7628,2.7623,2.7773,2.8003,2.7599,2.738,2.7459,2.7131,2.6749,2.6498,2.6307,2.5988,2.5425,2.4484,2.3963,2.4196,2.4309,2.4295,2.4281,2.4121,2.3875,2.343,2.3368,2.32,2.255,2.2559,2.2407,2.1917,2.1983,2.2184,2.217,2.2249,2.2221,2.2175,2.21,2.2039,2.2221,2.2249,2.1657,2.0788,1.9685,1.8984,1.8838,1.8419,1.787,1.7302,1.6693,1.6007,1.5119,1.4427,1.3716,1.2882,1.2366,1.1804,1.0968,1.0431,1.0179,0.9793,0.9666,0.9488,0.9482,0.9482,0.8971,3.4032,3.3326,3.3229,3.2764,3.1874,3.0925,3.0519,3.0327,2.8857,2.908,3.0259,2.8567,2.8281,2.9106,2.9137,2.9135,2.9294,2.9999,2.8965,2.6929,2.7498,2.7031,2.5582,2.5485,2.548,2.5482,2.5488,2.5488,2.5498,2.5559,2.5615,2.5675,2.5697,2.5702,2.5703,2.5702,2.5672,2.5625,2.5617,2.5632,2.5693,2.5694,2.5699,2.5699,2.5699,2.5694,2.5693,2.5763,2.5817,2.5814,2.5904,2.6205,2.6722,2.6818,2.7014,2.7426,2.7027,2.6572,2.613,2.6593,2.6607,2.5946,2.5538,2.5148,2.4714,2.4161,2.4073,2.451,2.4632,2.4562,2.4611,2.4196,2.3828,2.3669,2.3717,2.3561,2.3001,2.3346,2.34,2.2826,2.2694,2.2618,2.2558,2.2543,2.2406,2.2423,2.2306,2.2369,2.286,2.2872,2.2872,2.2757,2.1969,2.0935,2.0453,1.9901,1.9521,1.8927,1.8431,1.7898,1.728,1.6671,1.6069,1.5119,1.4273,1.3493,1.2978,1.2166,1.1516,1.1673,1.137,1.0843,1.085,1.0843,1.0262,3.3216,3.2452,3.2432,3.1928,3.1125,3.0683,3.0548,3.0438,2.883,2.8772,2.9569,2.7942,2.8184,2.993,2.9448,2.9245,2.9282,2.9187,2.8291,2.6868,2.7181,2.6707,2.5654,2.5556,2.5566,2.5556,2.5561,2.555,2.5574,2.5622,2.5676,2.5699,2.57,2.5702,2.5703,2.57,2.5668,2.5603,2.5613,2.5619,2.5639,2.5625,2.5634,2.5639,2.5634,2.5654,2.5644,2.5634,2.5657,2.5703,2.5693,2.5777,2.5977,2.596,2.6091,2.6461,2.643,2.6045,2.5438,2.5579,2.5459,2.488,2.4933,2.4839,2.4708,2.4834,2.5108,2.5212,2.4642,2.4192,2.4192,2.3908,2.3603,2.3363,2.3475,2.3432,2.296,2.3107,2.3151,2.2963,2.3289,2.352,2.3535,2.3749,2.3876,2.3776,2.3616,2.3673,2.4017,2.3994,2.4078,2.4168,2.3788,2.3127,2.2388,2.2087,2.1583,2.0933,2.0594,2.0187,1.9098,1.8454,1.779,1.7071,1.6227,1.5558,1.5349,1.4897,1.4323,1.4055,1.3468,1.2887,1.2112,1.2228,1.1772,3.3057,3.2311,3.2038,3.1428,3.0665,3.0642,3.063,3.0445,2.9078,2.8942,2.9551,2.8158,2.8663,3.0316,2.9694,2.9309,2.9256,2.8727,2.7861,2.6946,2.6889,2.6447,2.5675,2.5616,2.5619,2.5642,2.5626,2.5634,2.5627,2.5677,2.5702,2.5702,2.5703,2.5703,2.5662,2.5668,2.5626,2.5582,2.5576,2.5562,2.5577,2.557,2.5583,2.5595,2.5601,2.5599,2.5615,2.5603,2.5631,2.5662,2.5698,2.5639,2.5535,2.5467,2.5476,2.562,2.5893,2.5769,2.5128,2.5102,2.4993,2.4692,2.4906,2.508,2.5196,2.557,2.5822,2.5775,2.4942,2.4415,2.4282,2.4,2.3718,2.3623,2.3683,2.3566,2.3636,2.3621,2.3694,2.3664,2.4194,2.448,2.4455,2.4792,2.5005,2.495,2.495,2.5005,2.5059,2.5052,2.5123,2.5144,2.5038,2.4618,2.3958,2.3712,2.3385,2.2849,2.2388,2.1825,2.0801,2.0252,1.9686,1.915,1.8419,1.7645,1.7025,1.683,1.6374,1.5827,1.5245,1.469,1.393,1.3957,1.3537,3.4022,3.3099,3.2327,3.1508,3.0791,3.0728,3.07,3.0641,2.9698,2.981,3.04,2.9604,2.9783,3.0607,2.9719,2.9319,2.9389,2.9279,2.8351,2.6996,2.6903,2.6477,2.5724,2.5685,2.5694,2.5682,2.5683,2.5702,2.5703,2.5703,2.5703,2.5703,2.5697,2.5659,2.5613,2.5552,2.5525,2.5524,2.5522,2.5499,2.5499,2.5519,2.5536,2.5589,2.5601,2.5599,2.56,2.5605,2.5598,2.5604,2.5664,2.567,2.5589,2.5523,2.5302,2.5007,2.5509,2.5615,2.5168,2.551,2.5745,2.5595,2.5524,2.5785,2.572,2.5866,2.5977,2.5999,2.5806,2.5635,2.5503,2.4784,2.4603,2.5112,2.465,2.4642,2.5243,2.5105,2.5351,2.5233,2.5185,2.5228,2.5141,2.5265,2.5475,2.5475,2.5363,2.5379,2.5449,2.5664,2.5798,2.5691,2.5436,2.5102,2.4859,2.4569,2.4414,2.4035,2.3527,2.3271,2.2818,2.2289,2.1702,2.1075,2.0319,1.9483,1.8683,1.793,1.7218,1.6732,1.6398,1.5915,1.5321,1.5312,1.5022,3.2502,3.168,3.1376,3.1067,3.0799,3.0774,3.0758,3.0679,2.9835,2.9952,3.0521,2.9843,2.994,3.0713,2.9819,2.9426,2.9357,2.8876,2.8012,2.6991,2.6945,2.6521,2.5761,2.5703,2.5703,2.5703,2.5703,2.5703,2.5703,2.57,2.5697,2.5694,2.5651,2.5609,2.5593,2.5546,2.5518,2.5518,2.5515,2.5484,2.5456,2.5484,2.548,2.5476,2.5529,2.5538,2.5543,2.5565,2.5612,2.5597,2.5664,2.564,2.5532,2.5305,2.5124,2.4943,2.4972,2.4901,2.4709,2.4675,2.4646,2.4572,2.4882,2.5332,2.5692,2.583,2.5999,2.6415,2.6536,2.6459,2.625,2.5592,2.5196,2.5524,2.5718,2.5616,2.5567,2.5503,2.5415,2.5209,2.5343,2.5664,2.5864,2.635,2.6639,2.6573,2.6505,2.6437,2.6402,2.6537,2.6454,2.5999,2.5805,2.5578,2.5004,2.4796,2.4661,2.4723,2.4521,2.4451,2.4129,2.3712,2.3141,2.2482,2.1818,2.1038,2.0113,1.9037,1.8314,1.7894,1.7589,1.7317,1.6462,1.6828,1.6514,3.2011,3.1288,3.1227,3.1052,3.0799,3.079,3.0792,3.072,3.0172,3.0114,3.0272,2.9764,2.9706,2.9822,2.9096,2.8662,2.8561,2.8019,2.732,2.6561,2.6562,2.6266,2.5778,2.57,2.5701,2.5702,2.5702,2.5701,2.566,2.5691,2.5661,2.5648,2.5589,2.5566,2.5556,2.5499,2.5459,2.5459,2.548,2.5448,2.5412,2.544,2.544,2.5412,2.5429,2.548,2.5517,2.5521,2.5582,2.562,2.5642,2.5629,2.5477,2.5297,2.5126,2.5022,2.4818,2.4613,2.4524,2.4247,2.4078,2.4036,2.4454,2.4992,2.5494,2.5647,2.5982,2.6373,2.6498,2.6472,2.6409,2.6086,2.5967,2.5983,2.6118,2.5983,2.5547,2.5446,2.5313,2.5141,2.5302,2.5651,2.5987,2.6435,2.6725,2.6978,2.6987,2.6982,2.7144,2.721,2.6951,2.6208,2.6085,2.5727,2.5084,2.459,2.4682,2.476,2.4996,2.5107,2.5222,2.484,2.4422,2.3819,2.308,2.2337,2.1367,2.0231,1.9615,1.9188,1.9188,1.9058,1.8661,1.8495,1.8272,3.2791,3.1998,3.2057,3.1491,3.0838,3.0684,3.0742,3.0669,3.0601,3.0092,2.9593,2.945,2.9064,2.8379,2.7686,2.7137,2.7181,2.7012,2.6523,2.5857,2.5798,2.5777,2.5699,2.5699,2.5699,2.57,2.5699,2.5654,2.5618,2.5651,2.5613,2.5532,2.5504,2.5512,2.5518,2.5445,2.5404,2.5404,2.5415,2.5395,2.5387,2.5395,2.5415,2.5395,2.5412,2.5429,2.5511,2.5505,2.5551,2.5593,2.5601,2.5586,2.5522,2.5459,2.5372,2.5154,2.5022,2.4872,2.4651,2.4556,2.4424,2.4376,2.4714,2.4969,2.5201,2.5409,2.5618,2.5779,2.579,2.5747,2.5879,2.6205,2.6517,2.6586,2.5782,2.5289,2.538,2.5374,2.5339,2.524,2.5295,2.5295,2.5366,2.5694,2.6109,2.657,2.6637,2.669,2.7157,2.7331,2.7254,2.6604,2.6078,2.5637,2.4974,2.436,2.4537,2.475,2.5033,2.5278,2.5609,2.5463,2.5168,2.4583,2.357,2.2791,2.1734,2.0729,2.0783,2.05,2.0636,2.079,2.0718,2.0571,2.039,3.1461,3.1207,3.1217,3.1064,3.0703,3.016,2.9904,2.9832,2.9352,2.894,2.872,2.8678,2.8522,2.8134,2.7396,2.7005,2.6947,2.6378,2.5912,2.5751,2.5712,2.5691,2.5691,2.5693,2.5694,2.5694,2.5648,2.562,2.5603,2.558,2.5529,2.5499,2.5468,2.5448,2.5429,2.5415,2.5397,2.5387,2.5387,2.5387,2.5388,2.5378,2.5378,2.5388,2.5387,2.5404,2.544,2.5531,2.558,2.5613,2.5654,2.5641,2.5577,2.5477,2.5386,2.5307,2.5146,2.5061,2.4943,2.4809,2.4689,2.4654,2.4683,2.4949,2.5282,2.4977,2.5017,2.5415,2.5503,2.5503,2.5557,2.5667,2.5886,2.5932,2.5385,2.5085,2.5313,2.5116,2.491,2.485,2.498,2.5123,2.5366,2.5687,2.6121,2.6416,2.6477,2.6567,2.6644,2.6799,2.6363,2.5625,2.5481,2.545,2.4774,2.4411,2.4549,2.4694,2.4963,2.532,2.5657,2.6147,2.5839,2.5133,2.4128,2.3112,2.2021,2.1526,2.1506,2.1734,2.1738,2.2061,2.2483,2.2462,2.2189,3.0786,3.0786,3.0786,3.0786,3.0747,3.0186,2.978,2.9468,2.898,2.8395,2.793,2.781,2.7615,2.7267,2.6763,2.6523,2.6415,2.5908,2.5824,2.5983,2.5746,2.5668,2.5639,2.5616,2.5639,2.5619,2.559,2.555,2.5513,2.5505,2.5483,2.5418,2.5406,2.5379,2.536,2.537,2.537,2.536,2.536,2.5351,2.5361,2.537,2.537,2.537,2.5388,2.5397,2.5415,2.5543,2.5613,2.5616,2.5677,2.566,2.5595,2.5522,2.5459,2.5413,2.5337,2.5215,2.5118,2.4974,2.4872,2.4823,2.4708,2.4804,2.5148,2.4696,2.4759,2.5113,2.517,2.5134,2.5153,2.5134,2.5185,2.5259,2.496,2.491,2.505,2.4853,2.462,2.4605,2.4668,2.4807,2.5051,2.5291,2.5841,2.6009,2.6078,2.6255,2.6206,2.6352,2.5844,2.5489,2.5559,2.5245,2.4559,2.4459,2.4575,2.4709,2.4839,2.5162,2.5508,2.6375,2.6568,2.5407,2.4365,2.3395,2.2372,2.2116,2.2068,2.2378,2.2946,2.3252,2.3588,2.3882,2.3777,3.0794,3.0794,3.0774,3.0769,3.075,3.0585,3.0098,2.9537,2.9303,2.8407,2.7262,2.721,2.6727,2.5995,2.6034,2.6041,2.579,2.5851,2.6213,2.6469,2.6221,2.595,2.5962,2.5826,2.5754,2.5696,2.5562,2.5467,2.5413,2.5449,2.544,2.5313,2.5361,2.5361,2.5322,2.5313,2.5313,2.5293,2.5293,2.5293,2.5313,2.5313,2.5313,2.5313,2.5361,2.537,2.5397,2.5512,2.56,2.5601,2.5676,2.5662,2.5611,2.5603,2.5563,2.5517,2.5493,2.536,2.5197,2.5146,2.5099,2.4981,2.4885,2.4836,2.4898,2.4827,2.4768,2.4859,2.4813,2.476,2.4764,2.4732,2.4757,2.4714,2.4648,2.4595,2.4599,2.4566,2.4538,2.4447,2.4408,2.4409,2.445,2.4524,2.4857,2.5282,2.5449,2.5708,2.6021,2.6079,2.6022,2.5819,2.552,2.5274,2.4666,2.4663,2.4771,2.4794,2.4923,2.5152,2.5463,2.6289,2.6669,2.556,2.4605,2.365,2.3111,2.2935,2.3248,2.3944,2.4303,2.4479,2.483,2.5232,2.526,3.0737,3.0717,3.0618,3.0576,3.0479,2.9865,2.9442,2.9132,2.8567,2.7852,2.7031,2.7411,2.7179,2.6488,2.6443,2.672,2.6977,2.6663,2.6815,2.7412,2.74,2.7331,2.7166,2.6676,2.6411,2.6353,2.5808,2.543,2.5387,2.5387,2.5322,2.5293,2.5313,2.5313,2.5313,2.5303,2.5313,2.5313,2.5303,2.5303,2.5303,2.5303,2.5313,2.5313,2.5313,2.5322,2.5341,2.5453,2.5578,2.5668,2.568,2.5703,2.5663,2.5634,2.5595,2.557,2.5532,2.5477,2.5409,2.5391,2.5343,2.5263,2.5094,2.503,2.5005,2.4891,2.4842,2.4814,2.4785,2.4771,2.4727,2.4674,2.4685,2.4747,2.4712,2.4639,2.4623,2.4591,2.454,2.4491,2.4439,2.4474,2.4524,2.4591,2.4729,2.4998,2.5152,2.5234,2.5574,2.5627,2.5514,2.5343,2.5145,2.5094,2.4993,2.4955,2.4936,2.4942,2.5055,2.5246,2.5562,2.6021,2.5984,2.5413,2.4725,2.384,2.3912,2.3934,2.4652,2.5181,2.5637,2.5841,2.6446,2.6885,2.6646,3.0574,3.0574,3.0491,3.0453,3.0395,2.9892,2.9236,2.8637,2.8473,2.773,2.7034,2.7508,2.7585,2.7189,2.7207,2.7392,2.7701,2.7389,2.7615,2.8249,2.8672,2.8489,2.7933,2.7324,2.7179,2.711,2.6313,2.5919,2.5774,2.5476,2.5283,2.5253,2.5273,2.5273,2.5253,2.5253,2.5253,2.5253,2.5253,2.5253,2.5273,2.5273,2.5253,2.5264,2.5264,2.5303,2.5359,2.5425,2.5512,2.5606,2.5654,2.5702,2.5703,2.5663,2.5655,2.5644,2.5603,2.5559,2.5526,2.5505,2.5485,2.5406,2.5293,2.5293,2.5255,2.5156,2.5097,2.5118,2.5105,2.5072,2.505,2.4996,2.4979,2.5018,2.5019,2.4955,2.4847,2.4865,2.4832,2.4799,2.4766,2.4737,2.4809,2.4845,2.4904,2.4981,2.5095,2.5113,2.5163,2.5096,2.5096,2.5077,2.5091,2.5149,2.5179,2.5163,2.5163,2.516,2.516,2.5354,2.5663,2.5924,2.5649,2.5335,2.4725,2.4376,2.4523,2.4771,2.5277,2.5845,2.6549,2.7187,2.7629,2.7951,2.7769,3.0392,3.0392,3.0362,3.037,3.037,3.0321,2.9509,2.8442,2.8893,2.8354,2.74,2.7727,2.8102,2.7892,2.7939,2.7995,2.803,2.8016,2.8434,2.9034,2.953,2.9379,2.8375,2.8084,2.795,2.7816,2.7052,2.6603,2.6307,2.5683,2.5308,2.5241,2.5212,2.5212,2.5222,2.5212,2.5212,2.5212,2.5222,2.5222,2.5222,2.5222,2.5222,2.5222,2.5233,2.5293,2.5348,2.5403,2.5453,2.5521,2.5615,2.5677,2.5681,2.5702,2.5703,2.5696,2.5672,2.5632,2.5566,2.5532,2.5505,2.5452,2.5498,2.551,2.5471,2.5446,2.5421,2.5415,2.5505,2.5446,2.5452,2.541,2.5329,2.5293,2.5341,2.5322,2.525,2.5214,2.5206,2.5228,2.5209,2.516,2.5141,2.5133,2.5102,2.5118,2.5182,2.5233,2.5224,2.5234,2.5224,2.5203,2.5254,2.5303,2.533,2.5357,2.5365,2.5376,2.5322,2.5465,2.5817,2.5912,2.5579,2.5197,2.4786,2.4741,2.4974,2.5337,2.5965,2.6737,2.7616,2.8022,2.8385,2.8567,2.8537,3.0343,3.0311,3.0202,3.0174,3.0161,3.0099,2.9861,2.9479,2.9737,2.9211,2.8668,2.9202,2.9159,2.8592,2.8657,2.894,2.9303,2.8943,2.9041,2.9804,2.9975,2.999,2.9426,2.9008,2.8753,2.8555,2.7915,2.7194,2.6638,2.6332,2.5852,2.5316,2.5239,2.5212,2.5201,2.5201,2.5212,2.5212,2.5212,2.5201,2.5201,2.5201,2.5212,2.5212,2.5222,2.5233,2.5274,2.5406,2.5486,2.551,2.5574,2.564,2.5675,2.5699,2.5702,2.5703,2.5703,2.5682,2.5655,2.5634,2.5623,2.5554,2.5566,2.5537,2.5507,2.5507,2.5507,2.5515,2.551,2.5529,2.5564,2.546,2.5444,2.5445,2.5437,2.541,2.536,2.5361,2.5351,2.5341,2.5293,2.5264,2.5244,2.5255,2.5265,2.5284,2.5331,2.5406,2.5406,2.5378,2.536,2.5332,2.5359,2.541,2.5418,2.5446,2.5486,2.5485,2.5441,2.5691,2.6053,2.6278,2.6085,2.5563,2.4936,2.5068,2.5442,2.6419,2.7148,2.7919,2.8559,2.8854,2.9084,2.9217,2.9256,3.0471,3.0109,3.003,3.0,2.9984,2.9953,2.9747,2.9539,2.9874,2.9532,2.9076,2.9646,2.9722,2.9342,2.9357,2.9658,2.9882,2.9669,2.9631,3.0026,3.0098,3.0079,3.0041,2.9761,2.9516,2.9423,2.8728,2.8058,2.7586,2.6852,2.6201,2.5742,2.5405,2.5195,2.5187,2.5214,2.5176,2.5206,2.5217,2.5217,2.5217,2.5217,2.5209,2.5209,2.5209,2.522,2.5233,2.5303,2.5414,2.5486,2.5546,2.5605,2.5668,2.5696,2.5699,2.5701,2.5702,2.5703,2.5701,2.5694,2.5659,2.5609,2.5636,2.5636,2.5613,2.5593,2.5597,2.5593,2.5586,2.5593,2.5629,2.5605,2.556,2.5557,2.5525,2.5486,2.5506,2.5441,2.5404,2.544,2.5412,2.5412,2.5421,2.5406,2.5406,2.5414,2.5401,2.5472,2.5476,2.5448,2.5468,2.5468,2.5488,2.5505,2.5492,2.5521,2.5547,2.5521,2.5499,2.5931,2.6431,2.6632,2.676,2.619,2.566,2.5658,2.6115,2.7167,2.8036,2.8458,2.8921,2.9449,2.9732,2.966,2.9676,3.0726,3.0045,2.9931,2.9874,2.9874,2.9855,2.9534,2.9096,2.9588,2.9547,2.9093,2.9623,2.9867,2.9886,2.9899,2.9972,2.9988,3.0003,3.0,3.0038,3.0319,3.024,3.0164,3.0198,3.017,3.0133,2.9464,2.9011,2.8401,2.7555,2.6931,2.6511,2.5933,2.5678,2.548,2.5507,2.5487,2.5263,2.5397,2.5321,2.5206,2.5187,2.5191,2.5184,2.5206,2.5206,2.522,2.5234,2.5293,2.5464,2.5479,2.5547,2.5651,2.5693,2.5696,2.5699,2.5701,2.5703,2.5702,2.5697,2.5687,2.5623,2.5657,2.5705,2.5689,2.5673,2.5675,2.5693,2.567,2.5681,2.5694,2.5675,2.5671,2.5687,2.5636,2.5605,2.5589,2.5505,2.5493,2.5505,2.5499,2.5511,2.5543,2.5554,2.5543,2.555,2.5525,2.5531,2.5524,2.5524,2.5538,2.5557,2.5574,2.558,2.559,2.5598,2.5613,2.5757,2.5683,2.6357,2.6916,2.7186,2.7321,2.7005,2.6657,2.6675,2.6995,2.7937,2.8605,2.8893,2.9266,2.976,2.9958,3.0022,3.0032,3.0866,3.0678,3.002,2.9738,2.9757,2.9757,2.9717,2.9636,2.9769,2.9784,2.9718,2.9813,2.9891,2.9907,2.9924,2.9924,2.9907,2.9924,2.994,3.0108,3.0484,3.0595,3.0174,3.0646,3.0677,3.0236,2.9965,2.9684,2.9017,2.8484,2.787,2.7456,2.7119,2.679,2.6466,2.6656,2.6218,2.5469,2.5641,2.5603,2.5241,2.5126,2.512,2.5137,2.516,2.5191,2.5206,2.5253,2.5293,2.5357,2.5379,2.5479,2.5585,2.5648,2.5685,2.5691,2.5694,2.5679,2.5682,2.5703,2.5703,2.5683,2.5702,2.5702,2.5703,2.5702,2.5702,2.5701,2.5698,2.5696,2.5701,2.5696,2.5687,2.5703,2.5683,2.5661,2.5623,2.5584,2.558,2.5593,2.5582,2.5586,2.5601,2.5605,2.5582,2.5574,2.5565,2.5576,2.5571,2.5571,2.5576,2.5617,2.5655,2.5666,2.5681,2.5689,2.5722,2.603,2.6263,2.7078,2.7571,2.7882,2.7892,2.7954,2.7894,2.7885,2.8347,2.8874,2.9283,2.9665,2.9889,3.0084,3.0117,3.015,3.0125,3.1897,3.1503,3.109,3.094,3.0846,3.049,3.0321,3.0283,2.9944,2.9755,2.979,2.9808,2.9808,2.9808,2.9808,2.9808,2.9808,2.9841,2.9841,3.0009,3.0272,3.0379,3.013,3.0883,3.0959,3.0899,3.0994,3.0589,2.9516,2.8984,2.8646,2.8227,2.7813,2.7338,2.6991,2.682,2.6572,2.585,2.571,2.5558,2.5139,2.5101,2.5114,2.5107,2.5139,2.5151,2.5144,2.5172,2.5222,2.5254,2.5281,2.5356,2.5473,2.5532,2.5559,2.5639,2.5651,2.5659,2.5648,2.5676,2.5702,2.5702,2.5702,2.5701,2.57,2.5702,2.5684,2.5703,2.5703,2.5703,2.5703,2.5664,2.5644,2.5644,2.5664,2.5682,2.566,2.5644,2.5642,2.5636,2.5613,2.5609,2.5603,2.5603,2.5605,2.5605,2.5622,2.5618,2.5615,2.5615,2.5615,2.5632,2.5661,2.5693,2.5703,2.5702,2.5951,2.6281,2.6802,2.7608,2.8454,2.886,2.9245,2.9492,2.9375,2.897,2.9115,2.9467,2.9951,3.0327,3.0314,3.0298,3.0259,3.0266,3.0251,3.2866,3.2266,3.2098,3.2042,3.1929,3.1368,3.1088,3.0977,3.0489,3.0264,3.0152,3.0039,3.0002,2.9964,2.9945,2.9908,2.9795,2.9887,3.0093,3.0168,3.0394,3.0391,3.0633,3.114,3.1669,3.159,3.1874,3.1663,3.0459,2.9794,2.9315,2.8939,2.8278,2.788,2.7761,2.7652,2.6925,2.6146,2.5931,2.5532,2.5171,2.526,2.5222,2.5089,2.5082,2.5101,2.5114,2.5107,2.5137,2.5187,2.5203,2.5255,2.5337,2.5368,2.542,2.5515,2.5556,2.5598,2.5619,2.5612,2.5644,2.5642,2.5654,2.5668,2.5659,2.5646,2.5677,2.5681,2.568,2.5673,2.5648,2.5629,2.5605,2.5603,2.5629,2.5675,2.5657,2.5655,2.5654,2.566,2.5643,2.5801,2.5957,2.6113,2.6211,2.5976,2.5976,2.5642,2.5641,2.564,2.5657,2.5652,2.5673,2.5697,2.5702,2.5703,2.6093,2.666,2.7263,2.8039,2.9068,2.9979,3.0251,3.0325,3.0122,2.9777,2.9913,2.9989,3.03,3.0498,3.0524,3.0498,3.0479,3.0443,3.0424,3.298,3.285,3.2143,3.1827,3.1905,3.1775,3.1763,3.1827,3.1643,3.1759,3.1445,3.0996,3.0621,3.0677,3.0677,3.0321,3.0152,3.0471,3.0772,3.0847,3.1317,3.16,3.2015,3.2845,3.26,3.2391,3.2446,3.1895,3.1269,3.0966,3.0492,2.9943,2.9642,2.9317,2.8787,2.8692,2.8313,2.6754,2.6826,2.6408,2.5365,2.5677,2.5544,2.5202,2.5057,2.507,2.5089,2.5089,2.5095,2.5107,2.5101,2.5141,2.5212,2.522,2.5262,2.535,2.5444,2.554,2.558,2.557,2.5546,2.5554,2.5577,2.5574,2.5566,2.5593,2.5609,2.5601,2.5613,2.5613,2.5605,2.5616,2.5597,2.5609,2.5621,2.5619,2.5626,2.5642,2.5636,2.5775,2.5791,2.6247,2.6585,2.6739,2.6837,2.6546,2.6257,2.5931,2.5661,2.5663,2.5683,2.5683,2.5682,2.5683,2.5703,2.5703,2.6191,2.6874,2.7656,2.8398,2.9333,3.0209,3.0616,3.0645,3.0492,3.0412,3.0409,3.0477,3.0614,3.0625,3.0607,3.0639,3.0677,3.0645,3.0564,3.3586,3.364,3.3305,3.3157,3.3101,3.2674,3.2493,3.237,3.1592,3.1241,3.1115,3.0406,3.0294,3.0706,3.0766,3.0839,3.093,3.1327,3.1516,3.1516,3.1911,3.2139,3.2312,3.2954,3.3107,3.3164,3.3278,3.3278,3.2581,3.1977,3.156,3.1221,3.0732,3.0374,2.9729,2.9387,2.8631,2.7667,2.7006,2.6099,2.5319,2.5267,2.5356,2.4936,2.4991,2.5037,2.505,2.505,2.5031,2.5031,2.5044,2.5051,2.5094,2.5125,2.5172,2.5254,2.5284,2.5374,2.5473,2.5499,2.5492,2.551,2.5517,2.5527,2.5512,2.5521,2.5546,2.5537,2.5537,2.556,2.5543,2.5554,2.5549,2.5562,2.5579,2.5595,2.5591,2.56,2.5654,2.5814,2.5975,2.6349,2.67,2.6867,2.6835,2.6574,2.642,2.6269,2.5924,2.5693,2.5696,2.5699,2.5701,2.5702,2.5702,2.572,2.6249,2.6932,2.7791,2.8554,2.9414,3.0136,3.0624,3.0877,3.0756,3.0747,3.0813,3.0778,3.0739,3.0706,3.0672,3.0687,3.0715,3.065,3.0607,3.4049,3.4148,3.4173,3.4173,3.4117,3.3547,3.3287,3.3115,3.2112,3.1537,3.1218,3.0776,3.0627,3.0872,3.1198,3.1533,3.1749,3.2095,3.2232,3.2251,3.2291,3.2502,3.2941,3.3412,3.3642,3.3625,3.4118,3.4078,3.3627,3.3103,3.2672,3.226,3.1505,3.1073,3.0659,2.9981,2.9115,2.8305,2.7137,2.612,2.5363,2.5238,2.5106,2.4936,2.4856,2.495,2.4931,2.4977,2.4991,2.4991,2.5004,2.5012,2.5025,2.507,2.5082,2.5138,2.5187,2.522,2.5303,2.5354,2.5398,2.5432,2.5446,2.5427,2.546,2.5473,2.5471,2.5486,2.5479,2.5478,2.5483,2.5476,2.5476,2.5471,2.5505,2.5544,2.5577,2.5564,2.557,2.5659,2.584,2.6098,2.6437,2.6748,2.6747,2.6552,2.6484,2.6487,2.6161,2.574,2.5705,2.5691,2.5693,2.5715,2.5735,2.5892,2.6402,2.7087,2.7945,2.8864,2.9803,3.0351,3.0781,3.0918,3.0918,3.0897,3.0868,3.0838,3.0824,3.0804,3.0758,3.0739,3.0706,3.065,3.065,3.3998,3.4005,3.4074,3.4099,3.4124,3.4117,3.408,3.3895,3.3747,3.3482,3.3105,3.2785,3.1848,3.1876,3.214,3.2279,3.1931,3.2623,3.2883,3.2939,3.2976,3.3343,3.3765,3.4054,3.4248,3.4333,3.452,3.4483,3.4408,3.4001,3.3222,3.227,3.2119,3.1558,3.1128,3.0659,2.9551,2.8612,2.7392,2.6566,2.5928,2.564,2.5396,2.487,2.4783,2.4827,2.4808,2.4903,2.495,2.495,2.4964,2.4977,2.4977,2.5018,2.5032,2.5057,2.5088,2.5125,2.5157,2.5214,2.5224,2.5253,2.5293,2.533,2.5379,2.5404,2.5406,2.5404,2.5404,2.5412,2.5404,2.5395,2.5412,2.5429,2.5453,2.5461,2.5503,2.5517,2.5531,2.5538,2.5661,2.5881,2.621,2.6526,2.6661,2.6489,2.6337,2.6305,2.6038,2.5693,2.5698,2.5703,2.5703,2.5724,2.5785,2.6158,2.6743,2.7508,2.8367,2.935,3.035,3.0741,3.0897,3.0898,3.0898,3.0898,3.0917,3.0875,3.0853,3.0871,3.0847,3.0788,3.0781,3.0751,3.0735,3.3887,3.3868,3.3947,3.3998,3.403,3.4074,3.4074,3.3956,3.3506,3.2988,3.2594,3.2207,3.2188,3.2416,3.2643,3.3037,3.3221,3.3481,3.3629,3.3733,3.3831,3.3985,3.4269,3.4288,3.4274,3.4358,3.434,3.434,3.4298,3.4293,3.4088,3.3403,3.2866,3.263,3.2166,3.1177,2.9907,2.867,2.7566,2.667,2.592,2.5351,2.503,2.472,2.4689,2.4738,2.4753,2.4783,2.4798,2.4813,2.4842,2.4875,2.4908,2.4964,2.4972,2.498,2.5012,2.5038,2.5076,2.513,2.5217,2.5212,2.5233,2.5253,2.5293,2.5274,2.5312,2.5322,2.5351,2.5351,2.5341,2.536,2.5397,2.5387,2.5395,2.5404,2.5421,2.5453,2.5461,2.5476,2.5476,2.5573,2.5943,2.634,2.6403,2.6427,2.6279,2.6104,2.585,2.5678,2.5662,2.5662,2.5662,2.5665,2.5723,2.6331,2.7075,2.79,2.8747,2.9652,3.0497,3.0758,3.0896,3.0877,3.0877,3.0877,3.0857,3.0858,3.0859,3.0876,3.087,3.0821,3.0821,3.0823,3.0804,3.3807,3.3807,3.3842,3.3895,3.3972,3.3998,3.3998,3.388,3.3419,3.284,3.2244,3.2262,3.2545,3.3006,3.3179,3.3407,3.3808,3.4,3.4043,3.4068,3.4068,3.4148,3.4222,3.4371,3.4501,3.4315,3.4445,3.4538,3.4148,3.4148,3.4056,3.387,3.361,3.3287,3.2612,3.148,3.0107,2.9101,2.7905,2.714,2.6468,2.557,2.508,2.4918,2.4834,2.466,2.4676,2.4707,2.4723,2.4719,2.4734,2.4764,2.4798,2.4861,2.4903,2.4912,2.494,2.4972,2.5012,2.5107,2.518,2.5187,2.5198,2.5209,2.5201,2.5212,2.5252,2.5262,2.5282,2.5292,2.5303,2.5322,2.537,2.5369,2.5397,2.5406,2.5395,2.5412,2.5412,2.5401,2.5421,2.5429,2.5588,2.5994,2.6288,2.6426,2.6588,2.6251,2.5717,2.5604,2.5613,2.5589,2.5604,2.5609,2.5652,2.6641,2.7571,2.8052,2.8883,2.9682,3.0378,3.0665,3.0827,3.0806,3.0806,3.0808,3.0808,3.0806,3.0839,3.0875,3.0871,3.0847,3.0811,3.0811,3.081,3.3788,3.3807,3.3807,3.386,3.3895,3.3972,3.3947,3.3895,3.3802,3.3684,3.3521,3.3558,3.3603,3.3766,3.3674,3.3817,3.3924,3.3998,3.4023,3.4023,3.4049,3.4023,3.4375,3.4689,3.4918,3.4404,3.4763,3.4929,3.4264,3.4474,3.4356,3.4116,3.3956,3.3494,3.2821,3.1362,3.0568,3.0259,2.8792,2.8143,2.7492,2.6377,2.58,2.5576,2.5293,2.5084,2.5101,2.4928,2.4926,2.4923,2.4748,2.4707,2.4726,2.4723,2.4738,2.4719,2.4779,2.4808,2.4808,2.5004,2.5095,2.5149,2.5191,2.5184,2.5209,2.5201,2.5201,2.522,2.5241,2.5301,2.5302,2.5293,2.5322,2.5361,2.5361,2.537,2.536,2.5369,2.5359,2.5387,2.5395,2.5395,2.544,2.5608,2.6068,2.6403,2.6748,2.6456,2.5735,2.5529,2.554,2.5515,2.5498,2.5523,2.5801,2.7136,2.8055,2.8456,2.9088,2.9937,3.038,3.0607,3.0712,3.0719,3.0732,3.0724,3.0732,3.0739,3.0786,3.0818,3.0877,3.0855,3.0817,3.0798,3.0797,3.3753,3.3807,3.3807,3.3834,3.3815,3.3842,3.3842,3.386,3.3834,3.3834,3.3807,3.3807,3.3807,3.3815,3.3842,3.3887,3.3921,3.3921,3.3947,3.4035,3.4109,3.4441,3.4829,3.5209,3.5412,3.5697,3.5992,3.5947,3.5734,3.5356,3.5135,3.4932,3.4094,3.3548,3.2952,3.2093,3.1709,3.052,2.9413,2.8639,2.8007,2.7062,2.6451,2.6451,2.6172,2.5986,2.5911,2.5593,2.5349,2.5217,2.4991,2.4725,2.4703,2.4701,2.4711,2.4711,2.4738,2.4719,2.4734,2.4842,2.4972,2.507,2.5144,2.5125,2.5137,2.5184,2.5195,2.5206,2.5198,2.5239,2.5222,2.5233,2.5273,2.5312,2.5322,2.5332,2.5322,2.5313,2.5322,2.536,2.5388,2.5397,2.5415,2.558,2.5956,2.5994,2.6236,2.6113,2.5538,2.5471,2.5464,2.5418,2.541,2.543,2.5882,2.7207,2.8047,2.8392,2.9266,3.0314,3.0611,3.0625,3.0647,3.0687,3.0656,3.0639,3.067,3.0697,3.0724,3.0755,3.0792,3.082,3.08,3.0781,3.0801,3.3698,3.3726,3.3726,3.3744,3.3753,3.3762,3.3807,3.3807,3.3807,3.3807,3.3807,3.3807,3.3807,3.3807,3.3807,3.3807,3.3905,3.4191,3.431,3.44,3.4731,3.5174,3.5579,3.5855,3.5883,3.6316,3.6537,3.6555,3.5321,3.5763,3.5367,3.4613,3.4163,3.371,3.3202,3.2791,3.2323,3.1209,3.0405,2.9481,2.8778,2.7982,2.7244,2.7153,2.6969,2.6747,2.6672,2.6376,2.5931,2.5634,2.528,2.4961,2.494,2.4785,2.4818,2.4912,2.4776,2.4732,2.4723,2.4738,2.4856,2.4959,2.5019,2.5063,2.5082,2.5132,2.5144,2.5168,2.516,2.5164,2.5168,2.5168,2.522,2.5261,2.5241,2.5262,2.5243,2.5253,2.5222,2.5283,2.5341,2.5361,2.5418,2.5659,2.5928,2.5792,2.5674,2.5567,2.5537,2.5627,2.5726,2.5764,2.588,2.6082,2.6458,2.7239,2.7933,2.8318,2.9337,3.0521,3.0591,3.0564,3.0607,3.0633,3.0613,3.0603,3.0618,3.0626,3.0652,3.0661,3.0696,3.0726,3.0745,3.0774,3.0779,3.3605,3.3605,3.3605,3.3605,3.3633,3.3726,3.378,3.3807,3.3807,3.3807,3.3788,3.3807,3.3807,3.3807,3.3807,3.388,3.4045,3.4633,3.4908,3.522,3.5615,3.6074,3.6497,3.6883,3.6681,3.635,3.6515,3.6801,3.4504,3.5156,3.5028,3.4219,3.3981,3.3742,3.3493,3.3188,3.2741,3.2047,3.1334,3.0577,2.9968,2.8935,2.8402,2.8107,2.7721,2.7333,2.7149,2.6907,2.6445,2.6058,2.569,2.5653,2.5449,2.4966,2.5207,2.5242,2.4976,2.4874,2.466,2.4676,2.4723,2.4813,2.4931,2.4999,2.507,2.5101,2.5126,2.5107,2.512,2.5113,2.5094,2.5141,2.5176,2.5187,2.5168,2.5168,2.5179,2.5138,2.5091,2.5134,2.522,2.5271,2.5398,2.562,2.6058,2.6002,2.5964,2.6082,2.6094,2.6173,2.6304,2.6507,2.6661,2.6932,2.7377,2.7764,2.8159,2.8653,2.9515,3.0482,3.0492,3.051,3.0535,3.0552,3.0585,3.0576,3.0565,3.0565,3.0546,3.0576,3.0639,3.0686,3.0708,3.0757,3.0767,3.3567,3.3605,3.3605,3.3605,3.3605,3.3661,3.3661,3.3671,3.3698,3.3726,3.3726,3.378,3.378,3.3807,3.3825,3.4156,3.4495,3.4935,3.5422,3.5844,3.6201,3.6652,3.7055,3.7422,3.7422,3.7661,3.7826,3.7643,3.7019,3.656,3.533,3.4798,3.4027,3.3862,3.3715,3.3576,3.318,3.2702,3.2109,3.163,3.1083,3.0088,2.9646,2.9245,2.8732,2.8363,2.8196,2.7809,2.7403,2.7218,2.6628,2.6426,2.6334,2.6151,2.617,2.5597,2.5374,2.5221,2.4698,2.4599,2.4663,2.4695,2.4753,2.4875,2.4977,2.5031,2.5044,2.5031,2.5044,2.5038,2.5051,2.5088,2.5125,2.5118,2.5087,2.5043,2.5012,2.4994,2.4955,2.4923,2.5,2.5087,2.5218,2.5968,2.6333,2.6288,2.6358,2.6567,2.6801,2.6936,2.6962,2.7185,2.7389,2.7637,2.7879,2.8248,2.8605,2.9051,2.9852,3.0419,3.0451,3.0472,3.0482,3.0482,3.0511,3.0501,3.051,3.0491,3.0492,3.0539,3.0587,3.0639,3.0684,3.0715,3.0735,3.3481,3.352,3.352,3.352,3.352,3.3538,3.352,3.352,3.3615,3.3689,3.3671,3.3698,3.3726,3.3726,3.3762,3.3936,3.4338,3.4759,3.529,3.5967,3.6545,3.7186,3.7607,3.7839,3.7857,3.8236,3.8053,3.7514,3.7239,3.6138,3.4871,3.4468,3.3935,3.3853,3.3762,3.3688,3.3505,3.3128,3.2706,3.239,3.182,3.114,3.0722,3.0291,2.9757,2.9499,2.9112,2.854,2.8298,2.8006,2.7285,2.7195,2.7198,2.7142,2.6519,2.5949,2.556,2.517,2.4684,2.4551,2.4566,2.4599,2.4647,2.4723,2.4813,2.4889,2.4889,2.4889,2.4931,2.4972,2.4999,2.5031,2.5038,2.5063,2.4974,2.4883,2.4855,2.4832,2.4771,2.4723,2.4752,2.4809,2.5248,2.6086,2.6588,2.6493,2.6868,2.7513,2.7831,2.812,2.7998,2.796,2.8141,2.8338,2.8548,2.8785,2.9053,2.9436,2.9915,3.034,3.0386,3.043,3.0432,3.0422,3.0419,3.0428,3.0447,3.0449,3.0451,3.0492,3.053,3.0565,3.061,3.0691,3.0684,3.3393,3.3393,3.3393,3.3393,3.3393,3.3393,3.3393,3.3422,3.352,3.3605,3.3605,3.3605,3.3605,3.3633,3.3633,3.3761,3.4272,3.4812,3.5597,3.6103,3.7009,3.763,3.7898,3.8337,3.7985,3.7577,3.7223,3.6996,3.5375,3.4651,3.4394,3.3817,3.3798,3.3753,3.3698,3.3726,3.3616,3.346,3.3085,3.2753,3.254,3.1916,3.1127,3.0467,3.0118,2.9843,2.9237,2.8851,2.8645,2.8195,2.7959,2.7981,2.8003,2.7988,2.7184,2.6429,2.6023,2.5431,2.4929,2.463,2.4551,2.4566,2.4599,2.4631,2.4695,2.4753,2.4783,2.4783,2.4827,2.4842,2.4856,2.4931,2.4953,2.4926,2.487,2.4775,2.4682,2.462,2.4508,2.4472,2.4522,2.466,2.5336,2.617,2.7035,2.6827,2.7366,2.8275,2.859,2.8942,2.8896,2.8685,2.8886,2.9051,2.9308,2.9508,2.9563,2.9876,3.0171,3.026,3.0299,3.0352,3.0411,3.0367,3.0371,3.0352,3.0371,3.0375,3.0428,3.046,3.0481,3.0491,3.0539,3.0614,3.0637,3.3393,3.3393,3.3393,3.3393,3.3393,3.3393,3.3393,3.3393,3.3422,3.3481,3.352,3.3577,3.3605,3.3577,3.3577,3.3777,3.4462,3.4834,3.6067,3.6723,3.7421,3.7512,3.769,3.7963,3.7812,3.7466,3.7022,3.6321,3.5005,3.4457,3.4173,3.3716,3.3661,3.3643,3.3615,3.3661,3.3643,3.3578,3.3442,3.3277,3.3248,3.2687,3.1953,3.1182,3.0668,2.9934,2.9342,2.8975,2.8902,2.8741,2.8741,2.8723,2.8723,2.8772,2.8319,2.7474,2.6686,2.5986,2.5356,2.4855,2.463,2.4554,2.4552,2.4534,2.4566,2.4645,2.4692,2.4707,2.4707,2.4723,2.4734,2.4813,2.487,2.4813,2.4787,2.4673,2.454,2.4372,2.4229,2.4266,2.432,2.4798,2.5442,2.624,2.7117,2.7866,2.8539,2.9116,2.9062,2.9289,2.9343,2.9281,2.9564,2.9772,2.9973,2.998,2.9909,2.9923,3.0114,3.0166,3.0213,3.0241,3.0297,3.0323,3.0318,3.0299,3.0323,3.0359,3.0383,3.0417,3.0469,3.046,3.0481,3.0549,3.0585,3.3393,3.3393,3.3393,3.3393,3.3393,3.3393,3.3393,3.3393,3.3393,3.3422,3.3433,3.3509,3.3491,3.352,3.3491,3.3666,3.4248,3.4593,3.5399,3.6344,3.6848,3.7144,3.7321,3.7408,3.7298,3.6989,3.6267,3.544,3.448,3.4189,3.386,3.3642,3.3605,3.3577,3.3577,3.3577,3.3577,3.353,3.3577,3.3661,3.3726,3.3186,3.2672,3.1928,3.1121,3.0314,2.9654,2.925,2.8994,2.8975,2.8962,2.8962,2.8943,2.8966,2.8607,2.7874,2.7106,2.639,2.5745,2.5171,2.4745,2.4615,2.4874,2.5003,2.4501,2.453,2.4564,2.4599,2.4629,2.4645,2.4673,2.4734,2.4794,2.4779,2.4817,2.4787,2.451,2.4211,2.4116,2.4077,2.4226,2.4616,2.5319,2.6209,2.7063,2.79,2.8746,2.931,2.937,2.9411,2.9531,2.9664,2.9806,2.994,2.9984,3.003,3.0041,3.0079,3.0083,3.0128,3.0157,3.0166,3.0207,3.024,3.0266,3.0247,3.0254,3.0311,3.0336,3.0352,3.0406,3.0458,3.0469,3.0479,3.0491,3.3031,3.3103,3.3176,3.323,3.3284,3.3375,3.3393,3.3393,3.3393,3.3393,3.3393,3.3393,3.3393,3.3393,3.3393,3.3393,3.3574,3.4093,3.4836,3.5222,3.5258,3.596,3.6427,3.6567,3.644,3.6108,3.5466,3.4623,3.3731,3.3676,3.3676,3.3577,3.3559,3.3549,3.352,3.352,3.3549,3.3491,3.352,3.3549,3.3577,3.3569,3.3104,3.2472,3.1748,3.0961,3.018,2.9507,2.9067,2.8975,2.8975,2.8975,2.8975,2.8998,2.8727,2.8128,2.723,2.6589,2.6037,2.5448,2.5004,2.4838,2.5264,2.5134,2.4579,2.4411,2.4464,2.4498,2.453,2.458,2.461,2.4645,2.4707,2.4666,2.4719,2.4723,2.4373,2.4058,2.3998,2.3915,2.416,2.4496,2.5399,2.6268,2.7046,2.7859,2.8492,2.8963,2.9304,2.9349,2.9433,2.9513,2.9626,2.977,2.9926,2.9959,2.9975,2.9991,2.9972,3.0053,3.0098,3.0123,3.0152,3.0185,3.0199,3.0207,3.0215,3.0273,3.0279,3.0304,3.034,3.0394,3.0436,3.0428,3.0436,3.14,3.151,3.2144,3.2415,3.2542,3.3103,3.3393,3.3393,3.3375,3.3393,3.3393,3.3393,3.3393,3.3393,3.3393,3.3393,3.3484,3.3864,3.428,3.4733,3.5005,3.5294,3.5566,3.5905,3.5525,3.509,3.4703,3.422,3.359,3.3452,3.3452,3.3433,3.3433,3.3433,3.3404,3.3452,3.3452,3.3452,3.3452,3.3481,3.352,3.3403,3.3113,3.2447,3.1644,3.0841,3.0063,2.9326,2.9015,2.8929,2.8952,2.8975,2.8975,2.8975,2.8815,2.8411,2.7518,2.7153,2.6659,2.5832,2.5335,2.5133,2.53,2.4857,2.4487,2.4339,2.4375,2.4375,2.441,2.4481,2.4515,2.4535,2.4569,2.4371,2.4316,2.4247,2.4037,2.3917,2.3852,2.3834,2.3951,2.4704,2.5789,2.653,2.7184,2.7959,2.8703,2.9138,2.9218,2.9265,2.931,2.9392,2.9492,2.9608,2.9719,2.9792,2.9808,2.9842,2.9893,2.9959,3.0038,3.0079,3.0128,3.0157,3.0171,3.018,3.0207,3.0234,3.0241,3.0279,3.0304,3.0328,3.0371,3.0383,3.039]}]]